<?xml version="1.0" encoding="UTF-8" standalone="no" ?>
<gpx xmlns="http://www.topografix.com/GPX/1/1" xmlns:xsi="http://www.w3.org/2001/XMLSchema-instance" xsi:schemaLocation="http://www.topografix.com/GPX/1/1 http://www.topografix.com/GPX/1/1/gpx.xsd" version="1.1" creator="VisuGPX - https://www.visugpx.com">
  <metadata>
    <name>J6 Quenza - Les hauts de Cavanello (Zonza)</name>
  </metadata>
  <trk>
    <name><![CDATA[30-AVR-22 05:05:10 PM]]></name>
    <extensions>
      <line xmlns="http://www.topografix.com/GPX/gpx_style/0/2">
        <color>0000FF</color>
        <width>4</width>
      </line>
    </extensions>
    <trkseg>
      <trkpt lat="41.76646" lon="9.14078">
        <ele>813.89</ele>
        <time>2022-04-29T16:18:37Z</time>
      </trkpt>
      <trkpt lat="41.76647" lon="9.14081">
        <ele>813.89</ele>
        <time>2022-04-29T16:19:02Z</time>
      </trkpt>
      <trkpt lat="41.76647" lon="9.14083">
        <ele>813.41</ele>
        <time>2022-04-29T16:19:04Z</time>
      </trkpt>
      <trkpt lat="41.76647" lon="9.14085">
        <ele>813.41</ele>
        <time>2022-04-29T16:19:05Z</time>
      </trkpt>
      <trkpt lat="41.76645" lon="9.14092">
        <ele>813.41</ele>
        <time>2022-04-29T16:19:19Z</time>
      </trkpt>
      <trkpt lat="41.76644" lon="9.14095">
        <ele>813.89</ele>
        <time>2022-04-29T16:19:44Z</time>
      </trkpt>
      <trkpt lat="41.76642" lon="9.14093">
        <ele>814.37</ele>
        <time>2022-04-29T16:20:10Z</time>
      </trkpt>
      <trkpt lat="41.76642" lon="9.14093">
        <ele>824.95</ele>
        <time>2022-04-29T16:20:14Z</time>
      </trkpt>
      <trkpt lat="41.76642" lon="9.14093">
        <ele>823.51</ele>
        <time>2022-04-29T16:20:19Z</time>
      </trkpt>
      <trkpt lat="41.76642" lon="9.14093">
        <ele>823.51</ele>
        <time>2022-04-29T16:20:20Z</time>
      </trkpt>
      <trkpt lat="41.76642" lon="9.14093">
        <ele>827.83</ele>
        <time>2022-04-29T17:07:38Z</time>
      </trkpt>
      <trkpt lat="41.76658" lon="9.14113">
        <ele>827.35</ele>
        <time>2022-04-29T17:07:39Z</time>
      </trkpt>
      <trkpt lat="41.76651" lon="9.14113">
        <ele>828.31</ele>
        <time>2022-04-29T17:08:08Z</time>
      </trkpt>
      <trkpt lat="41.76653" lon="9.14109">
        <ele>828.79</ele>
        <time>2022-04-29T17:08:38Z</time>
      </trkpt>
      <trkpt lat="41.76653" lon="9.14106">
        <ele>828.31</ele>
        <time>2022-04-29T17:09:02Z</time>
      </trkpt>
      <trkpt lat="41.76651" lon="9.14109">
        <ele>828.31</ele>
        <time>2022-04-29T17:09:31Z</time>
      </trkpt>
      <trkpt lat="41.76651" lon="9.14111">
        <ele>828.79</ele>
        <time>2022-04-29T17:10:00Z</time>
      </trkpt>
      <trkpt lat="41.76654" lon="9.14106">
        <ele>828.79</ele>
        <time>2022-04-29T17:10:32Z</time>
      </trkpt>
      <trkpt lat="41.76657" lon="9.14107">
        <ele>827.83</ele>
        <time>2022-04-29T17:10:46Z</time>
      </trkpt>
      <trkpt lat="41.7667" lon="9.14072">
        <ele>828.79</ele>
        <time>2022-04-29T17:11:33Z</time>
      </trkpt>
      <trkpt lat="41.76673" lon="9.14039">
        <ele>829.76</ele>
        <time>2022-04-29T17:11:47Z</time>
      </trkpt>
      <trkpt lat="41.7669" lon="9.14004">
        <ele>829.27</ele>
        <time>2022-04-29T17:12:16Z</time>
      </trkpt>
      <trkpt lat="41.76692" lon="9.14002">
        <ele>827.83</ele>
        <time>2022-04-29T17:12:26Z</time>
      </trkpt>
      <trkpt lat="41.76691" lon="9.14005">
        <ele>829.76</ele>
        <time>2022-04-29T17:12:27Z</time>
      </trkpt>
      <trkpt lat="41.76675" lon="9.14052">
        <ele>827.83</ele>
        <time>2022-04-29T17:12:41Z</time>
      </trkpt>
      <trkpt lat="41.7666" lon="9.14113">
        <ele>828.79</ele>
        <time>2022-04-29T17:13:11Z</time>
      </trkpt>
      <trkpt lat="41.7667" lon="9.14118">
        <ele>828.79</ele>
        <time>2022-04-29T17:13:35Z</time>
      </trkpt>
      <trkpt lat="41.76672" lon="9.14117">
        <ele>828.31</ele>
        <time>2022-04-29T17:13:58Z</time>
      </trkpt>
      <trkpt lat="41.7666" lon="9.14113">
        <ele>828.79</ele>
        <time>2022-04-29T17:14:24Z</time>
      </trkpt>
      <trkpt lat="41.76658" lon="9.14112">
        <ele>828.31</ele>
        <time>2022-04-29T17:14:44Z</time>
      </trkpt>
      <trkpt lat="41.76637" lon="9.14089">
        <ele>798.51</ele>
        <time>2022-04-30T06:30:02Z</time>
      </trkpt>
      <trkpt lat="41.76637" lon="9.14091">
        <ele>798.03</ele>
        <time>2022-04-30T06:30:03Z</time>
      </trkpt>
      <trkpt lat="41.76633" lon="9.14113">
        <ele>798.51</ele>
        <time>2022-04-30T06:30:19Z</time>
      </trkpt>
      <trkpt lat="41.76632" lon="9.1412">
        <ele>799.47</ele>
        <time>2022-04-30T06:30:25Z</time>
      </trkpt>
      <trkpt lat="41.76625" lon="9.14128">
        <ele>799.47</ele>
        <time>2022-04-30T06:30:41Z</time>
      </trkpt>
      <trkpt lat="41.76626" lon="9.14131">
        <ele>799.47</ele>
        <time>2022-04-30T06:30:55Z</time>
      </trkpt>
      <trkpt lat="41.76623" lon="9.14144">
        <ele>800.44</ele>
        <time>2022-04-30T06:31:05Z</time>
      </trkpt>
      <trkpt lat="41.76621" lon="9.14153">
        <ele>801.88</ele>
        <time>2022-04-30T06:31:10Z</time>
      </trkpt>
      <trkpt lat="41.76621" lon="9.14157">
        <ele>799.95</ele>
        <time>2022-04-30T06:31:12Z</time>
      </trkpt>
      <trkpt lat="41.76633" lon="9.14169">
        <ele>801.4</ele>
        <time>2022-04-30T06:31:28Z</time>
      </trkpt>
      <trkpt lat="41.76636" lon="9.14167">
        <ele>801.88</ele>
        <time>2022-04-30T06:31:31Z</time>
      </trkpt>
      <trkpt lat="41.76666" lon="9.14158">
        <ele>803.8</ele>
        <time>2022-04-30T06:31:54Z</time>
      </trkpt>
      <trkpt lat="41.76677" lon="9.14169">
        <ele>804.28</ele>
        <time>2022-04-30T06:32:11Z</time>
      </trkpt>
      <trkpt lat="41.76679" lon="9.1417">
        <ele>804.76</ele>
        <time>2022-04-30T06:32:13Z</time>
      </trkpt>
      <trkpt lat="41.76682" lon="9.14175">
        <ele>805.24</ele>
        <time>2022-04-30T06:32:18Z</time>
      </trkpt>
      <trkpt lat="41.76688" lon="9.14187">
        <ele>805.72</ele>
        <time>2022-04-30T06:32:32Z</time>
      </trkpt>
      <trkpt lat="41.76697" lon="9.14198">
        <ele>807.16</ele>
        <time>2022-04-30T06:32:49Z</time>
      </trkpt>
      <trkpt lat="41.76704" lon="9.14209">
        <ele>807.64</ele>
        <time>2022-04-30T06:33:01Z</time>
      </trkpt>
      <trkpt lat="41.76711" lon="9.14226">
        <ele>808.61</ele>
        <time>2022-04-30T06:33:17Z</time>
      </trkpt>
      <trkpt lat="41.76718" lon="9.14243">
        <ele>809.09</ele>
        <time>2022-04-30T06:33:34Z</time>
      </trkpt>
      <trkpt lat="41.76723" lon="9.14258">
        <ele>810.05</ele>
        <time>2022-04-30T06:33:51Z</time>
      </trkpt>
      <trkpt lat="41.7673" lon="9.14282">
        <ele>811.49</ele>
        <time>2022-04-30T06:34:08Z</time>
      </trkpt>
      <trkpt lat="41.76745" lon="9.14313">
        <ele>813.41</ele>
        <time>2022-04-30T06:34:32Z</time>
      </trkpt>
      <trkpt lat="41.76755" lon="9.14328">
        <ele>813.41</ele>
        <time>2022-04-30T06:34:49Z</time>
      </trkpt>
      <trkpt lat="41.76756" lon="9.14329">
        <ele>812.93</ele>
        <time>2022-04-30T06:34:50Z</time>
      </trkpt>
      <trkpt lat="41.76788" lon="9.14359">
        <ele>813.89</ele>
        <time>2022-04-30T06:35:11Z</time>
      </trkpt>
      <trkpt lat="41.76808" lon="9.14373">
        <ele>813.89</ele>
        <time>2022-04-30T06:35:28Z</time>
      </trkpt>
      <trkpt lat="41.76824" lon="9.14379">
        <ele>815.34</ele>
        <time>2022-04-30T06:35:45Z</time>
      </trkpt>
      <trkpt lat="41.7684" lon="9.14386">
        <ele>816.78</ele>
        <time>2022-04-30T06:36:02Z</time>
      </trkpt>
      <trkpt lat="41.76856" lon="9.14393">
        <ele>816.78</ele>
        <time>2022-04-30T06:36:17Z</time>
      </trkpt>
      <trkpt lat="41.76872" lon="9.14398">
        <ele>817.74</ele>
        <time>2022-04-30T06:36:31Z</time>
      </trkpt>
      <trkpt lat="41.76887" lon="9.14407">
        <ele>818.7</ele>
        <time>2022-04-30T06:36:49Z</time>
      </trkpt>
      <trkpt lat="41.76892" lon="9.14411">
        <ele>819.18</ele>
        <time>2022-04-30T06:36:53Z</time>
      </trkpt>
      <trkpt lat="41.76909" lon="9.14423">
        <ele>820.14</ele>
        <time>2022-04-30T06:37:08Z</time>
      </trkpt>
      <trkpt lat="41.76926" lon="9.14436">
        <ele>820.14</ele>
        <time>2022-04-30T06:37:24Z</time>
      </trkpt>
      <trkpt lat="41.76944" lon="9.14454">
        <ele>820.62</ele>
        <time>2022-04-30T06:37:44Z</time>
      </trkpt>
      <trkpt lat="41.76958" lon="9.14467">
        <ele>822.06</ele>
        <time>2022-04-30T06:38:02Z</time>
      </trkpt>
      <trkpt lat="41.7697" lon="9.14479">
        <ele>823.03</ele>
        <time>2022-04-30T06:38:18Z</time>
      </trkpt>
      <trkpt lat="41.76983" lon="9.14489">
        <ele>824.47</ele>
        <time>2022-04-30T06:38:34Z</time>
      </trkpt>
      <trkpt lat="41.77" lon="9.14503">
        <ele>824.95</ele>
        <time>2022-04-30T06:38:50Z</time>
      </trkpt>
      <trkpt lat="41.77018" lon="9.14506">
        <ele>824.95</ele>
        <time>2022-04-30T06:39:07Z</time>
      </trkpt>
      <trkpt lat="41.77037" lon="9.14515">
        <ele>824.47</ele>
        <time>2022-04-30T06:39:22Z</time>
      </trkpt>
      <trkpt lat="41.7706" lon="9.14522">
        <ele>824.95</ele>
        <time>2022-04-30T06:39:34Z</time>
      </trkpt>
      <trkpt lat="41.77081" lon="9.14535">
        <ele>825.91</ele>
        <time>2022-04-30T06:39:50Z</time>
      </trkpt>
      <trkpt lat="41.77093" lon="9.14551">
        <ele>826.87</ele>
        <time>2022-04-30T06:40:02Z</time>
      </trkpt>
      <trkpt lat="41.77096" lon="9.14552">
        <ele>826.87</ele>
        <time>2022-04-30T06:40:04Z</time>
      </trkpt>
      <trkpt lat="41.77112" lon="9.14567">
        <ele>827.83</ele>
        <time>2022-04-30T06:40:20Z</time>
      </trkpt>
      <trkpt lat="41.77124" lon="9.14582">
        <ele>828.31</ele>
        <time>2022-04-30T06:40:34Z</time>
      </trkpt>
      <trkpt lat="41.77132" lon="9.1459">
        <ele>828.79</ele>
        <time>2022-04-30T06:40:43Z</time>
      </trkpt>
      <trkpt lat="41.77142" lon="9.14614">
        <ele>829.27</ele>
        <time>2022-04-30T06:40:59Z</time>
      </trkpt>
      <trkpt lat="41.77155" lon="9.14625">
        <ele>831.2</ele>
        <time>2022-04-30T06:41:14Z</time>
      </trkpt>
      <trkpt lat="41.77166" lon="9.14641">
        <ele>832.16</ele>
        <time>2022-04-30T06:41:26Z</time>
      </trkpt>
      <trkpt lat="41.7718" lon="9.14663">
        <ele>832.64</ele>
        <time>2022-04-30T06:41:43Z</time>
      </trkpt>
      <trkpt lat="41.77194" lon="9.14682">
        <ele>833.6</ele>
        <time>2022-04-30T06:42:00Z</time>
      </trkpt>
      <trkpt lat="41.77198" lon="9.14685">
        <ele>834.08</ele>
        <time>2022-04-30T06:42:04Z</time>
      </trkpt>
      <trkpt lat="41.77208" lon="9.14685">
        <ele>833.12</ele>
        <time>2022-04-30T06:42:18Z</time>
      </trkpt>
      <trkpt lat="41.77208" lon="9.14685">
        <ele>836.48</ele>
        <time>2022-04-30T06:42:19Z</time>
      </trkpt>
      <trkpt lat="41.7721" lon="9.14687">
        <ele>833.6</ele>
        <time>2022-04-30T06:42:24Z</time>
      </trkpt>
      <trkpt lat="41.77211" lon="9.14688">
        <ele>835.04</ele>
        <time>2022-04-30T06:42:26Z</time>
      </trkpt>
      <trkpt lat="41.77221" lon="9.14693">
        <ele>835.52</ele>
        <time>2022-04-30T06:42:41Z</time>
      </trkpt>
      <trkpt lat="41.77222" lon="9.14693">
        <ele>835.04</ele>
        <time>2022-04-30T06:42:43Z</time>
      </trkpt>
      <trkpt lat="41.77229" lon="9.14696">
        <ele>834.56</ele>
        <time>2022-04-30T06:42:49Z</time>
      </trkpt>
      <trkpt lat="41.7724" lon="9.14699">
        <ele>831.68</ele>
        <time>2022-04-30T06:43:05Z</time>
      </trkpt>
      <trkpt lat="41.77249" lon="9.14705">
        <ele>830.72</ele>
        <time>2022-04-30T06:43:12Z</time>
      </trkpt>
      <trkpt lat="41.77252" lon="9.14708">
        <ele>831.2</ele>
        <time>2022-04-30T06:43:16Z</time>
      </trkpt>
      <trkpt lat="41.77247" lon="9.14725">
        <ele>830.24</ele>
        <time>2022-04-30T06:43:33Z</time>
      </trkpt>
      <trkpt lat="41.77252" lon="9.14748">
        <ele>829.27</ele>
        <time>2022-04-30T06:43:49Z</time>
      </trkpt>
      <trkpt lat="41.77254" lon="9.14758">
        <ele>828.79</ele>
        <time>2022-04-30T06:43:55Z</time>
      </trkpt>
      <trkpt lat="41.77262" lon="9.14784">
        <ele>825.91</ele>
        <time>2022-04-30T06:44:15Z</time>
      </trkpt>
      <trkpt lat="41.77268" lon="9.14804">
        <ele>823.03</ele>
        <time>2022-04-30T06:44:27Z</time>
      </trkpt>
      <trkpt lat="41.7728" lon="9.14822">
        <ele>821.58</ele>
        <time>2022-04-30T06:44:51Z</time>
      </trkpt>
      <trkpt lat="41.77284" lon="9.14854">
        <ele>820.62</ele>
        <time>2022-04-30T06:45:12Z</time>
      </trkpt>
      <trkpt lat="41.7729" lon="9.14891">
        <ele>820.62</ele>
        <time>2022-04-30T06:45:31Z</time>
      </trkpt>
      <trkpt lat="41.77297" lon="9.14914">
        <ele>821.58</ele>
        <time>2022-04-30T06:45:48Z</time>
      </trkpt>
      <trkpt lat="41.773" lon="9.14927">
        <ele>821.1</ele>
        <time>2022-04-30T06:45:55Z</time>
      </trkpt>
      <trkpt lat="41.77312" lon="9.14932">
        <ele>820.62</ele>
        <time>2022-04-30T06:46:05Z</time>
      </trkpt>
      <trkpt lat="41.77324" lon="9.14943">
        <ele>821.58</ele>
        <time>2022-04-30T06:46:21Z</time>
      </trkpt>
      <trkpt lat="41.77345" lon="9.14957">
        <ele>822.06</ele>
        <time>2022-04-30T06:46:41Z</time>
      </trkpt>
      <trkpt lat="41.77361" lon="9.14981">
        <ele>823.51</ele>
        <time>2022-04-30T06:46:58Z</time>
      </trkpt>
      <trkpt lat="41.77376" lon="9.14994">
        <ele>822.55</ele>
        <time>2022-04-30T06:47:17Z</time>
      </trkpt>
      <trkpt lat="41.77392" lon="9.15002">
        <ele>823.03</ele>
        <time>2022-04-30T06:47:32Z</time>
      </trkpt>
      <trkpt lat="41.774" lon="9.15015">
        <ele>823.51</ele>
        <time>2022-04-30T06:47:40Z</time>
      </trkpt>
      <trkpt lat="41.77415" lon="9.15038">
        <ele>824.47</ele>
        <time>2022-04-30T06:47:56Z</time>
      </trkpt>
      <trkpt lat="41.77417" lon="9.15041">
        <ele>824.95</ele>
        <time>2022-04-30T06:48:11Z</time>
      </trkpt>
      <trkpt lat="41.77409" lon="9.1506">
        <ele>824.95</ele>
        <time>2022-04-30T06:48:28Z</time>
      </trkpt>
      <trkpt lat="41.77395" lon="9.15077">
        <ele>826.87</ele>
        <time>2022-04-30T06:48:49Z</time>
      </trkpt>
      <trkpt lat="41.77389" lon="9.1509">
        <ele>828.31</ele>
        <time>2022-04-30T06:49:07Z</time>
      </trkpt>
      <trkpt lat="41.77386" lon="9.15106">
        <ele>829.76</ele>
        <time>2022-04-30T06:49:20Z</time>
      </trkpt>
      <trkpt lat="41.77393" lon="9.15135">
        <ele>832.16</ele>
        <time>2022-04-30T06:49:40Z</time>
      </trkpt>
      <trkpt lat="41.77395" lon="9.15161">
        <ele>835.52</ele>
        <time>2022-04-30T06:49:59Z</time>
      </trkpt>
      <trkpt lat="41.77399" lon="9.15181">
        <ele>837.93</ele>
        <time>2022-04-30T06:50:19Z</time>
      </trkpt>
      <trkpt lat="41.77409" lon="9.15197">
        <ele>841.29</ele>
        <time>2022-04-30T06:50:37Z</time>
      </trkpt>
      <trkpt lat="41.77415" lon="9.15213">
        <ele>842.73</ele>
        <time>2022-04-30T06:50:53Z</time>
      </trkpt>
      <trkpt lat="41.7743" lon="9.15227">
        <ele>844.66</ele>
        <time>2022-04-30T06:51:12Z</time>
      </trkpt>
      <trkpt lat="41.7744" lon="9.15241">
        <ele>847.06</ele>
        <time>2022-04-30T06:51:30Z</time>
      </trkpt>
      <trkpt lat="41.77453" lon="9.15256">
        <ele>848.02</ele>
        <time>2022-04-30T06:51:47Z</time>
      </trkpt>
      <trkpt lat="41.77472" lon="9.15268">
        <ele>848.98</ele>
        <time>2022-04-30T06:52:06Z</time>
      </trkpt>
      <trkpt lat="41.77486" lon="9.15277">
        <ele>850.42</ele>
        <time>2022-04-30T06:52:26Z</time>
      </trkpt>
      <trkpt lat="41.77501" lon="9.15285">
        <ele>851.38</ele>
        <time>2022-04-30T06:52:41Z</time>
      </trkpt>
      <trkpt lat="41.77518" lon="9.15295">
        <ele>852.35</ele>
        <time>2022-04-30T06:52:58Z</time>
      </trkpt>
      <trkpt lat="41.77539" lon="9.15311">
        <ele>851.87</ele>
        <time>2022-04-30T06:53:17Z</time>
      </trkpt>
      <trkpt lat="41.77554" lon="9.1532">
        <ele>851.38</ele>
        <time>2022-04-30T06:53:33Z</time>
      </trkpt>
      <trkpt lat="41.77578" lon="9.15324">
        <ele>852.35</ele>
        <time>2022-04-30T06:53:52Z</time>
      </trkpt>
      <trkpt lat="41.77594" lon="9.15329">
        <ele>853.31</ele>
        <time>2022-04-30T06:54:08Z</time>
      </trkpt>
      <trkpt lat="41.77611" lon="9.15331">
        <ele>852.35</ele>
        <time>2022-04-30T06:54:19Z</time>
      </trkpt>
      <trkpt lat="41.77618" lon="9.15333">
        <ele>852.83</ele>
        <time>2022-04-30T06:54:23Z</time>
      </trkpt>
      <trkpt lat="41.77634" lon="9.15338">
        <ele>851.38</ele>
        <time>2022-04-30T06:54:36Z</time>
      </trkpt>
      <trkpt lat="41.77655" lon="9.15354">
        <ele>850.42</ele>
        <time>2022-04-30T06:54:54Z</time>
      </trkpt>
      <trkpt lat="41.77657" lon="9.15358">
        <ele>850.42</ele>
        <time>2022-04-30T06:54:57Z</time>
      </trkpt>
      <trkpt lat="41.77666" lon="9.15378">
        <ele>848.02</ele>
        <time>2022-04-30T06:55:13Z</time>
      </trkpt>
      <trkpt lat="41.77667" lon="9.15379">
        <ele>848.5</ele>
        <time>2022-04-30T06:55:14Z</time>
      </trkpt>
      <trkpt lat="41.77679" lon="9.15396">
        <ele>846.58</ele>
        <time>2022-04-30T06:55:32Z</time>
      </trkpt>
      <trkpt lat="41.77684" lon="9.154">
        <ele>846.1</ele>
        <time>2022-04-30T06:55:37Z</time>
      </trkpt>
      <trkpt lat="41.77686" lon="9.15404">
        <ele>846.1</ele>
        <time>2022-04-30T06:55:40Z</time>
      </trkpt>
      <trkpt lat="41.77699" lon="9.15429">
        <ele>842.25</ele>
        <time>2022-04-30T06:55:55Z</time>
      </trkpt>
      <trkpt lat="41.77708" lon="9.15441">
        <ele>839.85</ele>
        <time>2022-04-30T06:56:10Z</time>
      </trkpt>
      <trkpt lat="41.77724" lon="9.15451">
        <ele>839.37</ele>
        <time>2022-04-30T06:56:33Z</time>
      </trkpt>
      <trkpt lat="41.77744" lon="9.15464">
        <ele>840.33</ele>
        <time>2022-04-30T06:56:52Z</time>
      </trkpt>
      <trkpt lat="41.77747" lon="9.15466">
        <ele>839.85</ele>
        <time>2022-04-30T06:56:55Z</time>
      </trkpt>
      <trkpt lat="41.77764" lon="9.15487">
        <ele>840.33</ele>
        <time>2022-04-30T06:57:14Z</time>
      </trkpt>
      <trkpt lat="41.77779" lon="9.15502">
        <ele>840.33</ele>
        <time>2022-04-30T06:57:32Z</time>
      </trkpt>
      <trkpt lat="41.77784" lon="9.15504">
        <ele>840.33</ele>
        <time>2022-04-30T06:57:37Z</time>
      </trkpt>
      <trkpt lat="41.77805" lon="9.15515">
        <ele>840.33</ele>
        <time>2022-04-30T06:57:53Z</time>
      </trkpt>
      <trkpt lat="41.77817" lon="9.15519">
        <ele>841.29</ele>
        <time>2022-04-30T06:58:08Z</time>
      </trkpt>
      <trkpt lat="41.77818" lon="9.15517">
        <ele>840.81</ele>
        <time>2022-04-30T06:58:10Z</time>
      </trkpt>
      <trkpt lat="41.77829" lon="9.15498">
        <ele>840.33</ele>
        <time>2022-04-30T06:58:29Z</time>
      </trkpt>
      <trkpt lat="41.77835" lon="9.15494">
        <ele>840.81</ele>
        <time>2022-04-30T06:58:49Z</time>
      </trkpt>
      <trkpt lat="41.77844" lon="9.15499">
        <ele>841.77</ele>
        <time>2022-04-30T06:59:03Z</time>
      </trkpt>
      <trkpt lat="41.77854" lon="9.15516">
        <ele>844.18</ele>
        <time>2022-04-30T06:59:22Z</time>
      </trkpt>
      <trkpt lat="41.77859" lon="9.15524">
        <ele>846.1</ele>
        <time>2022-04-30T06:59:42Z</time>
      </trkpt>
      <trkpt lat="41.77857" lon="9.15529">
        <ele>847.06</ele>
        <time>2022-04-30T07:00:03Z</time>
      </trkpt>
      <trkpt lat="41.77858" lon="9.15535">
        <ele>845.62</ele>
        <time>2022-04-30T07:00:06Z</time>
      </trkpt>
      <trkpt lat="41.77863" lon="9.15544">
        <ele>845.14</ele>
        <time>2022-04-30T07:00:11Z</time>
      </trkpt>
      <trkpt lat="41.77868" lon="9.15555">
        <ele>844.18</ele>
        <time>2022-04-30T07:00:20Z</time>
      </trkpt>
      <trkpt lat="41.77872" lon="9.15571">
        <ele>843.21</ele>
        <time>2022-04-30T07:00:33Z</time>
      </trkpt>
      <trkpt lat="41.77894" lon="9.15593">
        <ele>844.18</ele>
        <time>2022-04-30T07:00:51Z</time>
      </trkpt>
      <trkpt lat="41.77911" lon="9.15604">
        <ele>843.21</ele>
        <time>2022-04-30T07:01:08Z</time>
      </trkpt>
      <trkpt lat="41.77935" lon="9.15626">
        <ele>840.33</ele>
        <time>2022-04-30T07:01:25Z</time>
      </trkpt>
      <trkpt lat="41.77946" lon="9.15644">
        <ele>838.41</ele>
        <time>2022-04-30T07:01:41Z</time>
      </trkpt>
      <trkpt lat="41.77951" lon="9.15662">
        <ele>840.33</ele>
        <time>2022-04-30T07:01:57Z</time>
      </trkpt>
      <trkpt lat="41.77953" lon="9.15682">
        <ele>840.81</ele>
        <time>2022-04-30T07:02:13Z</time>
      </trkpt>
      <trkpt lat="41.77958" lon="9.15706">
        <ele>842.25</ele>
        <time>2022-04-30T07:02:28Z</time>
      </trkpt>
      <trkpt lat="41.77962" lon="9.15724">
        <ele>842.25</ele>
        <time>2022-04-30T07:02:47Z</time>
      </trkpt>
      <trkpt lat="41.77963" lon="9.15739">
        <ele>844.66</ele>
        <time>2022-04-30T07:03:03Z</time>
      </trkpt>
      <trkpt lat="41.77959" lon="9.15757">
        <ele>847.54</ele>
        <time>2022-04-30T07:03:21Z</time>
      </trkpt>
      <trkpt lat="41.7795" lon="9.15771">
        <ele>850.9</ele>
        <time>2022-04-30T07:03:37Z</time>
      </trkpt>
      <trkpt lat="41.77946" lon="9.1578">
        <ele>852.35</ele>
        <time>2022-04-30T07:03:49Z</time>
      </trkpt>
      <trkpt lat="41.77947" lon="9.15792">
        <ele>853.79</ele>
        <time>2022-04-30T07:03:58Z</time>
      </trkpt>
      <trkpt lat="41.77949" lon="9.15808">
        <ele>857.15</ele>
        <time>2022-04-30T07:04:16Z</time>
      </trkpt>
      <trkpt lat="41.77946" lon="9.15824">
        <ele>859.08</ele>
        <time>2022-04-30T07:04:35Z</time>
      </trkpt>
      <trkpt lat="41.77941" lon="9.15837">
        <ele>861.48</ele>
        <time>2022-04-30T07:04:50Z</time>
      </trkpt>
      <trkpt lat="41.77933" lon="9.15848">
        <ele>864.36</ele>
        <time>2022-04-30T07:05:07Z</time>
      </trkpt>
      <trkpt lat="41.77938" lon="9.15863">
        <ele>866.29</ele>
        <time>2022-04-30T07:05:21Z</time>
      </trkpt>
      <trkpt lat="41.77941" lon="9.15878">
        <ele>868.69</ele>
        <time>2022-04-30T07:05:36Z</time>
      </trkpt>
      <trkpt lat="41.7794" lon="9.15892">
        <ele>871.09</ele>
        <time>2022-04-30T07:05:53Z</time>
      </trkpt>
      <trkpt lat="41.7794" lon="9.15905">
        <ele>874.46</ele>
        <time>2022-04-30T07:06:12Z</time>
      </trkpt>
      <trkpt lat="41.77938" lon="9.1592">
        <ele>876.86</ele>
        <time>2022-04-30T07:06:30Z</time>
      </trkpt>
      <trkpt lat="41.77935" lon="9.15936">
        <ele>877.82</ele>
        <time>2022-04-30T07:06:46Z</time>
      </trkpt>
      <trkpt lat="41.77927" lon="9.15948">
        <ele>879.74</ele>
        <time>2022-04-30T07:07:02Z</time>
      </trkpt>
      <trkpt lat="41.77928" lon="9.15965">
        <ele>878.3</ele>
        <time>2022-04-30T07:07:19Z</time>
      </trkpt>
      <trkpt lat="41.77935" lon="9.15985">
        <ele>876.86</ele>
        <time>2022-04-30T07:07:34Z</time>
      </trkpt>
      <trkpt lat="41.77934" lon="9.15998">
        <ele>876.86</ele>
        <time>2022-04-30T07:07:49Z</time>
      </trkpt>
      <trkpt lat="41.77929" lon="9.16017">
        <ele>876.86</ele>
        <time>2022-04-30T07:08:19Z</time>
      </trkpt>
      <trkpt lat="41.77928" lon="9.16023">
        <ele>876.86</ele>
        <time>2022-04-30T07:08:42Z</time>
      </trkpt>
      <trkpt lat="41.77933" lon="9.1602">
        <ele>875.9</ele>
        <time>2022-04-30T07:09:12Z</time>
      </trkpt>
      <trkpt lat="41.7793" lon="9.16024">
        <ele>876.38</ele>
        <time>2022-04-30T07:09:50Z</time>
      </trkpt>
      <trkpt lat="41.77936" lon="9.16037">
        <ele>877.82</ele>
        <time>2022-04-30T07:10:09Z</time>
      </trkpt>
      <trkpt lat="41.77939" lon="9.16065">
        <ele>875.9</ele>
        <time>2022-04-30T07:10:25Z</time>
      </trkpt>
      <trkpt lat="41.7795" lon="9.16081">
        <ele>875.42</ele>
        <time>2022-04-30T07:10:41Z</time>
      </trkpt>
      <trkpt lat="41.77956" lon="9.16099">
        <ele>874.46</ele>
        <time>2022-04-30T07:11:01Z</time>
      </trkpt>
      <trkpt lat="41.77964" lon="9.16117">
        <ele>873.98</ele>
        <time>2022-04-30T07:11:18Z</time>
      </trkpt>
      <trkpt lat="41.7797" lon="9.16139">
        <ele>873.01</ele>
        <time>2022-04-30T07:11:34Z</time>
      </trkpt>
      <trkpt lat="41.77978" lon="9.16158">
        <ele>871.57</ele>
        <time>2022-04-30T07:11:49Z</time>
      </trkpt>
      <trkpt lat="41.77985" lon="9.16188">
        <ele>872.53</ele>
        <time>2022-04-30T07:12:04Z</time>
      </trkpt>
      <trkpt lat="41.77988" lon="9.16197">
        <ele>872.53</ele>
        <time>2022-04-30T07:12:10Z</time>
      </trkpt>
      <trkpt lat="41.7799" lon="9.1623">
        <ele>870.13</ele>
        <time>2022-04-30T07:12:29Z</time>
      </trkpt>
      <trkpt lat="41.7799" lon="9.16247">
        <ele>869.65</ele>
        <time>2022-04-30T07:12:42Z</time>
      </trkpt>
      <trkpt lat="41.77992" lon="9.16249">
        <ele>869.65</ele>
        <time>2022-04-30T07:12:44Z</time>
      </trkpt>
      <trkpt lat="41.77997" lon="9.16277">
        <ele>868.21</ele>
        <time>2022-04-30T07:13:01Z</time>
      </trkpt>
      <trkpt lat="41.77997" lon="9.16282">
        <ele>868.21</ele>
        <time>2022-04-30T07:13:04Z</time>
      </trkpt>
      <trkpt lat="41.78" lon="9.16294">
        <ele>866.29</ele>
        <time>2022-04-30T07:13:13Z</time>
      </trkpt>
      <trkpt lat="41.78005" lon="9.16306">
        <ele>866.29</ele>
        <time>2022-04-30T07:13:27Z</time>
      </trkpt>
      <trkpt lat="41.78014" lon="9.16331">
        <ele>864.84</ele>
        <time>2022-04-30T07:13:44Z</time>
      </trkpt>
      <trkpt lat="41.78022" lon="9.1636">
        <ele>864.36</ele>
        <time>2022-04-30T07:14:03Z</time>
      </trkpt>
      <trkpt lat="41.78026" lon="9.16375">
        <ele>864.84</ele>
        <time>2022-04-30T07:14:16Z</time>
      </trkpt>
      <trkpt lat="41.78025" lon="9.16388">
        <ele>864.36</ele>
        <time>2022-04-30T07:14:24Z</time>
      </trkpt>
      <trkpt lat="41.78018" lon="9.16407">
        <ele>865.32</ele>
        <time>2022-04-30T07:14:42Z</time>
      </trkpt>
      <trkpt lat="41.78015" lon="9.16417">
        <ele>865.8</ele>
        <time>2022-04-30T07:14:56Z</time>
      </trkpt>
      <trkpt lat="41.78016" lon="9.16419">
        <ele>865.8</ele>
        <time>2022-04-30T07:15:18Z</time>
      </trkpt>
      <trkpt lat="41.78016" lon="9.16412">
        <ele>865.32</ele>
        <time>2022-04-30T07:15:42Z</time>
      </trkpt>
      <trkpt lat="41.78016" lon="9.16412">
        <ele>865.8</ele>
        <time>2022-04-30T07:16:00Z</time>
      </trkpt>
      <trkpt lat="41.78016" lon="9.16416">
        <ele>865.32</ele>
        <time>2022-04-30T07:16:30Z</time>
      </trkpt>
      <trkpt lat="41.78017" lon="9.16417">
        <ele>866.29</ele>
        <time>2022-04-30T07:17:07Z</time>
      </trkpt>
      <trkpt lat="41.78016" lon="9.16416">
        <ele>865.32</ele>
        <time>2022-04-30T07:17:26Z</time>
      </trkpt>
      <trkpt lat="41.78016" lon="9.16414">
        <ele>865.8</ele>
        <time>2022-04-30T07:17:53Z</time>
      </trkpt>
      <trkpt lat="41.78016" lon="9.16419">
        <ele>865.8</ele>
        <time>2022-04-30T07:18:16Z</time>
      </trkpt>
      <trkpt lat="41.78015" lon="9.16419">
        <ele>865.32</ele>
        <time>2022-04-30T07:18:31Z</time>
      </trkpt>
      <trkpt lat="41.78015" lon="9.16419">
        <ele>866.29</ele>
        <time>2022-04-30T07:19:09Z</time>
      </trkpt>
      <trkpt lat="41.78016" lon="9.16417">
        <ele>866.77</ele>
        <time>2022-04-30T07:19:47Z</time>
      </trkpt>
      <trkpt lat="41.78016" lon="9.16413">
        <ele>867.25</ele>
        <time>2022-04-30T07:20:06Z</time>
      </trkpt>
      <trkpt lat="41.78019" lon="9.16416">
        <ele>866.77</ele>
        <time>2022-04-30T07:20:35Z</time>
      </trkpt>
      <trkpt lat="41.7802" lon="9.16421">
        <ele>867.25</ele>
        <time>2022-04-30T07:21:03Z</time>
      </trkpt>
      <trkpt lat="41.78025" lon="9.16435">
        <ele>864.84</ele>
        <time>2022-04-30T07:21:17Z</time>
      </trkpt>
      <trkpt lat="41.78035" lon="9.16446">
        <ele>864.84</ele>
        <time>2022-04-30T07:21:30Z</time>
      </trkpt>
      <trkpt lat="41.7805" lon="9.16461">
        <ele>863.88</ele>
        <time>2022-04-30T07:21:46Z</time>
      </trkpt>
      <trkpt lat="41.78055" lon="9.16471">
        <ele>862.44</ele>
        <time>2022-04-30T07:21:56Z</time>
      </trkpt>
      <trkpt lat="41.78061" lon="9.16492">
        <ele>859.56</ele>
        <time>2022-04-30T07:22:12Z</time>
      </trkpt>
      <trkpt lat="41.78071" lon="9.16505">
        <ele>857.63</ele>
        <time>2022-04-30T07:22:26Z</time>
      </trkpt>
      <trkpt lat="41.78071" lon="9.16504">
        <ele>857.63</ele>
        <time>2022-04-30T07:22:52Z</time>
      </trkpt>
      <trkpt lat="41.78074" lon="9.16508">
        <ele>857.15</ele>
        <time>2022-04-30T07:23:08Z</time>
      </trkpt>
      <trkpt lat="41.78076" lon="9.16509">
        <ele>856.67</ele>
        <time>2022-04-30T07:23:10Z</time>
      </trkpt>
      <trkpt lat="41.78075" lon="9.16525">
        <ele>853.31</ele>
        <time>2022-04-30T07:23:24Z</time>
      </trkpt>
      <trkpt lat="41.78076" lon="9.1654">
        <ele>849.94</ele>
        <time>2022-04-30T07:23:37Z</time>
      </trkpt>
      <trkpt lat="41.78074" lon="9.16553">
        <ele>846.58</ele>
        <time>2022-04-30T07:23:50Z</time>
      </trkpt>
      <trkpt lat="41.78079" lon="9.16585">
        <ele>844.66</ele>
        <time>2022-04-30T07:24:09Z</time>
      </trkpt>
      <trkpt lat="41.78085" lon="9.16595">
        <ele>843.21</ele>
        <time>2022-04-30T07:24:31Z</time>
      </trkpt>
      <trkpt lat="41.78093" lon="9.16596">
        <ele>843.21</ele>
        <time>2022-04-30T07:24:54Z</time>
      </trkpt>
      <trkpt lat="41.78095" lon="9.16597">
        <ele>843.21</ele>
        <time>2022-04-30T07:25:10Z</time>
      </trkpt>
      <trkpt lat="41.781" lon="9.16623">
        <ele>845.14</ele>
        <time>2022-04-30T07:25:30Z</time>
      </trkpt>
      <trkpt lat="41.78111" lon="9.16639">
        <ele>846.58</ele>
        <time>2022-04-30T07:25:49Z</time>
      </trkpt>
      <trkpt lat="41.78127" lon="9.16663">
        <ele>848.5</ele>
        <time>2022-04-30T07:26:10Z</time>
      </trkpt>
      <trkpt lat="41.78132" lon="9.16677">
        <ele>851.38</ele>
        <time>2022-04-30T07:26:24Z</time>
      </trkpt>
      <trkpt lat="41.78143" lon="9.16694">
        <ele>853.31</ele>
        <time>2022-04-30T07:26:42Z</time>
      </trkpt>
      <trkpt lat="41.78158" lon="9.16708">
        <ele>854.27</ele>
        <time>2022-04-30T07:27:01Z</time>
      </trkpt>
      <trkpt lat="41.78175" lon="9.16711">
        <ele>856.19</ele>
        <time>2022-04-30T07:27:18Z</time>
      </trkpt>
      <trkpt lat="41.78187" lon="9.16715">
        <ele>858.11</ele>
        <time>2022-04-30T07:27:35Z</time>
      </trkpt>
      <trkpt lat="41.78202" lon="9.16727">
        <ele>859.56</ele>
        <time>2022-04-30T07:27:51Z</time>
      </trkpt>
      <trkpt lat="41.78214" lon="9.16746">
        <ele>859.08</ele>
        <time>2022-04-30T07:28:08Z</time>
      </trkpt>
      <trkpt lat="41.7823" lon="9.16765">
        <ele>859.56</ele>
        <time>2022-04-30T07:28:24Z</time>
      </trkpt>
      <trkpt lat="41.78248" lon="9.16778">
        <ele>860.52</ele>
        <time>2022-04-30T07:28:43Z</time>
      </trkpt>
      <trkpt lat="41.78267" lon="9.16785">
        <ele>861.96</ele>
        <time>2022-04-30T07:29:00Z</time>
      </trkpt>
      <trkpt lat="41.78281" lon="9.16796">
        <ele>862.44</ele>
        <time>2022-04-30T07:29:16Z</time>
      </trkpt>
      <trkpt lat="41.78298" lon="9.16809">
        <ele>864.36</ele>
        <time>2022-04-30T07:29:34Z</time>
      </trkpt>
      <trkpt lat="41.78296" lon="9.16823">
        <ele>866.29</ele>
        <time>2022-04-30T07:29:52Z</time>
      </trkpt>
      <trkpt lat="41.78302" lon="9.1683">
        <ele>868.69</ele>
        <time>2022-04-30T07:30:07Z</time>
      </trkpt>
      <trkpt lat="41.78306" lon="9.16834">
        <ele>870.61</ele>
        <time>2022-04-30T07:30:19Z</time>
      </trkpt>
      <trkpt lat="41.78297" lon="9.1684">
        <ele>872.05</ele>
        <time>2022-04-30T07:30:33Z</time>
      </trkpt>
      <trkpt lat="41.78289" lon="9.16858">
        <ele>872.53</ele>
        <time>2022-04-30T07:30:50Z</time>
      </trkpt>
      <trkpt lat="41.78284" lon="9.16879">
        <ele>872.05</ele>
        <time>2022-04-30T07:31:08Z</time>
      </trkpt>
      <trkpt lat="41.78275" lon="9.16901">
        <ele>873.5</ele>
        <time>2022-04-30T07:31:25Z</time>
      </trkpt>
      <trkpt lat="41.78271" lon="9.16928">
        <ele>874.46</ele>
        <time>2022-04-30T07:31:42Z</time>
      </trkpt>
      <trkpt lat="41.78265" lon="9.16951">
        <ele>876.38</ele>
        <time>2022-04-30T07:31:59Z</time>
      </trkpt>
      <trkpt lat="41.78264" lon="9.16974">
        <ele>877.82</ele>
        <time>2022-04-30T07:32:17Z</time>
      </trkpt>
      <trkpt lat="41.78273" lon="9.17002">
        <ele>877.82</ele>
        <time>2022-04-30T07:32:36Z</time>
      </trkpt>
      <trkpt lat="41.78283" lon="9.17022">
        <ele>876.38</ele>
        <time>2022-04-30T07:32:50Z</time>
      </trkpt>
      <trkpt lat="41.78296" lon="9.17044">
        <ele>876.86</ele>
        <time>2022-04-30T07:33:08Z</time>
      </trkpt>
      <trkpt lat="41.78308" lon="9.17059">
        <ele>874.94</ele>
        <time>2022-04-30T07:33:19Z</time>
      </trkpt>
      <trkpt lat="41.78315" lon="9.17066">
        <ele>875.42</ele>
        <time>2022-04-30T07:33:29Z</time>
      </trkpt>
      <trkpt lat="41.78323" lon="9.1708">
        <ele>874.94</ele>
        <time>2022-04-30T07:33:41Z</time>
      </trkpt>
      <trkpt lat="41.78323" lon="9.17085">
        <ele>874.94</ele>
        <time>2022-04-30T07:33:46Z</time>
      </trkpt>
      <trkpt lat="41.78316" lon="9.17106">
        <ele>873.5</ele>
        <time>2022-04-30T07:33:59Z</time>
      </trkpt>
      <trkpt lat="41.78317" lon="9.17112">
        <ele>872.05</ele>
        <time>2022-04-30T07:34:03Z</time>
      </trkpt>
      <trkpt lat="41.78324" lon="9.17124">
        <ele>872.53</ele>
        <time>2022-04-30T07:34:14Z</time>
      </trkpt>
      <trkpt lat="41.78325" lon="9.17125">
        <ele>873.01</ele>
        <time>2022-04-30T07:34:15Z</time>
      </trkpt>
      <trkpt lat="41.78326" lon="9.17125">
        <ele>872.53</ele>
        <time>2022-04-30T07:34:16Z</time>
      </trkpt>
      <trkpt lat="41.78336" lon="9.17131">
        <ele>872.53</ele>
        <time>2022-04-30T07:34:25Z</time>
      </trkpt>
      <trkpt lat="41.78349" lon="9.17147">
        <ele>873.98</ele>
        <time>2022-04-30T07:34:41Z</time>
      </trkpt>
      <trkpt lat="41.78366" lon="9.17158">
        <ele>874.46</ele>
        <time>2022-04-30T07:34:57Z</time>
      </trkpt>
      <trkpt lat="41.78387" lon="9.17171">
        <ele>874.94</ele>
        <time>2022-04-30T07:35:16Z</time>
      </trkpt>
      <trkpt lat="41.78401" lon="9.17189">
        <ele>875.42</ele>
        <time>2022-04-30T07:35:32Z</time>
      </trkpt>
      <trkpt lat="41.78412" lon="9.17213">
        <ele>876.38</ele>
        <time>2022-04-30T07:35:51Z</time>
      </trkpt>
      <trkpt lat="41.78427" lon="9.1723">
        <ele>877.34</ele>
        <time>2022-04-30T07:36:08Z</time>
      </trkpt>
      <trkpt lat="41.78433" lon="9.17237">
        <ele>877.82</ele>
        <time>2022-04-30T07:36:15Z</time>
      </trkpt>
      <trkpt lat="41.78449" lon="9.17255">
        <ele>877.34</ele>
        <time>2022-04-30T07:36:31Z</time>
      </trkpt>
      <trkpt lat="41.78461" lon="9.17273">
        <ele>878.78</ele>
        <time>2022-04-30T07:36:47Z</time>
      </trkpt>
      <trkpt lat="41.78474" lon="9.17291">
        <ele>880.71</ele>
        <time>2022-04-30T07:37:03Z</time>
      </trkpt>
      <trkpt lat="41.7849" lon="9.17309">
        <ele>881.67</ele>
        <time>2022-04-30T07:37:21Z</time>
      </trkpt>
      <trkpt lat="41.78507" lon="9.17322">
        <ele>882.15</ele>
        <time>2022-04-30T07:37:39Z</time>
      </trkpt>
      <trkpt lat="41.78522" lon="9.1733">
        <ele>884.07</ele>
        <time>2022-04-30T07:37:52Z</time>
      </trkpt>
      <trkpt lat="41.78539" lon="9.17342">
        <ele>884.55</ele>
        <time>2022-04-30T07:38:08Z</time>
      </trkpt>
      <trkpt lat="41.78554" lon="9.17365">
        <ele>884.07</ele>
        <time>2022-04-30T07:38:28Z</time>
      </trkpt>
      <trkpt lat="41.78564" lon="9.17395">
        <ele>883.59</ele>
        <time>2022-04-30T07:38:47Z</time>
      </trkpt>
      <trkpt lat="41.78565" lon="9.17401">
        <ele>884.55</ele>
        <time>2022-04-30T07:38:51Z</time>
      </trkpt>
      <trkpt lat="41.78571" lon="9.17426">
        <ele>885.03</ele>
        <time>2022-04-30T07:39:06Z</time>
      </trkpt>
      <trkpt lat="41.78576" lon="9.17439">
        <ele>885.99</ele>
        <time>2022-04-30T07:39:20Z</time>
      </trkpt>
      <trkpt lat="41.78586" lon="9.17445">
        <ele>885.99</ele>
        <time>2022-04-30T07:39:39Z</time>
      </trkpt>
      <trkpt lat="41.78591" lon="9.17464">
        <ele>886.47</ele>
        <time>2022-04-30T07:39:56Z</time>
      </trkpt>
      <trkpt lat="41.78608" lon="9.17492">
        <ele>886.47</ele>
        <time>2022-04-30T07:40:17Z</time>
      </trkpt>
      <trkpt lat="41.7862" lon="9.17519">
        <ele>885.99</ele>
        <time>2022-04-30T07:40:34Z</time>
      </trkpt>
      <trkpt lat="41.78625" lon="9.17535">
        <ele>886.47</ele>
        <time>2022-04-30T07:40:45Z</time>
      </trkpt>
      <trkpt lat="41.78626" lon="9.17537">
        <ele>885.99</ele>
        <time>2022-04-30T07:40:46Z</time>
      </trkpt>
      <trkpt lat="41.78626" lon="9.17538">
        <ele>885.99</ele>
        <time>2022-04-30T07:40:47Z</time>
      </trkpt>
      <trkpt lat="41.78632" lon="9.1756">
        <ele>885.99</ele>
        <time>2022-04-30T07:41:01Z</time>
      </trkpt>
      <trkpt lat="41.78637" lon="9.17585">
        <ele>887.43</ele>
        <time>2022-04-30T07:41:15Z</time>
      </trkpt>
      <trkpt lat="41.78643" lon="9.1761">
        <ele>887.91</ele>
        <time>2022-04-30T07:41:32Z</time>
      </trkpt>
      <trkpt lat="41.78653" lon="9.17635">
        <ele>888.88</ele>
        <time>2022-04-30T07:41:48Z</time>
      </trkpt>
      <trkpt lat="41.78665" lon="9.17656">
        <ele>888.88</ele>
        <time>2022-04-30T07:42:04Z</time>
      </trkpt>
      <trkpt lat="41.78678" lon="9.17689">
        <ele>889.36</ele>
        <time>2022-04-30T07:42:25Z</time>
      </trkpt>
      <trkpt lat="41.7868" lon="9.17697">
        <ele>889.36</ele>
        <time>2022-04-30T07:42:30Z</time>
      </trkpt>
      <trkpt lat="41.78684" lon="9.17723">
        <ele>888.4</ele>
        <time>2022-04-30T07:42:47Z</time>
      </trkpt>
      <trkpt lat="41.78683" lon="9.17749">
        <ele>885.99</ele>
        <time>2022-04-30T07:43:03Z</time>
      </trkpt>
      <trkpt lat="41.78679" lon="9.17781">
        <ele>883.11</ele>
        <time>2022-04-30T07:43:20Z</time>
      </trkpt>
      <trkpt lat="41.78671" lon="9.17794">
        <ele>884.07</ele>
        <time>2022-04-30T07:43:31Z</time>
      </trkpt>
      <trkpt lat="41.7866" lon="9.17807">
        <ele>885.03</ele>
        <time>2022-04-30T07:43:43Z</time>
      </trkpt>
      <trkpt lat="41.78645" lon="9.17823">
        <ele>886.47</ele>
        <time>2022-04-30T07:43:58Z</time>
      </trkpt>
      <trkpt lat="41.78634" lon="9.17842">
        <ele>887.91</ele>
        <time>2022-04-30T07:44:14Z</time>
      </trkpt>
      <trkpt lat="41.78631" lon="9.17845">
        <ele>888.4</ele>
        <time>2022-04-30T07:44:18Z</time>
      </trkpt>
      <trkpt lat="41.7861" lon="9.1786">
        <ele>890.32</ele>
        <time>2022-04-30T07:44:34Z</time>
      </trkpt>
      <trkpt lat="41.78609" lon="9.1786">
        <ele>890.32</ele>
        <time>2022-04-30T07:44:35Z</time>
      </trkpt>
      <trkpt lat="41.78594" lon="9.17863">
        <ele>891.76</ele>
        <time>2022-04-30T07:44:48Z</time>
      </trkpt>
      <trkpt lat="41.78577" lon="9.17864">
        <ele>892.72</ele>
        <time>2022-04-30T07:45:00Z</time>
      </trkpt>
      <trkpt lat="41.78571" lon="9.17862">
        <ele>892.72</ele>
        <time>2022-04-30T07:45:06Z</time>
      </trkpt>
      <trkpt lat="41.78568" lon="9.17864">
        <ele>893.68</ele>
        <time>2022-04-30T07:45:12Z</time>
      </trkpt>
      <trkpt lat="41.78566" lon="9.17869">
        <ele>893.68</ele>
        <time>2022-04-30T07:45:16Z</time>
      </trkpt>
      <trkpt lat="41.78566" lon="9.17871">
        <ele>893.68</ele>
        <time>2022-04-30T07:45:17Z</time>
      </trkpt>
      <trkpt lat="41.78567" lon="9.17882">
        <ele>895.12</ele>
        <time>2022-04-30T07:45:26Z</time>
      </trkpt>
      <trkpt lat="41.78568" lon="9.17884">
        <ele>894.64</ele>
        <time>2022-04-30T07:45:27Z</time>
      </trkpt>
      <trkpt lat="41.78572" lon="9.1789">
        <ele>894.64</ele>
        <time>2022-04-30T07:45:30Z</time>
      </trkpt>
      <trkpt lat="41.78582" lon="9.17903">
        <ele>895.61</ele>
        <time>2022-04-30T07:45:44Z</time>
      </trkpt>
      <trkpt lat="41.78601" lon="9.17911">
        <ele>897.53</ele>
        <time>2022-04-30T07:46:02Z</time>
      </trkpt>
      <trkpt lat="41.78615" lon="9.17915">
        <ele>899.45</ele>
        <time>2022-04-30T07:46:16Z</time>
      </trkpt>
      <trkpt lat="41.78624" lon="9.17927">
        <ele>901.37</ele>
        <time>2022-04-30T07:46:31Z</time>
      </trkpt>
      <trkpt lat="41.7863" lon="9.17946">
        <ele>904.26</ele>
        <time>2022-04-30T07:46:44Z</time>
      </trkpt>
      <trkpt lat="41.78631" lon="9.17968">
        <ele>905.7</ele>
        <time>2022-04-30T07:47:00Z</time>
      </trkpt>
      <trkpt lat="41.78633" lon="9.17976">
        <ele>907.14</ele>
        <time>2022-04-30T07:47:05Z</time>
      </trkpt>
      <trkpt lat="41.78637" lon="9.18002">
        <ele>908.58</ele>
        <time>2022-04-30T07:47:22Z</time>
      </trkpt>
      <trkpt lat="41.78638" lon="9.18009">
        <ele>909.54</ele>
        <time>2022-04-30T07:47:27Z</time>
      </trkpt>
      <trkpt lat="41.78642" lon="9.18012">
        <ele>908.58</ele>
        <time>2022-04-30T07:47:42Z</time>
      </trkpt>
      <trkpt lat="41.78646" lon="9.18023">
        <ele>909.06</ele>
        <time>2022-04-30T07:47:57Z</time>
      </trkpt>
      <trkpt lat="41.78647" lon="9.18024">
        <ele>909.06</ele>
        <time>2022-04-30T07:47:58Z</time>
      </trkpt>
      <trkpt lat="41.7865" lon="9.18032">
        <ele>908.58</ele>
        <time>2022-04-30T07:48:11Z</time>
      </trkpt>
      <trkpt lat="41.78652" lon="9.18033">
        <ele>909.06</ele>
        <time>2022-04-30T07:48:14Z</time>
      </trkpt>
      <trkpt lat="41.78669" lon="9.18051">
        <ele>905.7</ele>
        <time>2022-04-30T07:48:33Z</time>
      </trkpt>
      <trkpt lat="41.78683" lon="9.18067">
        <ele>905.22</ele>
        <time>2022-04-30T07:48:48Z</time>
      </trkpt>
      <trkpt lat="41.78688" lon="9.18078">
        <ele>905.22</ele>
        <time>2022-04-30T07:48:58Z</time>
      </trkpt>
      <trkpt lat="41.7869" lon="9.18082">
        <ele>905.22</ele>
        <time>2022-04-30T07:49:02Z</time>
      </trkpt>
      <trkpt lat="41.78691" lon="9.18083">
        <ele>905.22</ele>
        <time>2022-04-30T07:49:03Z</time>
      </trkpt>
      <trkpt lat="41.78692" lon="9.18085">
        <ele>905.7</ele>
        <time>2022-04-30T07:49:04Z</time>
      </trkpt>
      <trkpt lat="41.78695" lon="9.18091">
        <ele>905.7</ele>
        <time>2022-04-30T07:49:10Z</time>
      </trkpt>
      <trkpt lat="41.78701" lon="9.18107">
        <ele>908.1</ele>
        <time>2022-04-30T07:49:24Z</time>
      </trkpt>
      <trkpt lat="41.7869" lon="9.18118">
        <ele>910.51</ele>
        <time>2022-04-30T07:49:40Z</time>
      </trkpt>
      <trkpt lat="41.7868" lon="9.18131">
        <ele>913.39</ele>
        <time>2022-04-30T07:49:59Z</time>
      </trkpt>
      <trkpt lat="41.78682" lon="9.18152">
        <ele>915.31</ele>
        <time>2022-04-30T07:50:17Z</time>
      </trkpt>
      <trkpt lat="41.78691" lon="9.18166">
        <ele>918.2</ele>
        <time>2022-04-30T07:50:33Z</time>
      </trkpt>
      <trkpt lat="41.78699" lon="9.18175">
        <ele>918.68</ele>
        <time>2022-04-30T07:50:44Z</time>
      </trkpt>
      <trkpt lat="41.78711" lon="9.18185">
        <ele>920.6</ele>
        <time>2022-04-30T07:51:00Z</time>
      </trkpt>
      <trkpt lat="41.78729" lon="9.18195">
        <ele>922.52</ele>
        <time>2022-04-30T07:51:17Z</time>
      </trkpt>
      <trkpt lat="41.78731" lon="9.18196">
        <ele>922.52</ele>
        <time>2022-04-30T07:51:20Z</time>
      </trkpt>
      <trkpt lat="41.78732" lon="9.18196">
        <ele>923</ele>
        <time>2022-04-30T07:51:21Z</time>
      </trkpt>
      <trkpt lat="41.78734" lon="9.18197">
        <ele>923</ele>
        <time>2022-04-30T07:51:22Z</time>
      </trkpt>
      <trkpt lat="41.78735" lon="9.18197">
        <ele>923</ele>
        <time>2022-04-30T07:51:23Z</time>
      </trkpt>
      <trkpt lat="41.78747" lon="9.18194">
        <ele>925.41</ele>
        <time>2022-04-30T07:51:36Z</time>
      </trkpt>
      <trkpt lat="41.78761" lon="9.1819">
        <ele>927.33</ele>
        <time>2022-04-30T07:51:50Z</time>
      </trkpt>
      <trkpt lat="41.78772" lon="9.1819">
        <ele>927.33</ele>
        <time>2022-04-30T07:52:02Z</time>
      </trkpt>
      <trkpt lat="41.78787" lon="9.18194">
        <ele>928.77</ele>
        <time>2022-04-30T07:52:16Z</time>
      </trkpt>
      <trkpt lat="41.78801" lon="9.182">
        <ele>930.69</ele>
        <time>2022-04-30T07:52:30Z</time>
      </trkpt>
      <trkpt lat="41.78814" lon="9.1821">
        <ele>931.65</ele>
        <time>2022-04-30T07:52:44Z</time>
      </trkpt>
      <trkpt lat="41.78814" lon="9.18212">
        <ele>931.65</ele>
        <time>2022-04-30T07:52:46Z</time>
      </trkpt>
      <trkpt lat="41.78815" lon="9.18214">
        <ele>932.14</ele>
        <time>2022-04-30T07:52:47Z</time>
      </trkpt>
      <trkpt lat="41.78811" lon="9.18231">
        <ele>931.17</ele>
        <time>2022-04-30T07:53:00Z</time>
      </trkpt>
      <trkpt lat="41.78808" lon="9.1824">
        <ele>931.17</ele>
        <time>2022-04-30T07:53:04Z</time>
      </trkpt>
      <trkpt lat="41.78808" lon="9.18243">
        <ele>931.65</ele>
        <time>2022-04-30T07:53:05Z</time>
      </trkpt>
      <trkpt lat="41.78808" lon="9.18245">
        <ele>931.65</ele>
        <time>2022-04-30T07:53:06Z</time>
      </trkpt>
      <trkpt lat="41.78809" lon="9.18247">
        <ele>930.69</ele>
        <time>2022-04-30T07:53:07Z</time>
      </trkpt>
      <trkpt lat="41.78809" lon="9.18249">
        <ele>931.17</ele>
        <time>2022-04-30T07:53:08Z</time>
      </trkpt>
      <trkpt lat="41.78815" lon="9.18275">
        <ele>931.65</ele>
        <time>2022-04-30T07:53:23Z</time>
      </trkpt>
      <trkpt lat="41.78818" lon="9.18286">
        <ele>931.17</ele>
        <time>2022-04-30T07:53:29Z</time>
      </trkpt>
      <trkpt lat="41.78818" lon="9.18288">
        <ele>931.17</ele>
        <time>2022-04-30T07:53:30Z</time>
      </trkpt>
      <trkpt lat="41.78812" lon="9.18307">
        <ele>930.69</ele>
        <time>2022-04-30T07:53:45Z</time>
      </trkpt>
      <trkpt lat="41.78806" lon="9.18327">
        <ele>930.69</ele>
        <time>2022-04-30T07:54:04Z</time>
      </trkpt>
      <trkpt lat="41.788" lon="9.18361">
        <ele>929.25</ele>
        <time>2022-04-30T07:54:19Z</time>
      </trkpt>
      <trkpt lat="41.78792" lon="9.18388">
        <ele>928.29</ele>
        <time>2022-04-30T07:54:34Z</time>
      </trkpt>
      <trkpt lat="41.7879" lon="9.18415">
        <ele>927.81</ele>
        <time>2022-04-30T07:54:52Z</time>
      </trkpt>
      <trkpt lat="41.78794" lon="9.18441">
        <ele>927.33</ele>
        <time>2022-04-30T07:55:08Z</time>
      </trkpt>
      <trkpt lat="41.78794" lon="9.18448">
        <ele>925.89</ele>
        <time>2022-04-30T07:55:12Z</time>
      </trkpt>
      <trkpt lat="41.78796" lon="9.18462">
        <ele>923</ele>
        <time>2022-04-30T07:55:22Z</time>
      </trkpt>
      <trkpt lat="41.78816" lon="9.18487">
        <ele>920.12</ele>
        <time>2022-04-30T07:55:41Z</time>
      </trkpt>
      <trkpt lat="41.78828" lon="9.18516">
        <ele>916.75</ele>
        <time>2022-04-30T07:56:01Z</time>
      </trkpt>
      <trkpt lat="41.7884" lon="9.18537">
        <ele>913.87</ele>
        <time>2022-04-30T07:56:16Z</time>
      </trkpt>
      <trkpt lat="41.78847" lon="9.18564">
        <ele>912.43</ele>
        <time>2022-04-30T07:56:33Z</time>
      </trkpt>
      <trkpt lat="41.78855" lon="9.1858">
        <ele>909.54</ele>
        <time>2022-04-30T07:56:47Z</time>
      </trkpt>
      <trkpt lat="41.78859" lon="9.18598">
        <ele>906.18</ele>
        <time>2022-04-30T07:56:57Z</time>
      </trkpt>
      <trkpt lat="41.78862" lon="9.18625">
        <ele>907.14</ele>
        <time>2022-04-30T07:57:15Z</time>
      </trkpt>
      <trkpt lat="41.78865" lon="9.18641">
        <ele>910.51</ele>
        <time>2022-04-30T07:57:31Z</time>
      </trkpt>
      <trkpt lat="41.7886" lon="9.1866">
        <ele>910.51</ele>
        <time>2022-04-30T07:57:45Z</time>
      </trkpt>
      <trkpt lat="41.78856" lon="9.18679">
        <ele>910.99</ele>
        <time>2022-04-30T07:58:00Z</time>
      </trkpt>
      <trkpt lat="41.78851" lon="9.18694">
        <ele>910.51</ele>
        <time>2022-04-30T07:58:16Z</time>
      </trkpt>
      <trkpt lat="41.78853" lon="9.18717">
        <ele>911.47</ele>
        <time>2022-04-30T07:58:31Z</time>
      </trkpt>
      <trkpt lat="41.7886" lon="9.18742">
        <ele>910.51</ele>
        <time>2022-04-30T07:58:47Z</time>
      </trkpt>
      <trkpt lat="41.7887" lon="9.18753">
        <ele>910.51</ele>
        <time>2022-04-30T07:59:05Z</time>
      </trkpt>
      <trkpt lat="41.78877" lon="9.18761">
        <ele>907.14</ele>
        <time>2022-04-30T07:59:15Z</time>
      </trkpt>
      <trkpt lat="41.78878" lon="9.18762">
        <ele>907.14</ele>
        <time>2022-04-30T07:59:16Z</time>
      </trkpt>
      <trkpt lat="41.78881" lon="9.18765">
        <ele>905.7</ele>
        <time>2022-04-30T07:59:20Z</time>
      </trkpt>
      <trkpt lat="41.78885" lon="9.18769">
        <ele>903.78</ele>
        <time>2022-04-30T07:59:24Z</time>
      </trkpt>
      <trkpt lat="41.78894" lon="9.18778">
        <ele>900.41</ele>
        <time>2022-04-30T07:59:32Z</time>
      </trkpt>
      <trkpt lat="41.78905" lon="9.18784">
        <ele>897.05</ele>
        <time>2022-04-30T07:59:43Z</time>
      </trkpt>
      <trkpt lat="41.78911" lon="9.18783">
        <ele>895.61</ele>
        <time>2022-04-30T07:59:49Z</time>
      </trkpt>
      <trkpt lat="41.78912" lon="9.1877">
        <ele>893.2</ele>
        <time>2022-04-30T08:00:00Z</time>
      </trkpt>
      <trkpt lat="41.78912" lon="9.1876">
        <ele>892.24</ele>
        <time>2022-04-30T08:00:06Z</time>
      </trkpt>
      <trkpt lat="41.78914" lon="9.18757">
        <ele>890.8</ele>
        <time>2022-04-30T08:00:08Z</time>
      </trkpt>
      <trkpt lat="41.78918" lon="9.18747">
        <ele>889.36</ele>
        <time>2022-04-30T08:00:12Z</time>
      </trkpt>
      <trkpt lat="41.78929" lon="9.18738">
        <ele>886.47</ele>
        <time>2022-04-30T08:00:22Z</time>
      </trkpt>
      <trkpt lat="41.78937" lon="9.18739">
        <ele>883.11</ele>
        <time>2022-04-30T08:00:30Z</time>
      </trkpt>
      <trkpt lat="41.78938" lon="9.1874">
        <ele>883.11</ele>
        <time>2022-04-30T08:00:31Z</time>
      </trkpt>
      <trkpt lat="41.78941" lon="9.18746">
        <ele>881.67</ele>
        <time>2022-04-30T08:00:34Z</time>
      </trkpt>
      <trkpt lat="41.78941" lon="9.18773">
        <ele>879.74</ele>
        <time>2022-04-30T08:00:50Z</time>
      </trkpt>
      <trkpt lat="41.78946" lon="9.18799">
        <ele>879.26</ele>
        <time>2022-04-30T08:01:08Z</time>
      </trkpt>
      <trkpt lat="41.78955" lon="9.18811">
        <ele>876.38</ele>
        <time>2022-04-30T08:01:23Z</time>
      </trkpt>
      <trkpt lat="41.78961" lon="9.18811">
        <ele>874.46</ele>
        <time>2022-04-30T08:01:28Z</time>
      </trkpt>
      <trkpt lat="41.78977" lon="9.18809">
        <ele>871.57</ele>
        <time>2022-04-30T08:01:39Z</time>
      </trkpt>
      <trkpt lat="41.78989" lon="9.18815">
        <ele>868.69</ele>
        <time>2022-04-30T08:01:53Z</time>
      </trkpt>
      <trkpt lat="41.79002" lon="9.18812">
        <ele>867.73</ele>
        <time>2022-04-30T08:02:14Z</time>
      </trkpt>
      <trkpt lat="41.79005" lon="9.18816">
        <ele>868.69</ele>
        <time>2022-04-30T08:02:34Z</time>
      </trkpt>
      <trkpt lat="41.79008" lon="9.18817">
        <ele>867.73</ele>
        <time>2022-04-30T08:03:00Z</time>
      </trkpt>
      <trkpt lat="41.79006" lon="9.18817">
        <ele>868.21</ele>
        <time>2022-04-30T08:03:39Z</time>
      </trkpt>
      <trkpt lat="41.78998" lon="9.18815">
        <ele>868.21</ele>
        <time>2022-04-30T08:04:09Z</time>
      </trkpt>
      <trkpt lat="41.79001" lon="9.18816">
        <ele>868.69</ele>
        <time>2022-04-30T08:04:41Z</time>
      </trkpt>
      <trkpt lat="41.78998" lon="9.18819">
        <ele>869.65</ele>
        <time>2022-04-30T08:05:15Z</time>
      </trkpt>
      <trkpt lat="41.79005" lon="9.18815">
        <ele>869.65</ele>
        <time>2022-04-30T08:05:54Z</time>
      </trkpt>
      <trkpt lat="41.79001" lon="9.18819">
        <ele>870.61</ele>
        <time>2022-04-30T08:06:21Z</time>
      </trkpt>
      <trkpt lat="41.79019" lon="9.18841">
        <ele>872.05</ele>
        <time>2022-04-30T08:06:35Z</time>
      </trkpt>
      <trkpt lat="41.79026" lon="9.18857">
        <ele>872.05</ele>
        <time>2022-04-30T08:06:49Z</time>
      </trkpt>
      <trkpt lat="41.79038" lon="9.18865">
        <ele>871.57</ele>
        <time>2022-04-30T08:07:03Z</time>
      </trkpt>
      <trkpt lat="41.79045" lon="9.18876">
        <ele>870.61</ele>
        <time>2022-04-30T08:07:18Z</time>
      </trkpt>
      <trkpt lat="41.79046" lon="9.18877">
        <ele>871.09</ele>
        <time>2022-04-30T08:07:41Z</time>
      </trkpt>
      <trkpt lat="41.79054" lon="9.18902">
        <ele>871.09</ele>
        <time>2022-04-30T08:08:02Z</time>
      </trkpt>
      <trkpt lat="41.79058" lon="9.18905">
        <ele>871.09</ele>
        <time>2022-04-30T08:08:19Z</time>
      </trkpt>
      <trkpt lat="41.79055" lon="9.18917">
        <ele>869.65</ele>
        <time>2022-04-30T08:08:36Z</time>
      </trkpt>
      <trkpt lat="41.79052" lon="9.18925">
        <ele>866.29</ele>
        <time>2022-04-30T08:08:44Z</time>
      </trkpt>
      <trkpt lat="41.79054" lon="9.18942">
        <ele>863.4</ele>
        <time>2022-04-30T08:08:57Z</time>
      </trkpt>
      <trkpt lat="41.79053" lon="9.18954">
        <ele>860.04</ele>
        <time>2022-04-30T08:09:06Z</time>
      </trkpt>
      <trkpt lat="41.7904" lon="9.1897">
        <ele>858.59</ele>
        <time>2022-04-30T08:09:21Z</time>
      </trkpt>
      <trkpt lat="41.7903" lon="9.1898">
        <ele>855.71</ele>
        <time>2022-04-30T08:09:35Z</time>
      </trkpt>
      <trkpt lat="41.79025" lon="9.18983">
        <ele>854.27</ele>
        <time>2022-04-30T08:09:39Z</time>
      </trkpt>
      <trkpt lat="41.79017" lon="9.18997">
        <ele>850.9</ele>
        <time>2022-04-30T08:09:52Z</time>
      </trkpt>
      <trkpt lat="41.7902" lon="9.19007">
        <ele>848.02</ele>
        <time>2022-04-30T08:10:05Z</time>
      </trkpt>
      <trkpt lat="41.79023" lon="9.19013">
        <ele>845.14</ele>
        <time>2022-04-30T08:10:16Z</time>
      </trkpt>
      <trkpt lat="41.79029" lon="9.19021">
        <ele>841.77</ele>
        <time>2022-04-30T08:10:27Z</time>
      </trkpt>
      <trkpt lat="41.79035" lon="9.19029">
        <ele>839.37</ele>
        <time>2022-04-30T08:10:40Z</time>
      </trkpt>
      <trkpt lat="41.79026" lon="9.19037">
        <ele>839.37</ele>
        <time>2022-04-30T08:11:05Z</time>
      </trkpt>
      <trkpt lat="41.79021" lon="9.19042">
        <ele>838.89</ele>
        <time>2022-04-30T08:11:34Z</time>
      </trkpt>
      <trkpt lat="41.79021" lon="9.19042">
        <ele>839.37</ele>
        <time>2022-04-30T08:11:59Z</time>
      </trkpt>
      <trkpt lat="41.79023" lon="9.19044">
        <ele>839.37</ele>
        <time>2022-04-30T08:12:23Z</time>
      </trkpt>
      <trkpt lat="41.79033" lon="9.19047">
        <ele>838.89</ele>
        <time>2022-04-30T08:12:27Z</time>
      </trkpt>
      <trkpt lat="41.79039" lon="9.19051">
        <ele>836.96</ele>
        <time>2022-04-30T08:12:39Z</time>
      </trkpt>
      <trkpt lat="41.79039" lon="9.19058">
        <ele>833.6</ele>
        <time>2022-04-30T08:12:47Z</time>
      </trkpt>
      <trkpt lat="41.79039" lon="9.19064">
        <ele>830.72</ele>
        <time>2022-04-30T08:13:00Z</time>
      </trkpt>
      <trkpt lat="41.79039" lon="9.19065">
        <ele>830.72</ele>
        <time>2022-04-30T08:13:01Z</time>
      </trkpt>
      <trkpt lat="41.79044" lon="9.19079">
        <ele>826.87</ele>
        <time>2022-04-30T08:13:12Z</time>
      </trkpt>
      <trkpt lat="41.79053" lon="9.19085">
        <ele>823.99</ele>
        <time>2022-04-30T08:13:24Z</time>
      </trkpt>
      <trkpt lat="41.79056" lon="9.19093">
        <ele>820.62</ele>
        <time>2022-04-30T08:13:41Z</time>
      </trkpt>
      <trkpt lat="41.79062" lon="9.19116">
        <ele>818.22</ele>
        <time>2022-04-30T08:13:57Z</time>
      </trkpt>
      <trkpt lat="41.79068" lon="9.19126">
        <ele>816.78</ele>
        <time>2022-04-30T08:14:10Z</time>
      </trkpt>
      <trkpt lat="41.79069" lon="9.19123">
        <ele>817.26</ele>
        <time>2022-04-30T08:14:23Z</time>
      </trkpt>
      <trkpt lat="41.79064" lon="9.19127">
        <ele>817.26</ele>
        <time>2022-04-30T08:14:39Z</time>
      </trkpt>
      <trkpt lat="41.79061" lon="9.19138">
        <ele>817.26</ele>
        <time>2022-04-30T08:14:52Z</time>
      </trkpt>
      <trkpt lat="41.79055" lon="9.19144">
        <ele>817.26</ele>
        <time>2022-04-30T08:15:05Z</time>
      </trkpt>
      <trkpt lat="41.79056" lon="9.19149">
        <ele>816.78</ele>
        <time>2022-04-30T08:15:19Z</time>
      </trkpt>
      <trkpt lat="41.79062" lon="9.1914">
        <ele>816.78</ele>
        <time>2022-04-30T08:15:39Z</time>
      </trkpt>
      <trkpt lat="41.7906" lon="9.19134">
        <ele>817.26</ele>
        <time>2022-04-30T08:15:58Z</time>
      </trkpt>
      <trkpt lat="41.79073" lon="9.19136">
        <ele>818.22</ele>
        <time>2022-04-30T08:16:19Z</time>
      </trkpt>
      <trkpt lat="41.79063" lon="9.19149">
        <ele>817.26</ele>
        <time>2022-04-30T08:16:33Z</time>
      </trkpt>
      <trkpt lat="41.79055" lon="9.1915">
        <ele>817.26</ele>
        <time>2022-04-30T08:16:52Z</time>
      </trkpt>
      <trkpt lat="41.79056" lon="9.19144">
        <ele>818.7</ele>
        <time>2022-04-30T08:17:12Z</time>
      </trkpt>
      <trkpt lat="41.79045" lon="9.19149">
        <ele>817.26</ele>
        <time>2022-04-30T08:17:31Z</time>
      </trkpt>
      <trkpt lat="41.79045" lon="9.19148">
        <ele>818.22</ele>
        <time>2022-04-30T08:17:53Z</time>
      </trkpt>
      <trkpt lat="41.79035" lon="9.1915">
        <ele>818.22</ele>
        <time>2022-04-30T08:18:14Z</time>
      </trkpt>
      <trkpt lat="41.79041" lon="9.19168">
        <ele>817.26</ele>
        <time>2022-04-30T08:18:31Z</time>
      </trkpt>
      <trkpt lat="41.79052" lon="9.1917">
        <ele>817.26</ele>
        <time>2022-04-30T08:18:40Z</time>
      </trkpt>
      <trkpt lat="41.79049" lon="9.1918">
        <ele>816.3</ele>
        <time>2022-04-30T08:18:54Z</time>
      </trkpt>
      <trkpt lat="41.79052" lon="9.19183">
        <ele>815.34</ele>
        <time>2022-04-30T08:19:09Z</time>
      </trkpt>
      <trkpt lat="41.79044" lon="9.19185">
        <ele>814.37</ele>
        <time>2022-04-30T08:19:26Z</time>
      </trkpt>
      <trkpt lat="41.79044" lon="9.19176">
        <ele>814.85</ele>
        <time>2022-04-30T08:19:47Z</time>
      </trkpt>
      <trkpt lat="41.79045" lon="9.19171">
        <ele>814.85</ele>
        <time>2022-04-30T08:20:03Z</time>
      </trkpt>
      <trkpt lat="41.79043" lon="9.19172">
        <ele>816.3</ele>
        <time>2022-04-30T08:20:19Z</time>
      </trkpt>
      <trkpt lat="41.79041" lon="9.19149">
        <ele>818.22</ele>
        <time>2022-04-30T08:20:39Z</time>
      </trkpt>
      <trkpt lat="41.79048" lon="9.19133">
        <ele>818.7</ele>
        <time>2022-04-30T08:20:58Z</time>
      </trkpt>
      <trkpt lat="41.79068" lon="9.19125">
        <ele>817.74</ele>
        <time>2022-04-30T08:21:16Z</time>
      </trkpt>
      <trkpt lat="41.79069" lon="9.19131">
        <ele>816.78</ele>
        <time>2022-04-30T08:21:34Z</time>
      </trkpt>
      <trkpt lat="41.79079" lon="9.19134">
        <ele>816.78</ele>
        <time>2022-04-30T08:21:58Z</time>
      </trkpt>
      <trkpt lat="41.79075" lon="9.19135">
        <ele>816.3</ele>
        <time>2022-04-30T08:22:20Z</time>
      </trkpt>
      <trkpt lat="41.79071" lon="9.19134">
        <ele>817.26</ele>
        <time>2022-04-30T08:22:42Z</time>
      </trkpt>
      <trkpt lat="41.79071" lon="9.19135">
        <ele>817.26</ele>
        <time>2022-04-30T08:22:54Z</time>
      </trkpt>
      <trkpt lat="41.79071" lon="9.19131">
        <ele>816.78</ele>
        <time>2022-04-30T08:23:07Z</time>
      </trkpt>
      <trkpt lat="41.79071" lon="9.19129">
        <ele>816.78</ele>
        <time>2022-04-30T08:23:23Z</time>
      </trkpt>
      <trkpt lat="41.79073" lon="9.19122">
        <ele>817.74</ele>
        <time>2022-04-30T08:23:40Z</time>
      </trkpt>
      <trkpt lat="41.79063" lon="9.19115">
        <ele>817.74</ele>
        <time>2022-04-30T08:24:00Z</time>
      </trkpt>
      <trkpt lat="41.7907" lon="9.19116">
        <ele>817.26</ele>
        <time>2022-04-30T08:24:19Z</time>
      </trkpt>
      <trkpt lat="41.79077" lon="9.19113">
        <ele>817.74</ele>
        <time>2022-04-30T08:24:44Z</time>
      </trkpt>
      <trkpt lat="41.79075" lon="9.19102">
        <ele>817.74</ele>
        <time>2022-04-30T08:25:06Z</time>
      </trkpt>
      <trkpt lat="41.79077" lon="9.19106">
        <ele>817.74</ele>
        <time>2022-04-30T08:25:36Z</time>
      </trkpt>
      <trkpt lat="41.7908" lon="9.19109">
        <ele>818.22</ele>
        <time>2022-04-30T08:26:04Z</time>
      </trkpt>
      <trkpt lat="41.7908" lon="9.191">
        <ele>818.22</ele>
        <time>2022-04-30T08:26:39Z</time>
      </trkpt>
      <trkpt lat="41.79079" lon="9.19099">
        <ele>818.7</ele>
        <time>2022-04-30T08:27:15Z</time>
      </trkpt>
      <trkpt lat="41.79083" lon="9.19098">
        <ele>818.7</ele>
        <time>2022-04-30T08:27:42Z</time>
      </trkpt>
      <trkpt lat="41.79079" lon="9.19086">
        <ele>819.66</ele>
        <time>2022-04-30T08:28:13Z</time>
      </trkpt>
      <trkpt lat="41.79074" lon="9.19094">
        <ele>819.66</ele>
        <time>2022-04-30T08:28:37Z</time>
      </trkpt>
      <trkpt lat="41.79083" lon="9.19111">
        <ele>820.14</ele>
        <time>2022-04-30T08:29:07Z</time>
      </trkpt>
      <trkpt lat="41.79079" lon="9.19103">
        <ele>820.14</ele>
        <time>2022-04-30T08:29:35Z</time>
      </trkpt>
      <trkpt lat="41.79073" lon="9.1912">
        <ele>821.1</ele>
        <time>2022-04-30T08:30:01Z</time>
      </trkpt>
      <trkpt lat="41.79072" lon="9.19126">
        <ele>821.58</ele>
        <time>2022-04-30T08:30:24Z</time>
      </trkpt>
      <trkpt lat="41.79066" lon="9.19126">
        <ele>821.1</ele>
        <time>2022-04-30T08:30:47Z</time>
      </trkpt>
      <trkpt lat="41.79069" lon="9.19126">
        <ele>821.58</ele>
        <time>2022-04-30T08:31:14Z</time>
      </trkpt>
      <trkpt lat="41.7907" lon="9.1913">
        <ele>821.58</ele>
        <time>2022-04-30T08:31:47Z</time>
      </trkpt>
      <trkpt lat="41.79069" lon="9.19133">
        <ele>822.55</ele>
        <time>2022-04-30T08:32:19Z</time>
      </trkpt>
      <trkpt lat="41.79073" lon="9.19116">
        <ele>822.55</ele>
        <time>2022-04-30T08:32:46Z</time>
      </trkpt>
      <trkpt lat="41.79073" lon="9.19124">
        <ele>822.06</ele>
        <time>2022-04-30T08:33:04Z</time>
      </trkpt>
      <trkpt lat="41.79067" lon="9.19129">
        <ele>822.06</ele>
        <time>2022-04-30T08:33:36Z</time>
      </trkpt>
      <trkpt lat="41.7907" lon="9.1913">
        <ele>822.06</ele>
        <time>2022-04-30T08:34:10Z</time>
      </trkpt>
      <trkpt lat="41.79067" lon="9.19145">
        <ele>822.55</ele>
        <time>2022-04-30T08:34:30Z</time>
      </trkpt>
      <trkpt lat="41.79062" lon="9.19156">
        <ele>824.47</ele>
        <time>2022-04-30T08:34:49Z</time>
      </trkpt>
      <trkpt lat="41.79069" lon="9.19177">
        <ele>826.87</ele>
        <time>2022-04-30T08:35:13Z</time>
      </trkpt>
      <trkpt lat="41.79064" lon="9.19201">
        <ele>828.79</ele>
        <time>2022-04-30T08:35:35Z</time>
      </trkpt>
      <trkpt lat="41.79066" lon="9.19218">
        <ele>831.2</ele>
        <time>2022-04-30T08:35:56Z</time>
      </trkpt>
      <trkpt lat="41.79071" lon="9.1923">
        <ele>834.56</ele>
        <time>2022-04-30T08:36:12Z</time>
      </trkpt>
      <trkpt lat="41.79071" lon="9.19231">
        <ele>834.56</ele>
        <time>2022-04-30T08:36:13Z</time>
      </trkpt>
      <trkpt lat="41.79077" lon="9.19243">
        <ele>837.45</ele>
        <time>2022-04-30T08:36:37Z</time>
      </trkpt>
      <trkpt lat="41.79074" lon="9.19253">
        <ele>838.89</ele>
        <time>2022-04-30T08:36:54Z</time>
      </trkpt>
      <trkpt lat="41.79068" lon="9.19266">
        <ele>841.29</ele>
        <time>2022-04-30T08:37:12Z</time>
      </trkpt>
      <trkpt lat="41.7908" lon="9.19267">
        <ele>844.66</ele>
        <time>2022-04-30T08:37:31Z</time>
      </trkpt>
      <trkpt lat="41.79087" lon="9.19273">
        <ele>848.02</ele>
        <time>2022-04-30T08:37:49Z</time>
      </trkpt>
      <trkpt lat="41.79087" lon="9.19287">
        <ele>850.9</ele>
        <time>2022-04-30T08:38:06Z</time>
      </trkpt>
      <trkpt lat="41.79086" lon="9.19299">
        <ele>854.27</ele>
        <time>2022-04-30T08:38:28Z</time>
      </trkpt>
      <trkpt lat="41.79097" lon="9.19314">
        <ele>857.63</ele>
        <time>2022-04-30T08:38:50Z</time>
      </trkpt>
      <trkpt lat="41.79099" lon="9.19327">
        <ele>860.52</ele>
        <time>2022-04-30T08:39:11Z</time>
      </trkpt>
      <trkpt lat="41.79107" lon="9.19332">
        <ele>863.88</ele>
        <time>2022-04-30T08:39:31Z</time>
      </trkpt>
      <trkpt lat="41.79123" lon="9.19323">
        <ele>866.77</ele>
        <time>2022-04-30T08:39:53Z</time>
      </trkpt>
      <trkpt lat="41.7913" lon="9.19328">
        <ele>870.13</ele>
        <time>2022-04-30T08:40:10Z</time>
      </trkpt>
      <trkpt lat="41.79139" lon="9.19331">
        <ele>873.01</ele>
        <time>2022-04-30T08:40:29Z</time>
      </trkpt>
      <trkpt lat="41.79145" lon="9.19324">
        <ele>876.38</ele>
        <time>2022-04-30T08:40:45Z</time>
      </trkpt>
      <trkpt lat="41.79148" lon="9.19309">
        <ele>879.26</ele>
        <time>2022-04-30T08:41:02Z</time>
      </trkpt>
      <trkpt lat="41.79156" lon="9.19299">
        <ele>881.67</ele>
        <time>2022-04-30T08:41:21Z</time>
      </trkpt>
      <trkpt lat="41.79167" lon="9.19289">
        <ele>885.03</ele>
        <time>2022-04-30T08:41:42Z</time>
      </trkpt>
      <trkpt lat="41.79175" lon="9.1928">
        <ele>887.43</ele>
        <time>2022-04-30T08:42:02Z</time>
      </trkpt>
      <trkpt lat="41.79173" lon="9.1926">
        <ele>890.32</ele>
        <time>2022-04-30T08:42:24Z</time>
      </trkpt>
      <trkpt lat="41.79178" lon="9.19242">
        <ele>892.72</ele>
        <time>2022-04-30T08:42:43Z</time>
      </trkpt>
      <trkpt lat="41.79187" lon="9.19234">
        <ele>896.09</ele>
        <time>2022-04-30T08:43:03Z</time>
      </trkpt>
      <trkpt lat="41.79193" lon="9.19221">
        <ele>897.05</ele>
        <time>2022-04-30T08:43:20Z</time>
      </trkpt>
      <trkpt lat="41.79202" lon="9.19226">
        <ele>900.41</ele>
        <time>2022-04-30T08:43:36Z</time>
      </trkpt>
      <trkpt lat="41.79208" lon="9.19242">
        <ele>902.82</ele>
        <time>2022-04-30T08:43:55Z</time>
      </trkpt>
      <trkpt lat="41.79219" lon="9.19249">
        <ele>905.7</ele>
        <time>2022-04-30T08:44:13Z</time>
      </trkpt>
      <trkpt lat="41.79226" lon="9.1926">
        <ele>909.06</ele>
        <time>2022-04-30T08:44:34Z</time>
      </trkpt>
      <trkpt lat="41.79235" lon="9.19267">
        <ele>911.95</ele>
        <time>2022-04-30T08:44:54Z</time>
      </trkpt>
      <trkpt lat="41.79243" lon="9.19254">
        <ele>915.31</ele>
        <time>2022-04-30T08:45:14Z</time>
      </trkpt>
      <trkpt lat="41.79244" lon="9.19234">
        <ele>917.24</ele>
        <time>2022-04-30T08:45:34Z</time>
      </trkpt>
      <trkpt lat="41.7925" lon="9.19232">
        <ele>920.6</ele>
        <time>2022-04-30T08:45:49Z</time>
      </trkpt>
      <trkpt lat="41.79253" lon="9.19229">
        <ele>922.52</ele>
        <time>2022-04-30T08:46:09Z</time>
      </trkpt>
      <trkpt lat="41.7926" lon="9.19231">
        <ele>923</ele>
        <time>2022-04-30T08:46:34Z</time>
      </trkpt>
      <trkpt lat="41.79272" lon="9.19245">
        <ele>924.93</ele>
        <time>2022-04-30T08:46:50Z</time>
      </trkpt>
      <trkpt lat="41.79287" lon="9.19257">
        <ele>927.33</ele>
        <time>2022-04-30T08:47:11Z</time>
      </trkpt>
      <trkpt lat="41.7929" lon="9.19259">
        <ele>929.73</ele>
        <time>2022-04-30T08:47:26Z</time>
      </trkpt>
      <trkpt lat="41.79298" lon="9.19255">
        <ele>931.65</ele>
        <time>2022-04-30T08:47:43Z</time>
      </trkpt>
      <trkpt lat="41.79306" lon="9.19269">
        <ele>935.02</ele>
        <time>2022-04-30T08:48:04Z</time>
      </trkpt>
      <trkpt lat="41.79309" lon="9.19279">
        <ele>937.9</ele>
        <time>2022-04-30T08:48:22Z</time>
      </trkpt>
      <trkpt lat="41.79317" lon="9.19278">
        <ele>940.79</ele>
        <time>2022-04-30T08:48:40Z</time>
      </trkpt>
      <trkpt lat="41.79327" lon="9.19277">
        <ele>944.15</ele>
        <time>2022-04-30T08:48:57Z</time>
      </trkpt>
      <trkpt lat="41.79338" lon="9.19277">
        <ele>947.52</ele>
        <time>2022-04-30T08:49:16Z</time>
      </trkpt>
      <trkpt lat="41.7935" lon="9.19278">
        <ele>950.88</ele>
        <time>2022-04-30T08:49:37Z</time>
      </trkpt>
      <trkpt lat="41.79357" lon="9.19275">
        <ele>953.28</ele>
        <time>2022-04-30T08:49:53Z</time>
      </trkpt>
      <trkpt lat="41.79359" lon="9.19287">
        <ele>956.65</ele>
        <time>2022-04-30T08:50:13Z</time>
      </trkpt>
      <trkpt lat="41.79366" lon="9.19299">
        <ele>959.53</ele>
        <time>2022-04-30T08:50:33Z</time>
      </trkpt>
      <trkpt lat="41.79372" lon="9.193">
        <ele>962.9</ele>
        <time>2022-04-30T08:50:48Z</time>
      </trkpt>
      <trkpt lat="41.79374" lon="9.19316">
        <ele>965.78</ele>
        <time>2022-04-30T08:51:09Z</time>
      </trkpt>
      <trkpt lat="41.79381" lon="9.19321">
        <ele>969.15</ele>
        <time>2022-04-30T08:51:26Z</time>
      </trkpt>
      <trkpt lat="41.79392" lon="9.1932">
        <ele>971.55</ele>
        <time>2022-04-30T08:51:47Z</time>
      </trkpt>
      <trkpt lat="41.79402" lon="9.1933">
        <ele>973.95</ele>
        <time>2022-04-30T08:52:04Z</time>
      </trkpt>
      <trkpt lat="41.79409" lon="9.1933">
        <ele>976.84</ele>
        <time>2022-04-30T08:52:20Z</time>
      </trkpt>
      <trkpt lat="41.79418" lon="9.19331">
        <ele>980.2</ele>
        <time>2022-04-30T08:52:37Z</time>
      </trkpt>
      <trkpt lat="41.79425" lon="9.19332">
        <ele>981.64</ele>
        <time>2022-04-30T08:52:51Z</time>
      </trkpt>
      <trkpt lat="41.79432" lon="9.19336">
        <ele>985.01</ele>
        <time>2022-04-30T08:53:09Z</time>
      </trkpt>
      <trkpt lat="41.79437" lon="9.19335">
        <ele>985.97</ele>
        <time>2022-04-30T08:53:28Z</time>
      </trkpt>
      <trkpt lat="41.79438" lon="9.19333">
        <ele>985.49</ele>
        <time>2022-04-30T08:53:56Z</time>
      </trkpt>
      <trkpt lat="41.79436" lon="9.19333">
        <ele>985.49</ele>
        <time>2022-04-30T08:54:29Z</time>
      </trkpt>
      <trkpt lat="41.79438" lon="9.19332">
        <ele>985.01</ele>
        <time>2022-04-30T08:54:57Z</time>
      </trkpt>
      <trkpt lat="41.79439" lon="9.19333">
        <ele>985.49</ele>
        <time>2022-04-30T08:55:23Z</time>
      </trkpt>
      <trkpt lat="41.7944" lon="9.19334">
        <ele>985.49</ele>
        <time>2022-04-30T08:55:51Z</time>
      </trkpt>
      <trkpt lat="41.79436" lon="9.19329">
        <ele>985.01</ele>
        <time>2022-04-30T08:56:22Z</time>
      </trkpt>
      <trkpt lat="41.79435" lon="9.19324">
        <ele>985.49</ele>
        <time>2022-04-30T08:56:45Z</time>
      </trkpt>
      <trkpt lat="41.79438" lon="9.19325">
        <ele>986.45</ele>
        <time>2022-04-30T08:57:15Z</time>
      </trkpt>
      <trkpt lat="41.79441" lon="9.19325">
        <ele>986.45</ele>
        <time>2022-04-30T08:57:45Z</time>
      </trkpt>
      <trkpt lat="41.79442" lon="9.19336">
        <ele>986.93</ele>
        <time>2022-04-30T08:58:01Z</time>
      </trkpt>
      <trkpt lat="41.79446" lon="9.19339">
        <ele>989.81</ele>
        <time>2022-04-30T08:58:17Z</time>
      </trkpt>
      <trkpt lat="41.79454" lon="9.1934">
        <ele>992.7</ele>
        <time>2022-04-30T08:58:33Z</time>
      </trkpt>
      <trkpt lat="41.79462" lon="9.19343">
        <ele>994.62</ele>
        <time>2022-04-30T08:58:48Z</time>
      </trkpt>
      <trkpt lat="41.79466" lon="9.19345">
        <ele>997.02</ele>
        <time>2022-04-30T08:59:03Z</time>
      </trkpt>
      <trkpt lat="41.79477" lon="9.1935">
        <ele>999.91</ele>
        <time>2022-04-30T08:59:22Z</time>
      </trkpt>
      <trkpt lat="41.79484" lon="9.19352">
        <ele>1002.31</ele>
        <time>2022-04-30T08:59:36Z</time>
      </trkpt>
      <trkpt lat="41.79487" lon="9.19356">
        <ele>1003.75</ele>
        <time>2022-04-30T08:59:49Z</time>
      </trkpt>
      <trkpt lat="41.79489" lon="9.19362">
        <ele>1006.64</ele>
        <time>2022-04-30T09:00:05Z</time>
      </trkpt>
      <trkpt lat="41.7949" lon="9.19371">
        <ele>1010</ele>
        <time>2022-04-30T09:00:22Z</time>
      </trkpt>
      <trkpt lat="41.79494" lon="9.19379">
        <ele>1011.44</ele>
        <time>2022-04-30T09:00:38Z</time>
      </trkpt>
      <trkpt lat="41.79497" lon="9.19386">
        <ele>1012.89</ele>
        <time>2022-04-30T09:00:56Z</time>
      </trkpt>
      <trkpt lat="41.79497" lon="9.19401">
        <ele>1015.77</ele>
        <time>2022-04-30T09:01:13Z</time>
      </trkpt>
      <trkpt lat="41.79505" lon="9.19412">
        <ele>1018.17</ele>
        <time>2022-04-30T09:01:30Z</time>
      </trkpt>
      <trkpt lat="41.79501" lon="9.19429">
        <ele>1017.21</ele>
        <time>2022-04-30T09:01:47Z</time>
      </trkpt>
      <trkpt lat="41.79491" lon="9.19446">
        <ele>1018.17</ele>
        <time>2022-04-30T09:02:03Z</time>
      </trkpt>
      <trkpt lat="41.79483" lon="9.19462">
        <ele>1017.69</ele>
        <time>2022-04-30T09:02:17Z</time>
      </trkpt>
      <trkpt lat="41.79477" lon="9.19483">
        <ele>1018.65</ele>
        <time>2022-04-30T09:02:33Z</time>
      </trkpt>
      <trkpt lat="41.79469" lon="9.19498">
        <ele>1019.13</ele>
        <time>2022-04-30T09:02:48Z</time>
      </trkpt>
      <trkpt lat="41.79468" lon="9.19502">
        <ele>1020.58</ele>
        <time>2022-04-30T09:03:06Z</time>
      </trkpt>
      <trkpt lat="41.79472" lon="9.19515">
        <ele>1021.54</ele>
        <time>2022-04-30T09:03:21Z</time>
      </trkpt>
      <trkpt lat="41.79472" lon="9.1953">
        <ele>1023.94</ele>
        <time>2022-04-30T09:03:35Z</time>
      </trkpt>
      <trkpt lat="41.79462" lon="9.19548">
        <ele>1025.86</ele>
        <time>2022-04-30T09:03:53Z</time>
      </trkpt>
      <trkpt lat="41.79466" lon="9.19569">
        <ele>1028.27</ele>
        <time>2022-04-30T09:04:10Z</time>
      </trkpt>
      <trkpt lat="41.79468" lon="9.19578">
        <ele>1028.27</ele>
        <time>2022-04-30T09:04:25Z</time>
      </trkpt>
      <trkpt lat="41.79476" lon="9.19586">
        <ele>1029.23</ele>
        <time>2022-04-30T09:04:41Z</time>
      </trkpt>
      <trkpt lat="41.79487" lon="9.19597">
        <ele>1029.71</ele>
        <time>2022-04-30T09:04:59Z</time>
      </trkpt>
      <trkpt lat="41.79499" lon="9.19605">
        <ele>1031.63</ele>
        <time>2022-04-30T09:05:15Z</time>
      </trkpt>
      <trkpt lat="41.79501" lon="9.19609">
        <ele>1032.11</ele>
        <time>2022-04-30T09:05:30Z</time>
      </trkpt>
      <trkpt lat="41.79503" lon="9.19619">
        <ele>1033.55</ele>
        <time>2022-04-30T09:05:48Z</time>
      </trkpt>
      <trkpt lat="41.79513" lon="9.19631">
        <ele>1035.48</ele>
        <time>2022-04-30T09:06:05Z</time>
      </trkpt>
      <trkpt lat="41.79513" lon="9.19634">
        <ele>1036.44</ele>
        <time>2022-04-30T09:06:08Z</time>
      </trkpt>
      <trkpt lat="41.79512" lon="9.19638">
        <ele>1036.44</ele>
        <time>2022-04-30T09:06:11Z</time>
      </trkpt>
      <trkpt lat="41.79511" lon="9.1964">
        <ele>1036.44</ele>
        <time>2022-04-30T09:06:13Z</time>
      </trkpt>
      <trkpt lat="41.79507" lon="9.19648">
        <ele>1036.92</ele>
        <time>2022-04-30T09:06:19Z</time>
      </trkpt>
      <trkpt lat="41.79507" lon="9.19669">
        <ele>1037.88</ele>
        <time>2022-04-30T09:06:34Z</time>
      </trkpt>
      <trkpt lat="41.79508" lon="9.19691">
        <ele>1038.36</ele>
        <time>2022-04-30T09:06:49Z</time>
      </trkpt>
      <trkpt lat="41.79519" lon="9.19712">
        <ele>1036.44</ele>
        <time>2022-04-30T09:07:05Z</time>
      </trkpt>
      <trkpt lat="41.79524" lon="9.19739">
        <ele>1035.48</ele>
        <time>2022-04-30T09:07:22Z</time>
      </trkpt>
      <trkpt lat="41.7953" lon="9.19755">
        <ele>1035</ele>
        <time>2022-04-30T09:07:38Z</time>
      </trkpt>
      <trkpt lat="41.79533" lon="9.19761">
        <ele>1034.04</ele>
        <time>2022-04-30T09:08:05Z</time>
      </trkpt>
      <trkpt lat="41.79534" lon="9.19767">
        <ele>1033.55</ele>
        <time>2022-04-30T09:08:09Z</time>
      </trkpt>
      <trkpt lat="41.79541" lon="9.19789">
        <ele>1033.07</ele>
        <time>2022-04-30T09:08:24Z</time>
      </trkpt>
      <trkpt lat="41.79547" lon="9.19805">
        <ele>1032.11</ele>
        <time>2022-04-30T09:08:39Z</time>
      </trkpt>
      <trkpt lat="41.79549" lon="9.1983">
        <ele>1033.07</ele>
        <time>2022-04-30T09:08:53Z</time>
      </trkpt>
      <trkpt lat="41.79554" lon="9.19853">
        <ele>1033.07</ele>
        <time>2022-04-30T09:09:09Z</time>
      </trkpt>
      <trkpt lat="41.79564" lon="9.19867">
        <ele>1035</ele>
        <time>2022-04-30T09:09:27Z</time>
      </trkpt>
      <trkpt lat="41.79573" lon="9.19888">
        <ele>1035</ele>
        <time>2022-04-30T09:09:42Z</time>
      </trkpt>
      <trkpt lat="41.79589" lon="9.199">
        <ele>1035.96</ele>
        <time>2022-04-30T09:09:57Z</time>
      </trkpt>
      <trkpt lat="41.79598" lon="9.1992">
        <ele>1035.96</ele>
        <time>2022-04-30T09:10:13Z</time>
      </trkpt>
      <trkpt lat="41.79609" lon="9.19945">
        <ele>1035</ele>
        <time>2022-04-30T09:10:31Z</time>
      </trkpt>
      <trkpt lat="41.7962" lon="9.19961">
        <ele>1031.63</ele>
        <time>2022-04-30T09:10:46Z</time>
      </trkpt>
      <trkpt lat="41.79623" lon="9.19982">
        <ele>1033.55</ele>
        <time>2022-04-30T09:11:02Z</time>
      </trkpt>
      <trkpt lat="41.79615" lon="9.20005">
        <ele>1035.96</ele>
        <time>2022-04-30T09:11:22Z</time>
      </trkpt>
      <trkpt lat="41.79613" lon="9.20028">
        <ele>1034.04</ele>
        <time>2022-04-30T09:11:39Z</time>
      </trkpt>
      <trkpt lat="41.79603" lon="9.20043">
        <ele>1035</ele>
        <time>2022-04-30T09:11:57Z</time>
      </trkpt>
      <trkpt lat="41.79587" lon="9.20062">
        <ele>1036.44</ele>
        <time>2022-04-30T09:12:18Z</time>
      </trkpt>
      <trkpt lat="41.79572" lon="9.20074">
        <ele>1037.88</ele>
        <time>2022-04-30T09:12:36Z</time>
      </trkpt>
      <trkpt lat="41.79557" lon="9.20083">
        <ele>1038.36</ele>
        <time>2022-04-30T09:12:51Z</time>
      </trkpt>
      <trkpt lat="41.79547" lon="9.20094">
        <ele>1037.88</ele>
        <time>2022-04-30T09:13:07Z</time>
      </trkpt>
      <trkpt lat="41.79544" lon="9.20097">
        <ele>1036.92</ele>
        <time>2022-04-30T09:13:12Z</time>
      </trkpt>
      <trkpt lat="41.79528" lon="9.20106">
        <ele>1036.92</ele>
        <time>2022-04-30T09:13:29Z</time>
      </trkpt>
      <trkpt lat="41.7951" lon="9.20109">
        <ele>1038.36</ele>
        <time>2022-04-30T09:13:44Z</time>
      </trkpt>
      <trkpt lat="41.79497" lon="9.20115">
        <ele>1040.76</ele>
        <time>2022-04-30T09:14:01Z</time>
      </trkpt>
      <trkpt lat="41.79488" lon="9.2012">
        <ele>1042.21</ele>
        <time>2022-04-30T09:14:19Z</time>
      </trkpt>
      <trkpt lat="41.79479" lon="9.20123">
        <ele>1043.17</ele>
        <time>2022-04-30T09:14:33Z</time>
      </trkpt>
      <trkpt lat="41.79469" lon="9.2013">
        <ele>1043.65</ele>
        <time>2022-04-30T09:14:47Z</time>
      </trkpt>
      <trkpt lat="41.79456" lon="9.20147">
        <ele>1042.21</ele>
        <time>2022-04-30T09:15:03Z</time>
      </trkpt>
      <trkpt lat="41.79449" lon="9.20167">
        <ele>1039.32</ele>
        <time>2022-04-30T09:15:20Z</time>
      </trkpt>
      <trkpt lat="41.79447" lon="9.20195">
        <ele>1037.4</ele>
        <time>2022-04-30T09:15:35Z</time>
      </trkpt>
      <trkpt lat="41.7945" lon="9.20214">
        <ele>1037.4</ele>
        <time>2022-04-30T09:15:52Z</time>
      </trkpt>
      <trkpt lat="41.79448" lon="9.20221">
        <ele>1039.32</ele>
        <time>2022-04-30T09:16:06Z</time>
      </trkpt>
      <trkpt lat="41.7945" lon="9.2022">
        <ele>1038.84</ele>
        <time>2022-04-30T09:16:25Z</time>
      </trkpt>
      <trkpt lat="41.7945" lon="9.20222">
        <ele>1038.84</ele>
        <time>2022-04-30T09:16:49Z</time>
      </trkpt>
      <trkpt lat="41.7945" lon="9.20215">
        <ele>1038.84</ele>
        <time>2022-04-30T09:17:16Z</time>
      </trkpt>
      <trkpt lat="41.79454" lon="9.20214">
        <ele>1036.44</ele>
        <time>2022-04-30T09:17:28Z</time>
      </trkpt>
      <trkpt lat="41.79466" lon="9.20217">
        <ele>1036.44</ele>
        <time>2022-04-30T09:17:42Z</time>
      </trkpt>
      <trkpt lat="41.79479" lon="9.20223">
        <ele>1037.88</ele>
        <time>2022-04-30T09:18:00Z</time>
      </trkpt>
      <trkpt lat="41.7948" lon="9.20228">
        <ele>1037.88</ele>
        <time>2022-04-30T09:18:20Z</time>
      </trkpt>
      <trkpt lat="41.79482" lon="9.20228">
        <ele>1038.36</ele>
        <time>2022-04-30T09:18:45Z</time>
      </trkpt>
      <trkpt lat="41.79487" lon="9.20241">
        <ele>1040.28</ele>
        <time>2022-04-30T09:19:01Z</time>
      </trkpt>
      <trkpt lat="41.79489" lon="9.20255">
        <ele>1041.25</ele>
        <time>2022-04-30T09:19:17Z</time>
      </trkpt>
      <trkpt lat="41.79491" lon="9.20257">
        <ele>1040.28</ele>
        <time>2022-04-30T09:19:20Z</time>
      </trkpt>
      <trkpt lat="41.79498" lon="9.20267">
        <ele>1039.32</ele>
        <time>2022-04-30T09:19:32Z</time>
      </trkpt>
      <trkpt lat="41.79511" lon="9.20286">
        <ele>1036.92</ele>
        <time>2022-04-30T09:19:49Z</time>
      </trkpt>
      <trkpt lat="41.79528" lon="9.20297">
        <ele>1036.92</ele>
        <time>2022-04-30T09:20:06Z</time>
      </trkpt>
      <trkpt lat="41.79544" lon="9.20308">
        <ele>1037.4</ele>
        <time>2022-04-30T09:20:22Z</time>
      </trkpt>
      <trkpt lat="41.79554" lon="9.20315">
        <ele>1038.36</ele>
        <time>2022-04-30T09:20:36Z</time>
      </trkpt>
      <trkpt lat="41.79569" lon="9.20318">
        <ele>1038.84</ele>
        <time>2022-04-30T09:20:51Z</time>
      </trkpt>
      <trkpt lat="41.79581" lon="9.2032">
        <ele>1040.76</ele>
        <time>2022-04-30T09:21:06Z</time>
      </trkpt>
      <trkpt lat="41.79597" lon="9.20331">
        <ele>1040.28</ele>
        <time>2022-04-30T09:21:22Z</time>
      </trkpt>
      <trkpt lat="41.79613" lon="9.20348">
        <ele>1039.32</ele>
        <time>2022-04-30T09:21:39Z</time>
      </trkpt>
      <trkpt lat="41.79624" lon="9.20364">
        <ele>1039.8</ele>
        <time>2022-04-30T09:21:55Z</time>
      </trkpt>
      <trkpt lat="41.79637" lon="9.20378">
        <ele>1038.84</ele>
        <time>2022-04-30T09:22:10Z</time>
      </trkpt>
      <trkpt lat="41.79646" lon="9.20388">
        <ele>1037.4</ele>
        <time>2022-04-30T09:22:24Z</time>
      </trkpt>
      <trkpt lat="41.79659" lon="9.20401">
        <ele>1034.52</ele>
        <time>2022-04-30T09:22:41Z</time>
      </trkpt>
      <trkpt lat="41.79673" lon="9.20416">
        <ele>1031.63</ele>
        <time>2022-04-30T09:22:57Z</time>
      </trkpt>
      <trkpt lat="41.7969" lon="9.20427">
        <ele>1032.11</ele>
        <time>2022-04-30T09:23:16Z</time>
      </trkpt>
      <trkpt lat="41.79698" lon="9.20437">
        <ele>1028.75</ele>
        <time>2022-04-30T09:23:27Z</time>
      </trkpt>
      <trkpt lat="41.7971" lon="9.20441">
        <ele>1028.75</ele>
        <time>2022-04-30T09:23:39Z</time>
      </trkpt>
      <trkpt lat="41.7972" lon="9.20445">
        <ele>1029.23</ele>
        <time>2022-04-30T09:23:57Z</time>
      </trkpt>
      <trkpt lat="41.79727" lon="9.20448">
        <ele>1029.71</ele>
        <time>2022-04-30T09:24:17Z</time>
      </trkpt>
      <trkpt lat="41.79737" lon="9.20449">
        <ele>1030.19</ele>
        <time>2022-04-30T09:24:32Z</time>
      </trkpt>
      <trkpt lat="41.79755" lon="9.20455">
        <ele>1030.19</ele>
        <time>2022-04-30T09:24:49Z</time>
      </trkpt>
      <trkpt lat="41.79766" lon="9.20467">
        <ele>1030.67</ele>
        <time>2022-04-30T09:25:04Z</time>
      </trkpt>
      <trkpt lat="41.79774" lon="9.20479">
        <ele>1031.15</ele>
        <time>2022-04-30T09:25:19Z</time>
      </trkpt>
      <trkpt lat="41.79784" lon="9.2049">
        <ele>1031.63</ele>
        <time>2022-04-30T09:25:32Z</time>
      </trkpt>
      <trkpt lat="41.79797" lon="9.20504">
        <ele>1030.19</ele>
        <time>2022-04-30T09:25:46Z</time>
      </trkpt>
      <trkpt lat="41.79807" lon="9.20513">
        <ele>1030.19</ele>
        <time>2022-04-30T09:26:02Z</time>
      </trkpt>
      <trkpt lat="41.79811" lon="9.20515">
        <ele>1029.23</ele>
        <time>2022-04-30T09:26:06Z</time>
      </trkpt>
      <trkpt lat="41.7982" lon="9.20532">
        <ele>1027.31</ele>
        <time>2022-04-30T09:26:23Z</time>
      </trkpt>
      <trkpt lat="41.79824" lon="9.20541">
        <ele>1023.94</ele>
        <time>2022-04-30T09:26:36Z</time>
      </trkpt>
      <trkpt lat="41.7983" lon="9.20545">
        <ele>1021.06</ele>
        <time>2022-04-30T09:26:52Z</time>
      </trkpt>
      <trkpt lat="41.79841" lon="9.20552">
        <ele>1018.65</ele>
        <time>2022-04-30T09:27:09Z</time>
      </trkpt>
      <trkpt lat="41.79855" lon="9.20548">
        <ele>1020.58</ele>
        <time>2022-04-30T09:27:28Z</time>
      </trkpt>
      <trkpt lat="41.79871" lon="9.20541">
        <ele>1023.46</ele>
        <time>2022-04-30T09:27:47Z</time>
      </trkpt>
      <trkpt lat="41.79876" lon="9.20527">
        <ele>1027.31</ele>
        <time>2022-04-30T09:28:06Z</time>
      </trkpt>
      <trkpt lat="41.79885" lon="9.20542">
        <ele>1029.71</ele>
        <time>2022-04-30T09:28:30Z</time>
      </trkpt>
      <trkpt lat="41.79896" lon="9.2055">
        <ele>1031.15</ele>
        <time>2022-04-30T09:28:49Z</time>
      </trkpt>
      <trkpt lat="41.79893" lon="9.2056">
        <ele>1033.55</ele>
        <time>2022-04-30T09:29:09Z</time>
      </trkpt>
      <trkpt lat="41.79896" lon="9.20573">
        <ele>1030.67</ele>
        <time>2022-04-30T09:29:23Z</time>
      </trkpt>
      <trkpt lat="41.79898" lon="9.206">
        <ele>1033.07</ele>
        <time>2022-04-30T09:29:46Z</time>
      </trkpt>
      <trkpt lat="41.79906" lon="9.20608">
        <ele>1034.52</ele>
        <time>2022-04-30T09:30:09Z</time>
      </trkpt>
      <trkpt lat="41.79909" lon="9.20613">
        <ele>1036.92</ele>
        <time>2022-04-30T09:30:34Z</time>
      </trkpt>
      <trkpt lat="41.79905" lon="9.20624">
        <ele>1034.04</ele>
        <time>2022-04-30T09:30:54Z</time>
      </trkpt>
      <trkpt lat="41.7991" lon="9.20627">
        <ele>1034.52</ele>
        <time>2022-04-30T09:31:21Z</time>
      </trkpt>
      <trkpt lat="41.79912" lon="9.20624">
        <ele>1036.44</ele>
        <time>2022-04-30T09:31:44Z</time>
      </trkpt>
      <trkpt lat="41.7992" lon="9.20619">
        <ele>1036.92</ele>
        <time>2022-04-30T09:32:10Z</time>
      </trkpt>
      <trkpt lat="41.79908" lon="9.20622">
        <ele>1039.8</ele>
        <time>2022-04-30T09:32:32Z</time>
      </trkpt>
      <trkpt lat="41.79904" lon="9.20644">
        <ele>1041.73</ele>
        <time>2022-04-30T09:32:55Z</time>
      </trkpt>
      <trkpt lat="41.799" lon="9.2066">
        <ele>1045.57</ele>
        <time>2022-04-30T09:33:16Z</time>
      </trkpt>
      <trkpt lat="41.79911" lon="9.20661">
        <ele>1048.45</ele>
        <time>2022-04-30T09:33:35Z</time>
      </trkpt>
      <trkpt lat="41.7991" lon="9.20672">
        <ele>1051.82</ele>
        <time>2022-04-30T09:33:51Z</time>
      </trkpt>
      <trkpt lat="41.79909" lon="9.20676">
        <ele>1052.78</ele>
        <time>2022-04-30T09:33:56Z</time>
      </trkpt>
      <trkpt lat="41.79907" lon="9.20683">
        <ele>1054.7</ele>
        <time>2022-04-30T09:34:06Z</time>
      </trkpt>
      <trkpt lat="41.799" lon="9.20684">
        <ele>1056.63</ele>
        <time>2022-04-30T09:34:22Z</time>
      </trkpt>
      <trkpt lat="41.79893" lon="9.20686">
        <ele>1059.03</ele>
        <time>2022-04-30T09:34:33Z</time>
      </trkpt>
      <trkpt lat="41.79886" lon="9.20689">
        <ele>1060.95</ele>
        <time>2022-04-30T09:34:48Z</time>
      </trkpt>
      <trkpt lat="41.79874" lon="9.20693">
        <ele>1063.36</ele>
        <time>2022-04-30T09:35:06Z</time>
      </trkpt>
      <trkpt lat="41.79866" lon="9.20698">
        <ele>1066.72</ele>
        <time>2022-04-30T09:35:26Z</time>
      </trkpt>
      <trkpt lat="41.79861" lon="9.20698">
        <ele>1067.2</ele>
        <time>2022-04-30T09:35:40Z</time>
      </trkpt>
      <trkpt lat="41.79859" lon="9.20695">
        <ele>1067.2</ele>
        <time>2022-04-30T09:36:00Z</time>
      </trkpt>
      <trkpt lat="41.79859" lon="9.20698">
        <ele>1068.16</ele>
        <time>2022-04-30T09:36:19Z</time>
      </trkpt>
      <trkpt lat="41.79858" lon="9.20702">
        <ele>1068.64</ele>
        <time>2022-04-30T09:36:24Z</time>
      </trkpt>
      <trkpt lat="41.79854" lon="9.20711">
        <ele>1071.53</ele>
        <time>2022-04-30T09:36:38Z</time>
      </trkpt>
      <trkpt lat="41.79845" lon="9.20717">
        <ele>1072.97</ele>
        <time>2022-04-30T09:36:54Z</time>
      </trkpt>
      <trkpt lat="41.79834" lon="9.20722">
        <ele>1074.41</ele>
        <time>2022-04-30T09:37:08Z</time>
      </trkpt>
      <trkpt lat="41.79821" lon="9.20726">
        <ele>1074.41</ele>
        <time>2022-04-30T09:37:22Z</time>
      </trkpt>
      <trkpt lat="41.79809" lon="9.20726">
        <ele>1075.37</ele>
        <time>2022-04-30T09:37:38Z</time>
      </trkpt>
      <trkpt lat="41.79806" lon="9.2073">
        <ele>1077.78</ele>
        <time>2022-04-30T09:37:51Z</time>
      </trkpt>
      <trkpt lat="41.798" lon="9.2073">
        <ele>1078.26</ele>
        <time>2022-04-30T09:38:04Z</time>
      </trkpt>
      <trkpt lat="41.79796" lon="9.20724">
        <ele>1078.74</ele>
        <time>2022-04-30T09:38:32Z</time>
      </trkpt>
      <trkpt lat="41.79793" lon="9.20723">
        <ele>1077.29</ele>
        <time>2022-04-30T09:38:46Z</time>
      </trkpt>
      <trkpt lat="41.79793" lon="9.20721">
        <ele>1077.29</ele>
        <time>2022-04-30T09:38:58Z</time>
      </trkpt>
      <trkpt lat="41.79786" lon="9.20722">
        <ele>1076.33</ele>
        <time>2022-04-30T09:39:17Z</time>
      </trkpt>
      <trkpt lat="41.79784" lon="9.20722">
        <ele>1074.89</ele>
        <time>2022-04-30T09:39:20Z</time>
      </trkpt>
      <trkpt lat="41.79773" lon="9.20728">
        <ele>1075.37</ele>
        <time>2022-04-30T09:39:35Z</time>
      </trkpt>
      <trkpt lat="41.79768" lon="9.20732">
        <ele>1078.26</ele>
        <time>2022-04-30T09:39:49Z</time>
      </trkpt>
      <trkpt lat="41.7976" lon="9.20735">
        <ele>1079.7</ele>
        <time>2022-04-30T09:40:04Z</time>
      </trkpt>
      <trkpt lat="41.79753" lon="9.20736">
        <ele>1081.14</ele>
        <time>2022-04-30T09:40:18Z</time>
      </trkpt>
      <trkpt lat="41.79746" lon="9.20733">
        <ele>1078.26</ele>
        <time>2022-04-30T09:40:30Z</time>
      </trkpt>
      <trkpt lat="41.7974" lon="9.20733">
        <ele>1076.33</ele>
        <time>2022-04-30T09:40:44Z</time>
      </trkpt>
      <trkpt lat="41.79738" lon="9.20728">
        <ele>1075.37</ele>
        <time>2022-04-30T09:40:57Z</time>
      </trkpt>
      <trkpt lat="41.79731" lon="9.20732">
        <ele>1074.89</ele>
        <time>2022-04-30T09:41:11Z</time>
      </trkpt>
      <trkpt lat="41.79722" lon="9.20737">
        <ele>1075.85</ele>
        <time>2022-04-30T09:41:26Z</time>
      </trkpt>
      <trkpt lat="41.79718" lon="9.20736">
        <ele>1073.93</ele>
        <time>2022-04-30T09:41:38Z</time>
      </trkpt>
      <trkpt lat="41.79711" lon="9.2074">
        <ele>1070.57</ele>
        <time>2022-04-30T09:41:55Z</time>
      </trkpt>
      <trkpt lat="41.797" lon="9.20756">
        <ele>1069.12</ele>
        <time>2022-04-30T09:42:11Z</time>
      </trkpt>
      <trkpt lat="41.79689" lon="9.20762">
        <ele>1069.12</ele>
        <time>2022-04-30T09:42:25Z</time>
      </trkpt>
      <trkpt lat="41.79685" lon="9.20765">
        <ele>1068.16</ele>
        <time>2022-04-30T09:42:30Z</time>
      </trkpt>
      <trkpt lat="41.79676" lon="9.20774">
        <ele>1068.64</ele>
        <time>2022-04-30T09:42:47Z</time>
      </trkpt>
      <trkpt lat="41.79663" lon="9.20786">
        <ele>1068.64</ele>
        <time>2022-04-30T09:43:05Z</time>
      </trkpt>
      <trkpt lat="41.79656" lon="9.20786">
        <ele>1067.2</ele>
        <time>2022-04-30T09:43:11Z</time>
      </trkpt>
      <trkpt lat="41.79645" lon="9.20799">
        <ele>1064.32</ele>
        <time>2022-04-30T09:43:29Z</time>
      </trkpt>
      <trkpt lat="41.7964" lon="9.20804">
        <ele>1062.87</ele>
        <time>2022-04-30T09:43:37Z</time>
      </trkpt>
      <trkpt lat="41.79627" lon="9.20821">
        <ele>1059.51</ele>
        <time>2022-04-30T09:43:51Z</time>
      </trkpt>
      <trkpt lat="41.79615" lon="9.20831">
        <ele>1056.15</ele>
        <time>2022-04-30T09:44:03Z</time>
      </trkpt>
      <trkpt lat="41.79605" lon="9.20843">
        <ele>1053.26</ele>
        <time>2022-04-30T09:44:19Z</time>
      </trkpt>
      <trkpt lat="41.79599" lon="9.20854">
        <ele>1049.9</ele>
        <time>2022-04-30T09:44:34Z</time>
      </trkpt>
      <trkpt lat="41.79593" lon="9.20861">
        <ele>1047.97</ele>
        <time>2022-04-30T09:45:02Z</time>
      </trkpt>
      <trkpt lat="41.79588" lon="9.20873">
        <ele>1044.61</ele>
        <time>2022-04-30T09:45:17Z</time>
      </trkpt>
      <trkpt lat="41.79585" lon="9.20885">
        <ele>1041.73</ele>
        <time>2022-04-30T09:45:29Z</time>
      </trkpt>
      <trkpt lat="41.79575" lon="9.20899">
        <ele>1039.32</ele>
        <time>2022-04-30T09:45:48Z</time>
      </trkpt>
      <trkpt lat="41.79566" lon="9.20903">
        <ele>1036.44</ele>
        <time>2022-04-30T09:46:03Z</time>
      </trkpt>
      <trkpt lat="41.79557" lon="9.20908">
        <ele>1034.04</ele>
        <time>2022-04-30T09:46:17Z</time>
      </trkpt>
      <trkpt lat="41.79553" lon="9.20906">
        <ele>1031.63</ele>
        <time>2022-04-30T09:46:30Z</time>
      </trkpt>
      <trkpt lat="41.79549" lon="9.20907">
        <ele>1029.71</ele>
        <time>2022-04-30T09:46:34Z</time>
      </trkpt>
      <trkpt lat="41.79552" lon="9.20917">
        <ele>1028.75</ele>
        <time>2022-04-30T09:46:51Z</time>
      </trkpt>
      <trkpt lat="41.79556" lon="9.20929">
        <ele>1028.27</ele>
        <time>2022-04-30T09:47:12Z</time>
      </trkpt>
      <trkpt lat="41.79553" lon="9.20927">
        <ele>1028.27</ele>
        <time>2022-04-30T09:47:34Z</time>
      </trkpt>
      <trkpt lat="41.79556" lon="9.20946">
        <ele>1028.75</ele>
        <time>2022-04-30T09:47:51Z</time>
      </trkpt>
      <trkpt lat="41.79551" lon="9.2095">
        <ele>1026.83</ele>
        <time>2022-04-30T09:48:09Z</time>
      </trkpt>
      <trkpt lat="41.79551" lon="9.20948">
        <ele>1027.79</ele>
        <time>2022-04-30T09:48:28Z</time>
      </trkpt>
      <trkpt lat="41.79544" lon="9.20947">
        <ele>1029.71</ele>
        <time>2022-04-30T09:48:48Z</time>
      </trkpt>
      <trkpt lat="41.79525" lon="9.20951">
        <ele>1029.71</ele>
        <time>2022-04-30T09:49:05Z</time>
      </trkpt>
      <trkpt lat="41.79514" lon="9.20961">
        <ele>1030.67</ele>
        <time>2022-04-30T09:49:21Z</time>
      </trkpt>
      <trkpt lat="41.79504" lon="9.20974">
        <ele>1031.63</ele>
        <time>2022-04-30T09:49:38Z</time>
      </trkpt>
      <trkpt lat="41.7949" lon="9.20981">
        <ele>1031.15</ele>
        <time>2022-04-30T09:49:52Z</time>
      </trkpt>
      <trkpt lat="41.79478" lon="9.20988">
        <ele>1029.71</ele>
        <time>2022-04-30T09:50:08Z</time>
      </trkpt>
      <trkpt lat="41.79472" lon="9.20989">
        <ele>1031.15</ele>
        <time>2022-04-30T09:50:21Z</time>
      </trkpt>
      <trkpt lat="41.79462" lon="9.20991">
        <ele>1029.71</ele>
        <time>2022-04-30T09:50:36Z</time>
      </trkpt>
      <trkpt lat="41.7946" lon="9.2099">
        <ele>1030.19</ele>
        <time>2022-04-30T09:50:38Z</time>
      </trkpt>
      <trkpt lat="41.79445" lon="9.20987">
        <ele>1026.83</ele>
        <time>2022-04-30T09:50:55Z</time>
      </trkpt>
      <trkpt lat="41.79434" lon="9.21003">
        <ele>1025.86</ele>
        <time>2022-04-30T09:51:11Z</time>
      </trkpt>
      <trkpt lat="41.79426" lon="9.21009">
        <ele>1022.02</ele>
        <time>2022-04-30T09:51:23Z</time>
      </trkpt>
      <trkpt lat="41.79412" lon="9.21023">
        <ele>1020.58</ele>
        <time>2022-04-30T09:51:40Z</time>
      </trkpt>
      <trkpt lat="41.79401" lon="9.21031">
        <ele>1020.1</ele>
        <time>2022-04-30T09:51:58Z</time>
      </trkpt>
      <trkpt lat="41.79392" lon="9.21034">
        <ele>1021.06</ele>
        <time>2022-04-30T09:52:12Z</time>
      </trkpt>
      <trkpt lat="41.79379" lon="9.21038">
        <ele>1022.5</ele>
        <time>2022-04-30T09:52:27Z</time>
      </trkpt>
      <trkpt lat="41.79366" lon="9.21045">
        <ele>1022.98</ele>
        <time>2022-04-30T09:52:43Z</time>
      </trkpt>
      <trkpt lat="41.79352" lon="9.21036">
        <ele>1021.54</ele>
        <time>2022-04-30T09:52:58Z</time>
      </trkpt>
      <trkpt lat="41.79339" lon="9.21029">
        <ele>1019.13</ele>
        <time>2022-04-30T09:53:13Z</time>
      </trkpt>
      <trkpt lat="41.79328" lon="9.21031">
        <ele>1020.58</ele>
        <time>2022-04-30T09:53:28Z</time>
      </trkpt>
      <trkpt lat="41.79321" lon="9.21033">
        <ele>1021.54</ele>
        <time>2022-04-30T09:53:43Z</time>
      </trkpt>
      <trkpt lat="41.79309" lon="9.21031">
        <ele>1020.1</ele>
        <time>2022-04-30T09:53:59Z</time>
      </trkpt>
      <trkpt lat="41.79295" lon="9.21031">
        <ele>1019.62</ele>
        <time>2022-04-30T09:54:15Z</time>
      </trkpt>
      <trkpt lat="41.7928" lon="9.21034">
        <ele>1020.1</ele>
        <time>2022-04-30T09:54:33Z</time>
      </trkpt>
      <trkpt lat="41.79258" lon="9.21032">
        <ele>1020.58</ele>
        <time>2022-04-30T09:54:52Z</time>
      </trkpt>
      <trkpt lat="41.79262" lon="9.21034">
        <ele>1019.13</ele>
        <time>2022-04-30T09:55:16Z</time>
      </trkpt>
      <trkpt lat="41.7925" lon="9.21039">
        <ele>1016.73</ele>
        <time>2022-04-30T09:55:33Z</time>
      </trkpt>
      <trkpt lat="41.79238" lon="9.21045">
        <ele>1017.69</ele>
        <time>2022-04-30T09:55:51Z</time>
      </trkpt>
      <trkpt lat="41.79227" lon="9.21056">
        <ele>1020.1</ele>
        <time>2022-04-30T09:56:10Z</time>
      </trkpt>
      <trkpt lat="41.7922" lon="9.21063">
        <ele>1022.02</ele>
        <time>2022-04-30T09:56:26Z</time>
      </trkpt>
      <trkpt lat="41.7921" lon="9.21062">
        <ele>1023.46</ele>
        <time>2022-04-30T09:56:40Z</time>
      </trkpt>
      <trkpt lat="41.79206" lon="9.21061">
        <ele>1024.9</ele>
        <time>2022-04-30T09:56:59Z</time>
      </trkpt>
      <trkpt lat="41.79205" lon="9.21066">
        <ele>1026.34</ele>
        <time>2022-04-30T09:57:17Z</time>
      </trkpt>
      <trkpt lat="41.79199" lon="9.21069">
        <ele>1029.71</ele>
        <time>2022-04-30T09:57:29Z</time>
      </trkpt>
      <trkpt lat="41.792" lon="9.2107">
        <ele>1030.19</ele>
        <time>2022-04-30T09:57:46Z</time>
      </trkpt>
      <trkpt lat="41.79193" lon="9.21073">
        <ele>1032.11</ele>
        <time>2022-04-30T09:58:01Z</time>
      </trkpt>
      <trkpt lat="41.79186" lon="9.21074">
        <ele>1034.04</ele>
        <time>2022-04-30T09:58:17Z</time>
      </trkpt>
      <trkpt lat="41.79183" lon="9.21077">
        <ele>1033.55</ele>
        <time>2022-04-30T09:58:38Z</time>
      </trkpt>
      <trkpt lat="41.79181" lon="9.21073">
        <ele>1033.07</ele>
        <time>2022-04-30T09:58:58Z</time>
      </trkpt>
      <trkpt lat="41.79179" lon="9.21075">
        <ele>1033.07</ele>
        <time>2022-04-30T09:59:17Z</time>
      </trkpt>
      <trkpt lat="41.79177" lon="9.2108">
        <ele>1032.11</ele>
        <time>2022-04-30T09:59:26Z</time>
      </trkpt>
      <trkpt lat="41.7917" lon="9.21095">
        <ele>1033.55</ele>
        <time>2022-04-30T09:59:41Z</time>
      </trkpt>
      <trkpt lat="41.79164" lon="9.21095">
        <ele>1033.55</ele>
        <time>2022-04-30T09:59:56Z</time>
      </trkpt>
      <trkpt lat="41.79163" lon="9.21094">
        <ele>1033.07</ele>
        <time>2022-04-30T10:00:12Z</time>
      </trkpt>
      <trkpt lat="41.79161" lon="9.21093">
        <ele>1032.59</ele>
        <time>2022-04-30T10:00:34Z</time>
      </trkpt>
      <trkpt lat="41.79154" lon="9.21105">
        <ele>1033.07</ele>
        <time>2022-04-30T10:00:47Z</time>
      </trkpt>
      <trkpt lat="41.79143" lon="9.21114">
        <ele>1034.52</ele>
        <time>2022-04-30T10:01:01Z</time>
      </trkpt>
      <trkpt lat="41.79136" lon="9.21121">
        <ele>1036.92</ele>
        <time>2022-04-30T10:01:14Z</time>
      </trkpt>
      <trkpt lat="41.79129" lon="9.21128">
        <ele>1038.36</ele>
        <time>2022-04-30T10:01:30Z</time>
      </trkpt>
      <trkpt lat="41.79128" lon="9.21138">
        <ele>1039.8</ele>
        <time>2022-04-30T10:01:46Z</time>
      </trkpt>
      <trkpt lat="41.79126" lon="9.21141">
        <ele>1039.8</ele>
        <time>2022-04-30T10:01:49Z</time>
      </trkpt>
      <trkpt lat="41.79131" lon="9.21162">
        <ele>1039.8</ele>
        <time>2022-04-30T10:02:04Z</time>
      </trkpt>
      <trkpt lat="41.7914" lon="9.21188">
        <ele>1040.76</ele>
        <time>2022-04-30T10:02:22Z</time>
      </trkpt>
      <trkpt lat="41.79148" lon="9.21208">
        <ele>1042.21</ele>
        <time>2022-04-30T10:02:40Z</time>
      </trkpt>
      <trkpt lat="41.79152" lon="9.21231">
        <ele>1043.65</ele>
        <time>2022-04-30T10:02:59Z</time>
      </trkpt>
      <trkpt lat="41.7916" lon="9.21258">
        <ele>1046.05</ele>
        <time>2022-04-30T10:03:20Z</time>
      </trkpt>
      <trkpt lat="41.79171" lon="9.21274">
        <ele>1047.49</ele>
        <time>2022-04-30T10:03:37Z</time>
      </trkpt>
      <trkpt lat="41.79179" lon="9.21282">
        <ele>1046.53</ele>
        <time>2022-04-30T10:03:52Z</time>
      </trkpt>
      <trkpt lat="41.79191" lon="9.21289">
        <ele>1044.61</ele>
        <time>2022-04-30T10:04:09Z</time>
      </trkpt>
      <trkpt lat="41.79194" lon="9.21297">
        <ele>1044.61</ele>
        <time>2022-04-30T10:04:24Z</time>
      </trkpt>
      <trkpt lat="41.79194" lon="9.21299">
        <ele>1044.61</ele>
        <time>2022-04-30T10:04:26Z</time>
      </trkpt>
      <trkpt lat="41.79196" lon="9.21301">
        <ele>1043.65</ele>
        <time>2022-04-30T10:04:28Z</time>
      </trkpt>
      <trkpt lat="41.79206" lon="9.21306">
        <ele>1044.61</ele>
        <time>2022-04-30T10:04:42Z</time>
      </trkpt>
      <trkpt lat="41.79217" lon="9.21316">
        <ele>1043.17</ele>
        <time>2022-04-30T10:04:56Z</time>
      </trkpt>
      <trkpt lat="41.79228" lon="9.21335">
        <ele>1044.13</ele>
        <time>2022-04-30T10:05:13Z</time>
      </trkpt>
      <trkpt lat="41.79237" lon="9.21345">
        <ele>1047.01</ele>
        <time>2022-04-30T10:05:30Z</time>
      </trkpt>
      <trkpt lat="41.79241" lon="9.21358">
        <ele>1047.49</ele>
        <time>2022-04-30T10:05:47Z</time>
      </trkpt>
      <trkpt lat="41.79247" lon="9.21368">
        <ele>1048.45</ele>
        <time>2022-04-30T10:06:00Z</time>
      </trkpt>
      <trkpt lat="41.79249" lon="9.21373">
        <ele>1048.94</ele>
        <time>2022-04-30T10:06:06Z</time>
      </trkpt>
      <trkpt lat="41.7925" lon="9.21382">
        <ele>1048.94</ele>
        <time>2022-04-30T10:06:13Z</time>
      </trkpt>
      <trkpt lat="41.79255" lon="9.21399">
        <ele>1049.42</ele>
        <time>2022-04-30T10:06:26Z</time>
      </trkpt>
      <trkpt lat="41.79265" lon="9.21405">
        <ele>1050.38</ele>
        <time>2022-04-30T10:06:40Z</time>
      </trkpt>
      <trkpt lat="41.79274" lon="9.21409">
        <ele>1051.82</ele>
        <time>2022-04-30T10:06:54Z</time>
      </trkpt>
      <trkpt lat="41.79281" lon="9.21424">
        <ele>1053.26</ele>
        <time>2022-04-30T10:07:09Z</time>
      </trkpt>
      <trkpt lat="41.79282" lon="9.21426">
        <ele>1053.74</ele>
        <time>2022-04-30T10:07:11Z</time>
      </trkpt>
      <trkpt lat="41.79284" lon="9.21438">
        <ele>1053.26</ele>
        <time>2022-04-30T10:07:26Z</time>
      </trkpt>
      <trkpt lat="41.79285" lon="9.21439">
        <ele>1053.74</ele>
        <time>2022-04-30T10:07:27Z</time>
      </trkpt>
      <trkpt lat="41.79292" lon="9.21449">
        <ele>1053.26</ele>
        <time>2022-04-30T10:07:39Z</time>
      </trkpt>
      <trkpt lat="41.79298" lon="9.2146">
        <ele>1055.18</ele>
        <time>2022-04-30T10:07:52Z</time>
      </trkpt>
      <trkpt lat="41.793" lon="9.21466">
        <ele>1056.63</ele>
        <time>2022-04-30T10:08:00Z</time>
      </trkpt>
      <trkpt lat="41.79306" lon="9.21483">
        <ele>1056.63</ele>
        <time>2022-04-30T10:08:16Z</time>
      </trkpt>
      <trkpt lat="41.79306" lon="9.21484">
        <ele>1056.63</ele>
        <time>2022-04-30T10:08:17Z</time>
      </trkpt>
      <trkpt lat="41.79309" lon="9.21495">
        <ele>1057.11</ele>
        <time>2022-04-30T10:08:31Z</time>
      </trkpt>
      <trkpt lat="41.79306" lon="9.21501">
        <ele>1055.18</ele>
        <time>2022-04-30T10:08:38Z</time>
      </trkpt>
      <trkpt lat="41.79302" lon="9.21518">
        <ele>1054.22</ele>
        <time>2022-04-30T10:08:53Z</time>
      </trkpt>
      <trkpt lat="41.793" lon="9.21534">
        <ele>1055.18</ele>
        <time>2022-04-30T10:09:07Z</time>
      </trkpt>
      <trkpt lat="41.79295" lon="9.21546">
        <ele>1056.15</ele>
        <time>2022-04-30T10:09:20Z</time>
      </trkpt>
      <trkpt lat="41.79294" lon="9.21556">
        <ele>1058.07</ele>
        <time>2022-04-30T10:09:35Z</time>
      </trkpt>
      <trkpt lat="41.79295" lon="9.21568">
        <ele>1059.99</ele>
        <time>2022-04-30T10:09:46Z</time>
      </trkpt>
      <trkpt lat="41.79299" lon="9.21584">
        <ele>1060.95</ele>
        <time>2022-04-30T10:10:00Z</time>
      </trkpt>
      <trkpt lat="41.79299" lon="9.21597">
        <ele>1062.39</ele>
        <time>2022-04-30T10:10:14Z</time>
      </trkpt>
      <trkpt lat="41.79299" lon="9.21606">
        <ele>1063.84</ele>
        <time>2022-04-30T10:10:30Z</time>
      </trkpt>
      <trkpt lat="41.79301" lon="9.2161">
        <ele>1064.8</ele>
        <time>2022-04-30T10:10:54Z</time>
      </trkpt>
      <trkpt lat="41.793" lon="9.21621">
        <ele>1066.24</ele>
        <time>2022-04-30T10:11:06Z</time>
      </trkpt>
      <trkpt lat="41.79307" lon="9.21628">
        <ele>1068.64</ele>
        <time>2022-04-30T10:11:21Z</time>
      </trkpt>
      <trkpt lat="41.79314" lon="9.21639">
        <ele>1070.08</ele>
        <time>2022-04-30T10:11:37Z</time>
      </trkpt>
      <trkpt lat="41.79321" lon="9.21646">
        <ele>1072.97</ele>
        <time>2022-04-30T10:11:52Z</time>
      </trkpt>
      <trkpt lat="41.79332" lon="9.21651">
        <ele>1076.33</ele>
        <time>2022-04-30T10:12:07Z</time>
      </trkpt>
      <trkpt lat="41.79344" lon="9.21659">
        <ele>1074.41</ele>
        <time>2022-04-30T10:12:21Z</time>
      </trkpt>
      <trkpt lat="41.79352" lon="9.21662">
        <ele>1076.33</ele>
        <time>2022-04-30T10:12:35Z</time>
      </trkpt>
      <trkpt lat="41.79364" lon="9.21666">
        <ele>1079.7</ele>
        <time>2022-04-30T10:12:51Z</time>
      </trkpt>
      <trkpt lat="41.79376" lon="9.21674">
        <ele>1079.7</ele>
        <time>2022-04-30T10:13:07Z</time>
      </trkpt>
      <trkpt lat="41.79377" lon="9.21676">
        <ele>1081.14</ele>
        <time>2022-04-30T10:13:10Z</time>
      </trkpt>
      <trkpt lat="41.79379" lon="9.21675">
        <ele>1081.14</ele>
        <time>2022-04-30T10:13:14Z</time>
      </trkpt>
      <trkpt lat="41.79387" lon="9.21682">
        <ele>1081.62</ele>
        <time>2022-04-30T10:13:27Z</time>
      </trkpt>
      <trkpt lat="41.79393" lon="9.21689">
        <ele>1083.06</ele>
        <time>2022-04-30T10:13:40Z</time>
      </trkpt>
      <trkpt lat="41.79403" lon="9.21701">
        <ele>1084.02</ele>
        <time>2022-04-30T10:13:55Z</time>
      </trkpt>
      <trkpt lat="41.79411" lon="9.21706">
        <ele>1085.95</ele>
        <time>2022-04-30T10:14:08Z</time>
      </trkpt>
      <trkpt lat="41.79419" lon="9.21712">
        <ele>1086.91</ele>
        <time>2022-04-30T10:14:22Z</time>
      </trkpt>
      <trkpt lat="41.7943" lon="9.21715">
        <ele>1087.87</ele>
        <time>2022-04-30T10:14:43Z</time>
      </trkpt>
      <trkpt lat="41.79438" lon="9.21716">
        <ele>1086.43</ele>
        <time>2022-04-30T10:15:01Z</time>
      </trkpt>
      <trkpt lat="41.79449" lon="9.21723">
        <ele>1087.39</ele>
        <time>2022-04-30T10:15:16Z</time>
      </trkpt>
      <trkpt lat="41.79463" lon="9.21732">
        <ele>1086.91</ele>
        <time>2022-04-30T10:15:32Z</time>
      </trkpt>
      <trkpt lat="41.7947" lon="9.21742">
        <ele>1085.95</ele>
        <time>2022-04-30T10:15:44Z</time>
      </trkpt>
      <trkpt lat="41.79472" lon="9.21751">
        <ele>1084.02</ele>
        <time>2022-04-30T10:15:57Z</time>
      </trkpt>
      <trkpt lat="41.79468" lon="9.21754">
        <ele>1084.99</ele>
        <time>2022-04-30T10:16:16Z</time>
      </trkpt>
      <trkpt lat="41.79467" lon="9.21761">
        <ele>1084.02</ele>
        <time>2022-04-30T10:16:29Z</time>
      </trkpt>
      <trkpt lat="41.79471" lon="9.21762">
        <ele>1084.5</ele>
        <time>2022-04-30T10:16:35Z</time>
      </trkpt>
      <trkpt lat="41.79473" lon="9.2177">
        <ele>1085.47</ele>
        <time>2022-04-30T10:16:50Z</time>
      </trkpt>
      <trkpt lat="41.79474" lon="9.21782">
        <ele>1088.83</ele>
        <time>2022-04-30T10:17:02Z</time>
      </trkpt>
      <trkpt lat="41.79475" lon="9.21783">
        <ele>1089.31</ele>
        <time>2022-04-30T10:17:04Z</time>
      </trkpt>
      <trkpt lat="41.79475" lon="9.21789">
        <ele>1088.35</ele>
        <time>2022-04-30T10:17:08Z</time>
      </trkpt>
      <trkpt lat="41.79476" lon="9.21806">
        <ele>1088.35</ele>
        <time>2022-04-30T10:17:22Z</time>
      </trkpt>
      <trkpt lat="41.79473" lon="9.21818">
        <ele>1088.83</ele>
        <time>2022-04-30T10:17:36Z</time>
      </trkpt>
      <trkpt lat="41.7947" lon="9.21827">
        <ele>1089.31</ele>
        <time>2022-04-30T10:17:48Z</time>
      </trkpt>
      <trkpt lat="41.79468" lon="9.21829">
        <ele>1087.87</ele>
        <time>2022-04-30T10:18:14Z</time>
      </trkpt>
      <trkpt lat="41.79471" lon="9.21843">
        <ele>1088.35</ele>
        <time>2022-04-30T10:18:29Z</time>
      </trkpt>
      <trkpt lat="41.79478" lon="9.21855">
        <ele>1089.31</ele>
        <time>2022-04-30T10:18:43Z</time>
      </trkpt>
      <trkpt lat="41.79484" lon="9.21864">
        <ele>1091.23</ele>
        <time>2022-04-30T10:18:56Z</time>
      </trkpt>
      <trkpt lat="41.79487" lon="9.21868">
        <ele>1092.68</ele>
        <time>2022-04-30T10:19:10Z</time>
      </trkpt>
      <trkpt lat="41.79492" lon="9.21874">
        <ele>1094.6</ele>
        <time>2022-04-30T10:19:23Z</time>
      </trkpt>
      <trkpt lat="41.79497" lon="9.21881">
        <ele>1096.04</ele>
        <time>2022-04-30T10:19:38Z</time>
      </trkpt>
      <trkpt lat="41.79504" lon="9.21891">
        <ele>1097.48</ele>
        <time>2022-04-30T10:19:52Z</time>
      </trkpt>
      <trkpt lat="41.79509" lon="9.21901">
        <ele>1100.85</ele>
        <time>2022-04-30T10:20:07Z</time>
      </trkpt>
      <trkpt lat="41.79515" lon="9.21906">
        <ele>1103.25</ele>
        <time>2022-04-30T10:20:23Z</time>
      </trkpt>
      <trkpt lat="41.79519" lon="9.21907">
        <ele>1105.65</ele>
        <time>2022-04-30T10:20:36Z</time>
      </trkpt>
      <trkpt lat="41.79519" lon="9.21905">
        <ele>1105.65</ele>
        <time>2022-04-30T10:20:48Z</time>
      </trkpt>
      <trkpt lat="41.79522" lon="9.21919">
        <ele>1107.58</ele>
        <time>2022-04-30T10:21:05Z</time>
      </trkpt>
      <trkpt lat="41.79528" lon="9.2192">
        <ele>1110.46</ele>
        <time>2022-04-30T10:21:22Z</time>
      </trkpt>
      <trkpt lat="41.79532" lon="9.21929">
        <ele>1112.86</ele>
        <time>2022-04-30T10:21:37Z</time>
      </trkpt>
      <trkpt lat="41.79536" lon="9.21934">
        <ele>1116.23</ele>
        <time>2022-04-30T10:21:48Z</time>
      </trkpt>
      <trkpt lat="41.7954" lon="9.2193">
        <ele>1114.79</ele>
        <time>2022-04-30T10:21:53Z</time>
      </trkpt>
      <trkpt lat="41.79543" lon="9.21933">
        <ele>1117.67</ele>
        <time>2022-04-30T10:22:07Z</time>
      </trkpt>
      <trkpt lat="41.79543" lon="9.21924">
        <ele>1119.11</ele>
        <time>2022-04-30T10:22:22Z</time>
      </trkpt>
      <trkpt lat="41.79544" lon="9.21923">
        <ele>1119.59</ele>
        <time>2022-04-30T10:22:24Z</time>
      </trkpt>
      <trkpt lat="41.79545" lon="9.21912">
        <ele>1117.67</ele>
        <time>2022-04-30T10:22:39Z</time>
      </trkpt>
      <trkpt lat="41.79545" lon="9.21909">
        <ele>1121.52</ele>
        <time>2022-04-30T10:22:53Z</time>
      </trkpt>
      <trkpt lat="41.79553" lon="9.21919">
        <ele>1122.48</ele>
        <time>2022-04-30T10:23:09Z</time>
      </trkpt>
      <trkpt lat="41.79557" lon="9.21919">
        <ele>1125.84</ele>
        <time>2022-04-30T10:23:22Z</time>
      </trkpt>
      <trkpt lat="41.79563" lon="9.21923">
        <ele>1128.73</ele>
        <time>2022-04-30T10:23:36Z</time>
      </trkpt>
      <trkpt lat="41.79568" lon="9.21934">
        <ele>1130.65</ele>
        <time>2022-04-30T10:23:52Z</time>
      </trkpt>
      <trkpt lat="41.79573" lon="9.2194">
        <ele>1133.05</ele>
        <time>2022-04-30T10:24:09Z</time>
      </trkpt>
      <trkpt lat="41.79576" lon="9.21942">
        <ele>1135.45</ele>
        <time>2022-04-30T10:24:20Z</time>
      </trkpt>
      <trkpt lat="41.79581" lon="9.21944">
        <ele>1137.86</ele>
        <time>2022-04-30T10:24:32Z</time>
      </trkpt>
      <trkpt lat="41.79584" lon="9.21954">
        <ele>1138.82</ele>
        <time>2022-04-30T10:24:47Z</time>
      </trkpt>
      <trkpt lat="41.7958" lon="9.21957">
        <ele>1138.34</ele>
        <time>2022-04-30T10:25:05Z</time>
      </trkpt>
      <trkpt lat="41.7958" lon="9.21956">
        <ele>1138.82</ele>
        <time>2022-04-30T10:25:35Z</time>
      </trkpt>
      <trkpt lat="41.79579" lon="9.21958">
        <ele>1139.3</ele>
        <time>2022-04-30T10:25:55Z</time>
      </trkpt>
      <trkpt lat="41.79579" lon="9.21957">
        <ele>1139.3</ele>
        <time>2022-04-30T10:26:25Z</time>
      </trkpt>
      <trkpt lat="41.79584" lon="9.2196">
        <ele>1139.78</ele>
        <time>2022-04-30T10:26:48Z</time>
      </trkpt>
      <trkpt lat="41.7959" lon="9.21966">
        <ele>1142.18</ele>
        <time>2022-04-30T10:27:03Z</time>
      </trkpt>
      <trkpt lat="41.79594" lon="9.21974">
        <ele>1145.55</ele>
        <time>2022-04-30T10:27:20Z</time>
      </trkpt>
      <trkpt lat="41.79596" lon="9.21987">
        <ele>1146.51</ele>
        <time>2022-04-30T10:27:34Z</time>
      </trkpt>
      <trkpt lat="41.79598" lon="9.21994">
        <ele>1149.87</ele>
        <time>2022-04-30T10:27:48Z</time>
      </trkpt>
      <trkpt lat="41.79603" lon="9.21992">
        <ele>1152.28</ele>
        <time>2022-04-30T10:28:02Z</time>
      </trkpt>
      <trkpt lat="41.79609" lon="9.21999">
        <ele>1155.64</ele>
        <time>2022-04-30T10:28:19Z</time>
      </trkpt>
      <trkpt lat="41.79617" lon="9.22011">
        <ele>1158.05</ele>
        <time>2022-04-30T10:28:37Z</time>
      </trkpt>
      <trkpt lat="41.79619" lon="9.22017">
        <ele>1159.01</ele>
        <time>2022-04-30T10:28:50Z</time>
      </trkpt>
      <trkpt lat="41.79628" lon="9.22029">
        <ele>1157.56</ele>
        <time>2022-04-30T10:29:04Z</time>
      </trkpt>
      <trkpt lat="41.7963" lon="9.22031">
        <ele>1158.53</ele>
        <time>2022-04-30T10:29:07Z</time>
      </trkpt>
      <trkpt lat="41.79635" lon="9.22044">
        <ele>1159.01</ele>
        <time>2022-04-30T10:29:20Z</time>
      </trkpt>
      <trkpt lat="41.79639" lon="9.2206">
        <ele>1159.01</ele>
        <time>2022-04-30T10:29:33Z</time>
      </trkpt>
      <trkpt lat="41.79646" lon="9.22068">
        <ele>1160.93</ele>
        <time>2022-04-30T10:29:48Z</time>
      </trkpt>
      <trkpt lat="41.7965" lon="9.22074">
        <ele>1162.37</ele>
        <time>2022-04-30T10:30:02Z</time>
      </trkpt>
      <trkpt lat="41.79655" lon="9.22079">
        <ele>1164.77</ele>
        <time>2022-04-30T10:30:16Z</time>
      </trkpt>
      <trkpt lat="41.79661" lon="9.22087">
        <ele>1167.66</ele>
        <time>2022-04-30T10:30:31Z</time>
      </trkpt>
      <trkpt lat="41.79669" lon="9.22094">
        <ele>1171.02</ele>
        <time>2022-04-30T10:30:49Z</time>
      </trkpt>
      <trkpt lat="41.79672" lon="9.221">
        <ele>1172.95</ele>
        <time>2022-04-30T10:31:09Z</time>
      </trkpt>
      <trkpt lat="41.79675" lon="9.22102">
        <ele>1174.39</ele>
        <time>2022-04-30T10:31:12Z</time>
      </trkpt>
      <trkpt lat="41.79679" lon="9.22111">
        <ele>1174.87</ele>
        <time>2022-04-30T10:31:30Z</time>
      </trkpt>
      <trkpt lat="41.79681" lon="9.22128">
        <ele>1177.75</ele>
        <time>2022-04-30T10:31:50Z</time>
      </trkpt>
      <trkpt lat="41.79685" lon="9.22135">
        <ele>1181.12</ele>
        <time>2022-04-30T10:32:09Z</time>
      </trkpt>
      <trkpt lat="41.79689" lon="9.2214">
        <ele>1184.48</ele>
        <time>2022-04-30T10:32:27Z</time>
      </trkpt>
      <trkpt lat="41.7969" lon="9.22153">
        <ele>1184.96</ele>
        <time>2022-04-30T10:32:45Z</time>
      </trkpt>
      <trkpt lat="41.79688" lon="9.22159">
        <ele>1185.92</ele>
        <time>2022-04-30T10:33:01Z</time>
      </trkpt>
      <trkpt lat="41.79691" lon="9.22177">
        <ele>1188.81</ele>
        <time>2022-04-30T10:33:16Z</time>
      </trkpt>
      <trkpt lat="41.79696" lon="9.22188">
        <ele>1192.17</ele>
        <time>2022-04-30T10:33:35Z</time>
      </trkpt>
      <trkpt lat="41.79702" lon="9.22208">
        <ele>1194.09</ele>
        <time>2022-04-30T10:33:56Z</time>
      </trkpt>
      <trkpt lat="41.79699" lon="9.22218">
        <ele>1196.98</ele>
        <time>2022-04-30T10:34:09Z</time>
      </trkpt>
      <trkpt lat="41.79697" lon="9.22235">
        <ele>1197.94</ele>
        <time>2022-04-30T10:34:25Z</time>
      </trkpt>
      <trkpt lat="41.79694" lon="9.22254">
        <ele>1200.34</ele>
        <time>2022-04-30T10:34:42Z</time>
      </trkpt>
      <trkpt lat="41.7969" lon="9.22268">
        <ele>1202.27</ele>
        <time>2022-04-30T10:34:57Z</time>
      </trkpt>
      <trkpt lat="41.79685" lon="9.22284">
        <ele>1203.23</ele>
        <time>2022-04-30T10:35:13Z</time>
      </trkpt>
      <trkpt lat="41.79683" lon="9.22291">
        <ele>1206.59</ele>
        <time>2022-04-30T10:35:22Z</time>
      </trkpt>
      <trkpt lat="41.79681" lon="9.22295">
        <ele>1203.23</ele>
        <time>2022-04-30T10:35:26Z</time>
      </trkpt>
      <trkpt lat="41.79672" lon="9.22313">
        <ele>1205.63</ele>
        <time>2022-04-30T10:35:42Z</time>
      </trkpt>
      <trkpt lat="41.79657" lon="9.22329">
        <ele>1205.63</ele>
        <time>2022-04-30T10:35:58Z</time>
      </trkpt>
      <trkpt lat="41.79645" lon="9.22342">
        <ele>1205.63</ele>
        <time>2022-04-30T10:36:11Z</time>
      </trkpt>
      <trkpt lat="41.7964" lon="9.2235">
        <ele>1206.11</ele>
        <time>2022-04-30T10:36:18Z</time>
      </trkpt>
      <trkpt lat="41.79625" lon="9.22366">
        <ele>1209</ele>
        <time>2022-04-30T10:36:33Z</time>
      </trkpt>
      <trkpt lat="41.79621" lon="9.22372">
        <ele>1210.44</ele>
        <time>2022-04-30T10:36:38Z</time>
      </trkpt>
      <trkpt lat="41.79618" lon="9.2238">
        <ele>1210.92</ele>
        <time>2022-04-30T10:36:44Z</time>
      </trkpt>
      <trkpt lat="41.79613" lon="9.22385">
        <ele>1209.96</ele>
        <time>2022-04-30T10:36:50Z</time>
      </trkpt>
      <trkpt lat="41.79603" lon="9.22403">
        <ele>1211.88</ele>
        <time>2022-04-30T10:37:05Z</time>
      </trkpt>
      <trkpt lat="41.79596" lon="9.22417">
        <ele>1213.8</ele>
        <time>2022-04-30T10:37:21Z</time>
      </trkpt>
      <trkpt lat="41.79595" lon="9.22424">
        <ele>1215.24</ele>
        <time>2022-04-30T10:37:27Z</time>
      </trkpt>
      <trkpt lat="41.79594" lon="9.22434">
        <ele>1215.24</ele>
        <time>2022-04-30T10:37:35Z</time>
      </trkpt>
      <trkpt lat="41.79593" lon="9.22438">
        <ele>1216.21</ele>
        <time>2022-04-30T10:37:38Z</time>
      </trkpt>
      <trkpt lat="41.79594" lon="9.22445">
        <ele>1216.21</ele>
        <time>2022-04-30T10:37:43Z</time>
      </trkpt>
      <trkpt lat="41.79596" lon="9.22448">
        <ele>1216.69</ele>
        <time>2022-04-30T10:37:58Z</time>
      </trkpt>
      <trkpt lat="41.79606" lon="9.2246">
        <ele>1217.17</ele>
        <time>2022-04-30T10:38:15Z</time>
      </trkpt>
      <trkpt lat="41.79606" lon="9.22465">
        <ele>1218.13</ele>
        <time>2022-04-30T10:38:21Z</time>
      </trkpt>
      <trkpt lat="41.79604" lon="9.22492">
        <ele>1217.65</ele>
        <time>2022-04-30T10:38:38Z</time>
      </trkpt>
      <trkpt lat="41.79605" lon="9.22505">
        <ele>1216.69</ele>
        <time>2022-04-30T10:38:48Z</time>
      </trkpt>
      <trkpt lat="41.79595" lon="9.22511">
        <ele>1216.69</ele>
        <time>2022-04-30T10:38:58Z</time>
      </trkpt>
      <trkpt lat="41.79592" lon="9.22515">
        <ele>1217.17</ele>
        <time>2022-04-30T10:39:02Z</time>
      </trkpt>
      <trkpt lat="41.79594" lon="9.22545">
        <ele>1214.28</ele>
        <time>2022-04-30T10:39:20Z</time>
      </trkpt>
      <trkpt lat="41.79601" lon="9.22558">
        <ele>1212.36</ele>
        <time>2022-04-30T10:39:33Z</time>
      </trkpt>
      <trkpt lat="41.79602" lon="9.22559">
        <ele>1212.84</ele>
        <time>2022-04-30T10:39:34Z</time>
      </trkpt>
      <trkpt lat="41.79608" lon="9.22577">
        <ele>1210.92</ele>
        <time>2022-04-30T10:39:49Z</time>
      </trkpt>
      <trkpt lat="41.79614" lon="9.22587">
        <ele>1209.48</ele>
        <time>2022-04-30T10:40:04Z</time>
      </trkpt>
      <trkpt lat="41.79618" lon="9.22596">
        <ele>1209.48</ele>
        <time>2022-04-30T10:40:19Z</time>
      </trkpt>
      <trkpt lat="41.79614" lon="9.22606">
        <ele>1209.48</ele>
        <time>2022-04-30T10:40:33Z</time>
      </trkpt>
      <trkpt lat="41.79611" lon="9.22606">
        <ele>1209.96</ele>
        <time>2022-04-30T10:40:52Z</time>
      </trkpt>
      <trkpt lat="41.79613" lon="9.22611">
        <ele>1209.96</ele>
        <time>2022-04-30T10:41:19Z</time>
      </trkpt>
      <trkpt lat="41.79613" lon="9.2261">
        <ele>1209.48</ele>
        <time>2022-04-30T10:41:44Z</time>
      </trkpt>
      <trkpt lat="41.79615" lon="9.22614">
        <ele>1210.44</ele>
        <time>2022-04-30T10:42:10Z</time>
      </trkpt>
      <trkpt lat="41.79614" lon="9.22614">
        <ele>1209.48</ele>
        <time>2022-04-30T10:42:11Z</time>
      </trkpt>
      <trkpt lat="41.79615" lon="9.22614">
        <ele>1198.9</ele>
        <time>2022-04-30T12:08:09Z</time>
      </trkpt>
      <trkpt lat="41.79616" lon="9.22585">
        <ele>1198.9</ele>
        <time>2022-04-30T12:08:10Z</time>
      </trkpt>
      <trkpt lat="41.79609" lon="9.22584">
        <ele>1200.34</ele>
        <time>2022-04-30T12:08:38Z</time>
      </trkpt>
      <trkpt lat="41.79611" lon="9.22581">
        <ele>1203.71</ele>
        <time>2022-04-30T12:08:56Z</time>
      </trkpt>
      <trkpt lat="41.79612" lon="9.22581">
        <ele>1203.23</ele>
        <time>2022-04-30T12:09:24Z</time>
      </trkpt>
      <trkpt lat="41.79613" lon="9.22582">
        <ele>1204.19</ele>
        <time>2022-04-30T12:09:51Z</time>
      </trkpt>
      <trkpt lat="41.79611" lon="9.22573">
        <ele>1205.15</ele>
        <time>2022-04-30T12:10:03Z</time>
      </trkpt>
      <trkpt lat="41.7961" lon="9.22565">
        <ele>1205.63</ele>
        <time>2022-04-30T12:10:15Z</time>
      </trkpt>
      <trkpt lat="41.79607" lon="9.22563">
        <ele>1206.59</ele>
        <time>2022-04-30T12:10:30Z</time>
      </trkpt>
      <trkpt lat="41.79607" lon="9.22557">
        <ele>1206.59</ele>
        <time>2022-04-30T12:10:44Z</time>
      </trkpt>
      <trkpt lat="41.79607" lon="9.22559">
        <ele>1208.51</ele>
        <time>2022-04-30T12:10:59Z</time>
      </trkpt>
      <trkpt lat="41.79607" lon="9.22563">
        <ele>1209</ele>
        <time>2022-04-30T12:11:18Z</time>
      </trkpt>
      <trkpt lat="41.79606" lon="9.22564">
        <ele>1208.03</ele>
        <time>2022-04-30T12:11:35Z</time>
      </trkpt>
      <trkpt lat="41.79595" lon="9.22556">
        <ele>1209.96</ele>
        <time>2022-04-30T12:11:51Z</time>
      </trkpt>
      <trkpt lat="41.79588" lon="9.22559">
        <ele>1210.92</ele>
        <time>2022-04-30T12:12:07Z</time>
      </trkpt>
      <trkpt lat="41.79583" lon="9.22568">
        <ele>1210.92</ele>
        <time>2022-04-30T12:12:22Z</time>
      </trkpt>
      <trkpt lat="41.79577" lon="9.22582">
        <ele>1212.36</ele>
        <time>2022-04-30T12:12:36Z</time>
      </trkpt>
      <trkpt lat="41.79573" lon="9.22598">
        <ele>1213.8</ele>
        <time>2022-04-30T12:12:53Z</time>
      </trkpt>
      <trkpt lat="41.79567" lon="9.22616">
        <ele>1214.28</ele>
        <time>2022-04-30T12:13:08Z</time>
      </trkpt>
      <trkpt lat="41.79559" lon="9.2263">
        <ele>1214.76</ele>
        <time>2022-04-30T12:13:20Z</time>
      </trkpt>
      <trkpt lat="41.79552" lon="9.22653">
        <ele>1214.76</ele>
        <time>2022-04-30T12:13:37Z</time>
      </trkpt>
      <trkpt lat="41.79543" lon="9.22668">
        <ele>1215.72</ele>
        <time>2022-04-30T12:13:49Z</time>
      </trkpt>
      <trkpt lat="41.79532" lon="9.22679">
        <ele>1215.72</ele>
        <time>2022-04-30T12:14:05Z</time>
      </trkpt>
      <trkpt lat="41.79521" lon="9.2269">
        <ele>1212.84</ele>
        <time>2022-04-30T12:14:20Z</time>
      </trkpt>
      <trkpt lat="41.79506" lon="9.22707">
        <ele>1211.4</ele>
        <time>2022-04-30T12:14:38Z</time>
      </trkpt>
      <trkpt lat="41.79484" lon="9.22719">
        <ele>1209.96</ele>
        <time>2022-04-30T12:14:55Z</time>
      </trkpt>
      <trkpt lat="41.7947" lon="9.22735">
        <ele>1209.48</ele>
        <time>2022-04-30T12:15:11Z</time>
      </trkpt>
      <trkpt lat="41.7946" lon="9.22757">
        <ele>1209.96</ele>
        <time>2022-04-30T12:15:27Z</time>
      </trkpt>
      <trkpt lat="41.79442" lon="9.22763">
        <ele>1208.51</ele>
        <time>2022-04-30T12:15:46Z</time>
      </trkpt>
      <trkpt lat="41.79429" lon="9.2277">
        <ele>1209.48</ele>
        <time>2022-04-30T12:16:08Z</time>
      </trkpt>
      <trkpt lat="41.79443" lon="9.22766">
        <ele>1214.76</ele>
        <time>2022-04-30T12:19:04Z</time>
      </trkpt>
      <trkpt lat="41.79301" lon="9.22799">
        <ele>1214.76</ele>
        <time>2022-04-30T12:19:05Z</time>
      </trkpt>
      <trkpt lat="41.79306" lon="9.228">
        <ele>1210.44</ele>
        <time>2022-04-30T12:19:06Z</time>
      </trkpt>
      <trkpt lat="41.79307" lon="9.22803">
        <ele>1217.17</ele>
        <time>2022-04-30T12:19:07Z</time>
      </trkpt>
      <trkpt lat="41.79309" lon="9.22802">
        <ele>1218.61</ele>
        <time>2022-04-30T12:19:21Z</time>
      </trkpt>
      <trkpt lat="41.79309" lon="9.22802">
        <ele>1221.49</ele>
        <time>2022-04-30T12:19:25Z</time>
      </trkpt>
      <trkpt lat="41.7931" lon="9.22803">
        <ele>1224.86</ele>
        <time>2022-04-30T12:19:30Z</time>
      </trkpt>
      <trkpt lat="41.79311" lon="9.22804">
        <ele>1225.82</ele>
        <time>2022-04-30T12:19:33Z</time>
      </trkpt>
      <trkpt lat="41.79313" lon="9.22803">
        <ele>1229.18</ele>
        <time>2022-04-30T12:19:39Z</time>
      </trkpt>
      <trkpt lat="41.79315" lon="9.22805">
        <ele>1230.62</ele>
        <time>2022-04-30T12:19:42Z</time>
      </trkpt>
      <trkpt lat="41.79316" lon="9.22807">
        <ele>1232.55</ele>
        <time>2022-04-30T12:19:44Z</time>
      </trkpt>
      <trkpt lat="41.79314" lon="9.2281">
        <ele>1234.47</ele>
        <time>2022-04-30T12:19:49Z</time>
      </trkpt>
      <trkpt lat="41.79314" lon="9.22816">
        <ele>1235.91</ele>
        <time>2022-04-30T12:19:54Z</time>
      </trkpt>
      <trkpt lat="41.79304" lon="9.22818">
        <ele>1239.28</ele>
        <time>2022-04-30T12:20:05Z</time>
      </trkpt>
      <trkpt lat="41.79284" lon="9.22813">
        <ele>1242.64</ele>
        <time>2022-04-30T12:20:21Z</time>
      </trkpt>
      <trkpt lat="41.7927" lon="9.22824">
        <ele>1245.53</ele>
        <time>2022-04-30T12:20:39Z</time>
      </trkpt>
      <trkpt lat="41.79256" lon="9.2283">
        <ele>1248.41</ele>
        <time>2022-04-30T12:20:59Z</time>
      </trkpt>
      <trkpt lat="41.7925" lon="9.22833">
        <ele>1251.29</ele>
        <time>2022-04-30T12:21:15Z</time>
      </trkpt>
      <trkpt lat="41.79244" lon="9.22845">
        <ele>1252.25</ele>
        <time>2022-04-30T12:21:30Z</time>
      </trkpt>
      <trkpt lat="41.79232" lon="9.22861">
        <ele>1254.18</ele>
        <time>2022-04-30T12:21:48Z</time>
      </trkpt>
      <trkpt lat="41.79211" lon="9.22878">
        <ele>1256.1</ele>
        <time>2022-04-30T12:22:09Z</time>
      </trkpt>
      <trkpt lat="41.79191" lon="9.22887">
        <ele>1258.02</ele>
        <time>2022-04-30T12:22:29Z</time>
      </trkpt>
      <trkpt lat="41.79174" lon="9.22894">
        <ele>1259.46</ele>
        <time>2022-04-30T12:22:47Z</time>
      </trkpt>
      <trkpt lat="41.79161" lon="9.22893">
        <ele>1260.91</ele>
        <time>2022-04-30T12:23:07Z</time>
      </trkpt>
      <trkpt lat="41.79144" lon="9.22896">
        <ele>1261.87</ele>
        <time>2022-04-30T12:23:25Z</time>
      </trkpt>
      <trkpt lat="41.79125" lon="9.22898">
        <ele>1261.87</ele>
        <time>2022-04-30T12:23:43Z</time>
      </trkpt>
      <trkpt lat="41.79102" lon="9.22915">
        <ele>1263.79</ele>
        <time>2022-04-30T12:24:02Z</time>
      </trkpt>
      <trkpt lat="41.79088" lon="9.22928">
        <ele>1266.67</ele>
        <time>2022-04-30T12:24:19Z</time>
      </trkpt>
      <trkpt lat="41.7907" lon="9.22919">
        <ele>1264.75</ele>
        <time>2022-04-30T12:24:38Z</time>
      </trkpt>
      <trkpt lat="41.79057" lon="9.22903">
        <ele>1264.75</ele>
        <time>2022-04-30T12:24:56Z</time>
      </trkpt>
      <trkpt lat="41.7904" lon="9.22895">
        <ele>1264.75</ele>
        <time>2022-04-30T12:25:13Z</time>
      </trkpt>
      <trkpt lat="41.79024" lon="9.22887">
        <ele>1263.79</ele>
        <time>2022-04-30T12:25:29Z</time>
      </trkpt>
      <trkpt lat="41.79011" lon="9.22885">
        <ele>1262.35</ele>
        <time>2022-04-30T12:25:47Z</time>
      </trkpt>
      <trkpt lat="41.78993" lon="9.22877">
        <ele>1260.43</ele>
        <time>2022-04-30T12:26:04Z</time>
      </trkpt>
      <trkpt lat="41.78982" lon="9.22885">
        <ele>1259.94</ele>
        <time>2022-04-30T12:26:18Z</time>
      </trkpt>
      <trkpt lat="41.78968" lon="9.22885">
        <ele>1258.5</ele>
        <time>2022-04-30T12:26:36Z</time>
      </trkpt>
      <trkpt lat="41.7895" lon="9.22882">
        <ele>1258.5</ele>
        <time>2022-04-30T12:26:52Z</time>
      </trkpt>
      <trkpt lat="41.78932" lon="9.22878">
        <ele>1256.1</ele>
        <time>2022-04-30T12:27:09Z</time>
      </trkpt>
      <trkpt lat="41.78918" lon="9.22879">
        <ele>1256.1</ele>
        <time>2022-04-30T12:27:19Z</time>
      </trkpt>
      <trkpt lat="41.78887" lon="9.22882">
        <ele>1255.62</ele>
        <time>2022-04-30T12:27:37Z</time>
      </trkpt>
      <trkpt lat="41.78874" lon="9.22882">
        <ele>1255.14</ele>
        <time>2022-04-30T12:27:52Z</time>
      </trkpt>
      <trkpt lat="41.78857" lon="9.22882">
        <ele>1253.22</ele>
        <time>2022-04-30T12:28:08Z</time>
      </trkpt>
      <trkpt lat="41.78842" lon="9.22871">
        <ele>1253.22</ele>
        <time>2022-04-30T12:28:21Z</time>
      </trkpt>
      <trkpt lat="41.7884" lon="9.2287">
        <ele>1251.77</ele>
        <time>2022-04-30T12:28:22Z</time>
      </trkpt>
      <trkpt lat="41.78837" lon="9.2287">
        <ele>1250.33</ele>
        <time>2022-04-30T12:28:24Z</time>
      </trkpt>
      <trkpt lat="41.78822" lon="9.22859">
        <ele>1249.37</ele>
        <time>2022-04-30T12:28:39Z</time>
      </trkpt>
      <trkpt lat="41.78805" lon="9.2285">
        <ele>1249.37</ele>
        <time>2022-04-30T12:28:53Z</time>
      </trkpt>
      <trkpt lat="41.78795" lon="9.2284">
        <ele>1250.81</ele>
        <time>2022-04-30T12:29:07Z</time>
      </trkpt>
      <trkpt lat="41.78786" lon="9.2283">
        <ele>1250.33</ele>
        <time>2022-04-30T12:29:16Z</time>
      </trkpt>
      <trkpt lat="41.78776" lon="9.22815">
        <ele>1251.77</ele>
        <time>2022-04-30T12:29:29Z</time>
      </trkpt>
      <trkpt lat="41.78766" lon="9.22809">
        <ele>1252.25</ele>
        <time>2022-04-30T12:29:42Z</time>
      </trkpt>
      <trkpt lat="41.78756" lon="9.22794">
        <ele>1252.74</ele>
        <time>2022-04-30T12:29:55Z</time>
      </trkpt>
      <trkpt lat="41.78743" lon="9.22778">
        <ele>1250.81</ele>
        <time>2022-04-30T12:30:12Z</time>
      </trkpt>
      <trkpt lat="41.78729" lon="9.22785">
        <ele>1251.29</ele>
        <time>2022-04-30T12:30:31Z</time>
      </trkpt>
      <trkpt lat="41.78723" lon="9.22791">
        <ele>1254.66</ele>
        <time>2022-04-30T12:30:48Z</time>
      </trkpt>
      <trkpt lat="41.78717" lon="9.22794">
        <ele>1256.1</ele>
        <time>2022-04-30T12:31:03Z</time>
      </trkpt>
      <trkpt lat="41.78708" lon="9.22804">
        <ele>1258.5</ele>
        <time>2022-04-30T12:31:21Z</time>
      </trkpt>
      <trkpt lat="41.78701" lon="9.22807">
        <ele>1260.91</ele>
        <time>2022-04-30T12:31:42Z</time>
      </trkpt>
      <trkpt lat="41.78688" lon="9.22821">
        <ele>1264.27</ele>
        <time>2022-04-30T12:32:07Z</time>
      </trkpt>
      <trkpt lat="41.78677" lon="9.22824">
        <ele>1266.67</ele>
        <time>2022-04-30T12:32:27Z</time>
      </trkpt>
      <trkpt lat="41.78663" lon="9.2283">
        <ele>1269.56</ele>
        <time>2022-04-30T12:32:47Z</time>
      </trkpt>
      <trkpt lat="41.78649" lon="9.2283">
        <ele>1272.44</ele>
        <time>2022-04-30T12:33:07Z</time>
      </trkpt>
      <trkpt lat="41.78636" lon="9.22834">
        <ele>1275.81</ele>
        <time>2022-04-30T12:33:27Z</time>
      </trkpt>
      <trkpt lat="41.78618" lon="9.2284">
        <ele>1278.21</ele>
        <time>2022-04-30T12:33:49Z</time>
      </trkpt>
      <trkpt lat="41.78606" lon="9.22838">
        <ele>1281.57</ele>
        <time>2022-04-30T12:34:08Z</time>
      </trkpt>
      <trkpt lat="41.78594" lon="9.22837">
        <ele>1284.46</ele>
        <time>2022-04-30T12:34:24Z</time>
      </trkpt>
      <trkpt lat="41.78583" lon="9.22838">
        <ele>1286.86</ele>
        <time>2022-04-30T12:34:41Z</time>
      </trkpt>
      <trkpt lat="41.78572" lon="9.22844">
        <ele>1290.71</ele>
        <time>2022-04-30T12:34:57Z</time>
      </trkpt>
      <trkpt lat="41.7856" lon="9.22842">
        <ele>1292.63</ele>
        <time>2022-04-30T12:35:15Z</time>
      </trkpt>
      <trkpt lat="41.78544" lon="9.22834">
        <ele>1293.11</ele>
        <time>2022-04-30T12:35:32Z</time>
      </trkpt>
      <trkpt lat="41.78541" lon="9.22842">
        <ele>1293.11</ele>
        <time>2022-04-30T12:35:48Z</time>
      </trkpt>
      <trkpt lat="41.78545" lon="9.2286">
        <ele>1294.07</ele>
        <time>2022-04-30T12:36:02Z</time>
      </trkpt>
      <trkpt lat="41.78553" lon="9.2288">
        <ele>1295.99</ele>
        <time>2022-04-30T12:36:19Z</time>
      </trkpt>
      <trkpt lat="41.78554" lon="9.22896">
        <ele>1298.4</ele>
        <time>2022-04-30T12:36:34Z</time>
      </trkpt>
      <trkpt lat="41.78562" lon="9.22903">
        <ele>1300.32</ele>
        <time>2022-04-30T12:36:50Z</time>
      </trkpt>
      <trkpt lat="41.7856" lon="9.22912">
        <ele>1300.8</ele>
        <time>2022-04-30T12:37:03Z</time>
      </trkpt>
      <trkpt lat="41.7856" lon="9.22915">
        <ele>1302.24</ele>
        <time>2022-04-30T12:37:06Z</time>
      </trkpt>
      <trkpt lat="41.78567" lon="9.22922">
        <ele>1302.72</ele>
        <time>2022-04-30T12:37:20Z</time>
      </trkpt>
      <trkpt lat="41.7857" lon="9.22925">
        <ele>1303.2</ele>
        <time>2022-04-30T12:37:25Z</time>
      </trkpt>
      <trkpt lat="41.78577" lon="9.2294">
        <ele>1303.2</ele>
        <time>2022-04-30T12:37:41Z</time>
      </trkpt>
      <trkpt lat="41.7858" lon="9.22937">
        <ele>1303.2</ele>
        <time>2022-04-30T12:37:58Z</time>
      </trkpt>
      <trkpt lat="41.7858" lon="9.22932">
        <ele>1302.72</ele>
        <time>2022-04-30T12:38:24Z</time>
      </trkpt>
      <trkpt lat="41.78576" lon="9.22937">
        <ele>1303.2</ele>
        <time>2022-04-30T12:38:38Z</time>
      </trkpt>
      <trkpt lat="41.78572" lon="9.22941">
        <ele>1304.65</ele>
        <time>2022-04-30T12:38:53Z</time>
      </trkpt>
      <trkpt lat="41.7857" lon="9.22946">
        <ele>1306.09</ele>
        <time>2022-04-30T12:39:09Z</time>
      </trkpt>
      <trkpt lat="41.7857" lon="9.22949">
        <ele>1308.49</ele>
        <time>2022-04-30T12:39:23Z</time>
      </trkpt>
      <trkpt lat="41.78569" lon="9.22958">
        <ele>1308.97</ele>
        <time>2022-04-30T12:39:35Z</time>
      </trkpt>
      <trkpt lat="41.78573" lon="9.22962">
        <ele>1310.9</ele>
        <time>2022-04-30T12:39:50Z</time>
      </trkpt>
      <trkpt lat="41.78573" lon="9.22966">
        <ele>1311.38</ele>
        <time>2022-04-30T12:40:18Z</time>
      </trkpt>
      <trkpt lat="41.7857" lon="9.22958">
        <ele>1310.9</ele>
        <time>2022-04-30T12:40:42Z</time>
      </trkpt>
      <trkpt lat="41.78568" lon="9.2296">
        <ele>1309.93</ele>
        <time>2022-04-30T12:40:58Z</time>
      </trkpt>
      <trkpt lat="41.78566" lon="9.22955">
        <ele>1308.49</ele>
        <time>2022-04-30T12:41:15Z</time>
      </trkpt>
      <trkpt lat="41.78571" lon="9.22949">
        <ele>1308.01</ele>
        <time>2022-04-30T12:41:30Z</time>
      </trkpt>
      <trkpt lat="41.78568" lon="9.22945">
        <ele>1304.65</ele>
        <time>2022-04-30T12:41:47Z</time>
      </trkpt>
      <trkpt lat="41.78568" lon="9.22939">
        <ele>1304.17</ele>
        <time>2022-04-30T12:41:59Z</time>
      </trkpt>
      <trkpt lat="41.78565" lon="9.22932">
        <ele>1302.72</ele>
        <time>2022-04-30T12:42:12Z</time>
      </trkpt>
      <trkpt lat="41.78569" lon="9.2293">
        <ele>1302.24</ele>
        <time>2022-04-30T12:42:17Z</time>
      </trkpt>
      <trkpt lat="41.78575" lon="9.22917">
        <ele>1298.88</ele>
        <time>2022-04-30T12:42:30Z</time>
      </trkpt>
      <trkpt lat="41.78579" lon="9.22914">
        <ele>1298.88</ele>
        <time>2022-04-30T12:42:45Z</time>
      </trkpt>
      <trkpt lat="41.78581" lon="9.22917">
        <ele>1298.88</ele>
        <time>2022-04-30T12:43:09Z</time>
      </trkpt>
      <trkpt lat="41.78575" lon="9.22915">
        <ele>1298.4</ele>
        <time>2022-04-30T12:43:28Z</time>
      </trkpt>
      <trkpt lat="41.7857" lon="9.22913">
        <ele>1298.4</ele>
        <time>2022-04-30T12:43:46Z</time>
      </trkpt>
      <trkpt lat="41.78568" lon="9.22913">
        <ele>1299.36</ele>
        <time>2022-04-30T12:43:48Z</time>
      </trkpt>
      <trkpt lat="41.78557" lon="9.22903">
        <ele>1298.4</ele>
        <time>2022-04-30T12:44:03Z</time>
      </trkpt>
      <trkpt lat="41.78551" lon="9.22896">
        <ele>1296.96</ele>
        <time>2022-04-30T12:44:16Z</time>
      </trkpt>
      <trkpt lat="41.78548" lon="9.22884">
        <ele>1295.51</ele>
        <time>2022-04-30T12:44:26Z</time>
      </trkpt>
      <trkpt lat="41.78546" lon="9.22868">
        <ele>1293.59</ele>
        <time>2022-04-30T12:44:41Z</time>
      </trkpt>
      <trkpt lat="41.78542" lon="9.22855">
        <ele>1292.15</ele>
        <time>2022-04-30T12:44:56Z</time>
      </trkpt>
      <trkpt lat="41.78529" lon="9.22844">
        <ele>1292.15</ele>
        <time>2022-04-30T12:45:11Z</time>
      </trkpt>
      <trkpt lat="41.78524" lon="9.22843">
        <ele>1291.19</ele>
        <time>2022-04-30T12:45:34Z</time>
      </trkpt>
      <trkpt lat="41.78496" lon="9.22836">
        <ele>1290.71</ele>
        <time>2022-04-30T12:45:54Z</time>
      </trkpt>
      <trkpt lat="41.78483" lon="9.22837">
        <ele>1291.67</ele>
        <time>2022-04-30T12:46:10Z</time>
      </trkpt>
      <trkpt lat="41.78469" lon="9.22836">
        <ele>1293.11</ele>
        <time>2022-04-30T12:46:28Z</time>
      </trkpt>
      <trkpt lat="41.78449" lon="9.22835">
        <ele>1294.55</ele>
        <time>2022-04-30T12:46:45Z</time>
      </trkpt>
      <trkpt lat="41.7843" lon="9.22825">
        <ele>1295.99</ele>
        <time>2022-04-30T12:47:05Z</time>
      </trkpt>
      <trkpt lat="41.78418" lon="9.22812">
        <ele>1299.36</ele>
        <time>2022-04-30T12:47:25Z</time>
      </trkpt>
      <trkpt lat="41.78402" lon="9.22795">
        <ele>1301.28</ele>
        <time>2022-04-30T12:47:45Z</time>
      </trkpt>
      <trkpt lat="41.78385" lon="9.22786">
        <ele>1303.2</ele>
        <time>2022-04-30T12:48:08Z</time>
      </trkpt>
      <trkpt lat="41.7837" lon="9.22779">
        <ele>1305.61</ele>
        <time>2022-04-30T12:48:27Z</time>
      </trkpt>
      <trkpt lat="41.78367" lon="9.22779">
        <ele>1306.57</ele>
        <time>2022-04-30T12:48:31Z</time>
      </trkpt>
      <trkpt lat="41.78352" lon="9.22777">
        <ele>1309.45</ele>
        <time>2022-04-30T12:48:52Z</time>
      </trkpt>
      <trkpt lat="41.78335" lon="9.22772">
        <ele>1311.38</ele>
        <time>2022-04-30T12:49:10Z</time>
      </trkpt>
      <trkpt lat="41.7832" lon="9.2278">
        <ele>1314.26</ele>
        <time>2022-04-30T12:49:30Z</time>
      </trkpt>
      <trkpt lat="41.78305" lon="9.22774">
        <ele>1316.66</ele>
        <time>2022-04-30T12:49:49Z</time>
      </trkpt>
      <trkpt lat="41.78288" lon="9.22786">
        <ele>1316.18</ele>
        <time>2022-04-30T12:50:06Z</time>
      </trkpt>
      <trkpt lat="41.78286" lon="9.22789">
        <ele>1316.18</ele>
        <time>2022-04-30T12:50:08Z</time>
      </trkpt>
      <trkpt lat="41.78266" lon="9.22804">
        <ele>1316.66</ele>
        <time>2022-04-30T12:50:27Z</time>
      </trkpt>
      <trkpt lat="41.78251" lon="9.22816">
        <ele>1318.1</ele>
        <time>2022-04-30T12:50:45Z</time>
      </trkpt>
      <trkpt lat="41.78235" lon="9.22834">
        <ele>1319.07</ele>
        <time>2022-04-30T12:51:04Z</time>
      </trkpt>
      <trkpt lat="41.78216" lon="9.22849">
        <ele>1318.1</ele>
        <time>2022-04-30T12:51:21Z</time>
      </trkpt>
      <trkpt lat="41.78193" lon="9.22861">
        <ele>1317.14</ele>
        <time>2022-04-30T12:51:43Z</time>
      </trkpt>
      <trkpt lat="41.78173" lon="9.22883">
        <ele>1317.14</ele>
        <time>2022-04-30T12:52:00Z</time>
      </trkpt>
      <trkpt lat="41.78166" lon="9.22889">
        <ele>1317.62</ele>
        <time>2022-04-30T12:52:07Z</time>
      </trkpt>
      <trkpt lat="41.78146" lon="9.22897">
        <ele>1317.14</ele>
        <time>2022-04-30T12:52:23Z</time>
      </trkpt>
      <trkpt lat="41.78139" lon="9.22896">
        <ele>1316.18</ele>
        <time>2022-04-30T12:52:30Z</time>
      </trkpt>
      <trkpt lat="41.78117" lon="9.229">
        <ele>1315.22</ele>
        <time>2022-04-30T12:52:48Z</time>
      </trkpt>
      <trkpt lat="41.78101" lon="9.22904">
        <ele>1315.22</ele>
        <time>2022-04-30T12:53:03Z</time>
      </trkpt>
      <trkpt lat="41.78088" lon="9.22907">
        <ele>1315.22</ele>
        <time>2022-04-30T12:53:21Z</time>
      </trkpt>
      <trkpt lat="41.78088" lon="9.22923">
        <ele>1312.82</ele>
        <time>2022-04-30T12:53:36Z</time>
      </trkpt>
      <trkpt lat="41.78085" lon="9.22935">
        <ele>1312.82</ele>
        <time>2022-04-30T12:53:54Z</time>
      </trkpt>
      <trkpt lat="41.78084" lon="9.2293">
        <ele>1312.34</ele>
        <time>2022-04-30T12:54:26Z</time>
      </trkpt>
      <trkpt lat="41.78072" lon="9.22938">
        <ele>1311.38</ele>
        <time>2022-04-30T12:54:42Z</time>
      </trkpt>
      <trkpt lat="41.78072" lon="9.22937">
        <ele>1312.34</ele>
        <time>2022-04-30T12:54:45Z</time>
      </trkpt>
      <trkpt lat="41.78071" lon="9.22933">
        <ele>1310.9</ele>
        <time>2022-04-30T12:54:49Z</time>
      </trkpt>
      <trkpt lat="41.78063" lon="9.22922">
        <ele>1309.45</ele>
        <time>2022-04-30T12:55:03Z</time>
      </trkpt>
      <trkpt lat="41.78062" lon="9.22914">
        <ele>1308.49</ele>
        <time>2022-04-30T12:55:10Z</time>
      </trkpt>
      <trkpt lat="41.78057" lon="9.22912">
        <ele>1308.49</ele>
        <time>2022-04-30T12:55:15Z</time>
      </trkpt>
      <trkpt lat="41.78054" lon="9.22915">
        <ele>1308.01</ele>
        <time>2022-04-30T12:55:18Z</time>
      </trkpt>
      <trkpt lat="41.7805" lon="9.22913">
        <ele>1307.05</ele>
        <time>2022-04-30T12:55:20Z</time>
      </trkpt>
      <trkpt lat="41.78049" lon="9.22913">
        <ele>1307.05</ele>
        <time>2022-04-30T12:55:21Z</time>
      </trkpt>
      <trkpt lat="41.78048" lon="9.22913">
        <ele>1307.05</ele>
        <time>2022-04-30T12:55:22Z</time>
      </trkpt>
      <trkpt lat="41.78037" lon="9.22921">
        <ele>1305.13</ele>
        <time>2022-04-30T12:55:35Z</time>
      </trkpt>
      <trkpt lat="41.78026" lon="9.22921">
        <ele>1304.65</ele>
        <time>2022-04-30T12:55:52Z</time>
      </trkpt>
      <trkpt lat="41.78019" lon="9.22926">
        <ele>1302.72</ele>
        <time>2022-04-30T12:56:17Z</time>
      </trkpt>
      <trkpt lat="41.78012" lon="9.22939">
        <ele>1300.8</ele>
        <time>2022-04-30T12:56:31Z</time>
      </trkpt>
      <trkpt lat="41.78002" lon="9.22949">
        <ele>1299.36</ele>
        <time>2022-04-30T12:56:46Z</time>
      </trkpt>
      <trkpt lat="41.77988" lon="9.22952">
        <ele>1300.32</ele>
        <time>2022-04-30T12:57:02Z</time>
      </trkpt>
      <trkpt lat="41.77969" lon="9.22967">
        <ele>1300.8</ele>
        <time>2022-04-30T12:57:18Z</time>
      </trkpt>
      <trkpt lat="41.77955" lon="9.22969">
        <ele>1300.8</ele>
        <time>2022-04-30T12:57:35Z</time>
      </trkpt>
      <trkpt lat="41.77944" lon="9.22969">
        <ele>1298.88</ele>
        <time>2022-04-30T12:57:50Z</time>
      </trkpt>
      <trkpt lat="41.77937" lon="9.22986">
        <ele>1295.99</ele>
        <time>2022-04-30T12:58:05Z</time>
      </trkpt>
      <trkpt lat="41.77928" lon="9.23003">
        <ele>1292.63</ele>
        <time>2022-04-30T12:58:22Z</time>
      </trkpt>
      <trkpt lat="41.77916" lon="9.23011">
        <ele>1289.27</ele>
        <time>2022-04-30T12:58:36Z</time>
      </trkpt>
      <trkpt lat="41.77908" lon="9.2302">
        <ele>1286.86</ele>
        <time>2022-04-30T12:58:47Z</time>
      </trkpt>
      <trkpt lat="41.77907" lon="9.23021">
        <ele>1286.38</ele>
        <time>2022-04-30T12:58:48Z</time>
      </trkpt>
      <trkpt lat="41.779" lon="9.2304">
        <ele>1285.42</ele>
        <time>2022-04-30T12:59:04Z</time>
      </trkpt>
      <trkpt lat="41.77898" lon="9.2304">
        <ele>1285.9</ele>
        <time>2022-04-30T12:59:22Z</time>
      </trkpt>
      <trkpt lat="41.77887" lon="9.23058">
        <ele>1284.46</ele>
        <time>2022-04-30T12:59:37Z</time>
      </trkpt>
      <trkpt lat="41.77876" lon="9.23075">
        <ele>1281.57</ele>
        <time>2022-04-30T12:59:52Z</time>
      </trkpt>
      <trkpt lat="41.77866" lon="9.23091">
        <ele>1278.69</ele>
        <time>2022-04-30T13:00:06Z</time>
      </trkpt>
      <trkpt lat="41.77849" lon="9.23111">
        <ele>1275.81</ele>
        <time>2022-04-30T13:00:21Z</time>
      </trkpt>
      <trkpt lat="41.77834" lon="9.23126">
        <ele>1273.88</ele>
        <time>2022-04-30T13:00:37Z</time>
      </trkpt>
      <trkpt lat="41.77817" lon="9.2313">
        <ele>1271.48</ele>
        <time>2022-04-30T13:00:53Z</time>
      </trkpt>
      <trkpt lat="41.77806" lon="9.23139">
        <ele>1269.56</ele>
        <time>2022-04-30T13:01:09Z</time>
      </trkpt>
      <trkpt lat="41.77805" lon="9.23139">
        <ele>1268.12</ele>
        <time>2022-04-30T13:01:22Z</time>
      </trkpt>
      <trkpt lat="41.77804" lon="9.2314">
        <ele>1269.08</ele>
        <time>2022-04-30T13:01:23Z</time>
      </trkpt>
      <trkpt lat="41.77805" lon="9.23156">
        <ele>1269.56</ele>
        <time>2022-04-30T13:01:35Z</time>
      </trkpt>
      <trkpt lat="41.77806" lon="9.23169">
        <ele>1270.52</ele>
        <time>2022-04-30T13:01:48Z</time>
      </trkpt>
      <trkpt lat="41.77803" lon="9.23169">
        <ele>1271.48</ele>
        <time>2022-04-30T13:01:53Z</time>
      </trkpt>
      <trkpt lat="41.7779" lon="9.23176">
        <ele>1273.4</ele>
        <time>2022-04-30T13:02:08Z</time>
      </trkpt>
      <trkpt lat="41.77785" lon="9.23191">
        <ele>1274.85</ele>
        <time>2022-04-30T13:02:22Z</time>
      </trkpt>
      <trkpt lat="41.77786" lon="9.23204">
        <ele>1275.81</ele>
        <time>2022-04-30T13:02:35Z</time>
      </trkpt>
      <trkpt lat="41.77792" lon="9.2322">
        <ele>1277.25</ele>
        <time>2022-04-30T13:02:49Z</time>
      </trkpt>
      <trkpt lat="41.77793" lon="9.23229">
        <ele>1277.73</ele>
        <time>2022-04-30T13:03:20Z</time>
      </trkpt>
      <trkpt lat="41.77792" lon="9.23228">
        <ele>1277.73</ele>
        <time>2022-04-30T13:03:21Z</time>
      </trkpt>
      <trkpt lat="41.77791" lon="9.23221">
        <ele>1277.25</ele>
        <time>2022-04-30T13:03:27Z</time>
      </trkpt>
      <trkpt lat="41.77791" lon="9.23218">
        <ele>1276.77</ele>
        <time>2022-04-30T13:03:28Z</time>
      </trkpt>
      <trkpt lat="41.7779" lon="9.23206">
        <ele>1275.81</ele>
        <time>2022-04-30T13:03:39Z</time>
      </trkpt>
      <trkpt lat="41.77789" lon="9.23204">
        <ele>1275.81</ele>
        <time>2022-04-30T13:03:40Z</time>
      </trkpt>
      <trkpt lat="41.77788" lon="9.23198">
        <ele>1275.33</ele>
        <time>2022-04-30T13:03:47Z</time>
      </trkpt>
      <trkpt lat="41.77788" lon="9.23195">
        <ele>1275.81</ele>
        <time>2022-04-30T13:03:50Z</time>
      </trkpt>
      <trkpt lat="41.77791" lon="9.23181">
        <ele>1272.92</ele>
        <time>2022-04-30T13:04:02Z</time>
      </trkpt>
      <trkpt lat="41.77791" lon="9.23177">
        <ele>1272.92</ele>
        <time>2022-04-30T13:04:05Z</time>
      </trkpt>
      <trkpt lat="41.77787" lon="9.23154">
        <ele>1272.92</ele>
        <time>2022-04-30T13:04:20Z</time>
      </trkpt>
      <trkpt lat="41.77778" lon="9.2314">
        <ele>1273.88</ele>
        <time>2022-04-30T13:04:36Z</time>
      </trkpt>
      <trkpt lat="41.77774" lon="9.23118">
        <ele>1273.4</ele>
        <time>2022-04-30T13:04:48Z</time>
      </trkpt>
      <trkpt lat="41.77776" lon="9.23094">
        <ele>1271.96</ele>
        <time>2022-04-30T13:05:02Z</time>
      </trkpt>
      <trkpt lat="41.77775" lon="9.23079">
        <ele>1272.44</ele>
        <time>2022-04-30T13:05:13Z</time>
      </trkpt>
      <trkpt lat="41.77775" lon="9.23062">
        <ele>1273.88</ele>
        <time>2022-04-30T13:05:28Z</time>
      </trkpt>
      <trkpt lat="41.77775" lon="9.23056">
        <ele>1273.88</ele>
        <time>2022-04-30T13:05:33Z</time>
      </trkpt>
      <trkpt lat="41.7778" lon="9.23047">
        <ele>1273.4</ele>
        <time>2022-04-30T13:05:40Z</time>
      </trkpt>
      <trkpt lat="41.77783" lon="9.23035">
        <ele>1274.36</ele>
        <time>2022-04-30T13:05:51Z</time>
      </trkpt>
      <trkpt lat="41.77783" lon="9.23034">
        <ele>1274.36</ele>
        <time>2022-04-30T13:05:56Z</time>
      </trkpt>
      <trkpt lat="41.77785" lon="9.23031">
        <ele>1273.88</ele>
        <time>2022-04-30T13:05:59Z</time>
      </trkpt>
      <trkpt lat="41.77788" lon="9.23024">
        <ele>1274.85</ele>
        <time>2022-04-30T13:06:05Z</time>
      </trkpt>
      <trkpt lat="41.77788" lon="9.23022">
        <ele>1275.33</ele>
        <time>2022-04-30T13:06:06Z</time>
      </trkpt>
      <trkpt lat="41.77789" lon="9.2302">
        <ele>1274.85</ele>
        <time>2022-04-30T13:06:07Z</time>
      </trkpt>
      <trkpt lat="41.77795" lon="9.23008">
        <ele>1275.81</ele>
        <time>2022-04-30T13:06:16Z</time>
      </trkpt>
      <trkpt lat="41.77796" lon="9.23005">
        <ele>1276.29</ele>
        <time>2022-04-30T13:06:18Z</time>
      </trkpt>
      <trkpt lat="41.77794" lon="9.22992">
        <ele>1277.25</ele>
        <time>2022-04-30T13:06:28Z</time>
      </trkpt>
      <trkpt lat="41.77796" lon="9.22973">
        <ele>1278.69</ele>
        <time>2022-04-30T13:06:42Z</time>
      </trkpt>
      <trkpt lat="41.77798" lon="9.22969">
        <ele>1279.17</ele>
        <time>2022-04-30T13:06:45Z</time>
      </trkpt>
      <trkpt lat="41.77803" lon="9.22968">
        <ele>1279.17</ele>
        <time>2022-04-30T13:06:50Z</time>
      </trkpt>
      <trkpt lat="41.77805" lon="9.22968">
        <ele>1279.17</ele>
        <time>2022-04-30T13:06:52Z</time>
      </trkpt>
      <trkpt lat="41.77816" lon="9.22961">
        <ele>1279.65</ele>
        <time>2022-04-30T13:07:04Z</time>
      </trkpt>
      <trkpt lat="41.77817" lon="9.2296">
        <ele>1280.13</ele>
        <time>2022-04-30T13:07:06Z</time>
      </trkpt>
      <trkpt lat="41.77823" lon="9.22953">
        <ele>1281.09</ele>
        <time>2022-04-30T13:07:13Z</time>
      </trkpt>
      <trkpt lat="41.77823" lon="9.22951">
        <ele>1280.61</ele>
        <time>2022-04-30T13:07:14Z</time>
      </trkpt>
      <trkpt lat="41.77824" lon="9.2295">
        <ele>1280.61</ele>
        <time>2022-04-30T13:07:15Z</time>
      </trkpt>
      <trkpt lat="41.77828" lon="9.22937">
        <ele>1282.06</ele>
        <time>2022-04-30T13:07:25Z</time>
      </trkpt>
      <trkpt lat="41.77829" lon="9.22935">
        <ele>1282.06</ele>
        <time>2022-04-30T13:07:26Z</time>
      </trkpt>
      <trkpt lat="41.7783" lon="9.22933">
        <ele>1282.06</ele>
        <time>2022-04-30T13:07:27Z</time>
      </trkpt>
      <trkpt lat="41.7783" lon="9.22931">
        <ele>1282.06</ele>
        <time>2022-04-30T13:07:28Z</time>
      </trkpt>
      <trkpt lat="41.77831" lon="9.22929">
        <ele>1281.57</ele>
        <time>2022-04-30T13:07:29Z</time>
      </trkpt>
      <trkpt lat="41.77832" lon="9.2291">
        <ele>1282.06</ele>
        <time>2022-04-30T13:07:42Z</time>
      </trkpt>
      <trkpt lat="41.77831" lon="9.22909">
        <ele>1281.57</ele>
        <time>2022-04-30T13:07:43Z</time>
      </trkpt>
      <trkpt lat="41.77835" lon="9.22901">
        <ele>1282.06</ele>
        <time>2022-04-30T13:07:56Z</time>
      </trkpt>
      <trkpt lat="41.77836" lon="9.229">
        <ele>1282.54</ele>
        <time>2022-04-30T13:07:57Z</time>
      </trkpt>
      <trkpt lat="41.77832" lon="9.229">
        <ele>1281.57</ele>
        <time>2022-04-30T13:09:06Z</time>
      </trkpt>
      <trkpt lat="41.77832" lon="9.22898">
        <ele>1282.06</ele>
        <time>2022-04-30T13:09:07Z</time>
      </trkpt>
      <trkpt lat="41.77829" lon="9.22887">
        <ele>1280.61</ele>
        <time>2022-04-30T13:09:16Z</time>
      </trkpt>
      <trkpt lat="41.77828" lon="9.22882">
        <ele>1280.61</ele>
        <time>2022-04-30T13:09:21Z</time>
      </trkpt>
      <trkpt lat="41.77815" lon="9.22876">
        <ele>1280.13</ele>
        <time>2022-04-30T13:09:35Z</time>
      </trkpt>
      <trkpt lat="41.77809" lon="9.22855">
        <ele>1280.13</ele>
        <time>2022-04-30T13:09:50Z</time>
      </trkpt>
      <trkpt lat="41.77801" lon="9.22832">
        <ele>1278.21</ele>
        <time>2022-04-30T13:10:04Z</time>
      </trkpt>
      <trkpt lat="41.77797" lon="9.22825">
        <ele>1278.21</ele>
        <time>2022-04-30T13:10:09Z</time>
      </trkpt>
      <trkpt lat="41.77791" lon="9.22805">
        <ele>1276.29</ele>
        <time>2022-04-30T13:10:22Z</time>
      </trkpt>
      <trkpt lat="41.77789" lon="9.22793">
        <ele>1275.81</ele>
        <time>2022-04-30T13:10:35Z</time>
      </trkpt>
      <trkpt lat="41.7779" lon="9.22789">
        <ele>1275.81</ele>
        <time>2022-04-30T13:11:01Z</time>
      </trkpt>
      <trkpt lat="41.77792" lon="9.22777">
        <ele>1275.81</ele>
        <time>2022-04-30T13:11:40Z</time>
      </trkpt>
      <trkpt lat="41.77795" lon="9.22782">
        <ele>1276.29</ele>
        <time>2022-04-30T13:12:12Z</time>
      </trkpt>
      <trkpt lat="41.77793" lon="9.22786">
        <ele>1276.77</ele>
        <time>2022-04-30T13:12:40Z</time>
      </trkpt>
      <trkpt lat="41.77785" lon="9.22782">
        <ele>1277.73</ele>
        <time>2022-04-30T13:12:49Z</time>
      </trkpt>
      <trkpt lat="41.77783" lon="9.22763">
        <ele>1275.33</ele>
        <time>2022-04-30T13:13:03Z</time>
      </trkpt>
      <trkpt lat="41.77784" lon="9.2275">
        <ele>1274.85</ele>
        <time>2022-04-30T13:13:21Z</time>
      </trkpt>
      <trkpt lat="41.77783" lon="9.22742">
        <ele>1273.88</ele>
        <time>2022-04-30T13:13:44Z</time>
      </trkpt>
      <trkpt lat="41.77776" lon="9.22731">
        <ele>1274.36</ele>
        <time>2022-04-30T13:14:01Z</time>
      </trkpt>
      <trkpt lat="41.77768" lon="9.22715">
        <ele>1273.4</ele>
        <time>2022-04-30T13:14:15Z</time>
      </trkpt>
      <trkpt lat="41.77763" lon="9.22697">
        <ele>1274.36</ele>
        <time>2022-04-30T13:14:29Z</time>
      </trkpt>
      <trkpt lat="41.77764" lon="9.22692">
        <ele>1274.36</ele>
        <time>2022-04-30T13:14:33Z</time>
      </trkpt>
      <trkpt lat="41.77752" lon="9.22678">
        <ele>1271.96</ele>
        <time>2022-04-30T13:14:46Z</time>
      </trkpt>
      <trkpt lat="41.77737" lon="9.22666">
        <ele>1272.44</ele>
        <time>2022-04-30T13:15:02Z</time>
      </trkpt>
      <trkpt lat="41.77736" lon="9.22666">
        <ele>1273.88</ele>
        <time>2022-04-30T13:15:03Z</time>
      </trkpt>
      <trkpt lat="41.77727" lon="9.22663">
        <ele>1272.44</ele>
        <time>2022-04-30T13:15:10Z</time>
      </trkpt>
      <trkpt lat="41.77709" lon="9.22662">
        <ele>1271.48</ele>
        <time>2022-04-30T13:15:23Z</time>
      </trkpt>
      <trkpt lat="41.77702" lon="9.22656">
        <ele>1270.52</ele>
        <time>2022-04-30T13:15:30Z</time>
      </trkpt>
      <trkpt lat="41.77686" lon="9.22647">
        <ele>1271</ele>
        <time>2022-04-30T13:15:45Z</time>
      </trkpt>
      <trkpt lat="41.77681" lon="9.22635">
        <ele>1271.48</ele>
        <time>2022-04-30T13:16:02Z</time>
      </trkpt>
      <trkpt lat="41.77673" lon="9.22622">
        <ele>1272.44</ele>
        <time>2022-04-30T13:16:21Z</time>
      </trkpt>
      <trkpt lat="41.77671" lon="9.22615">
        <ele>1272.44</ele>
        <time>2022-04-30T13:16:34Z</time>
      </trkpt>
      <trkpt lat="41.77661" lon="9.2261">
        <ele>1271.48</ele>
        <time>2022-04-30T13:16:48Z</time>
      </trkpt>
      <trkpt lat="41.77653" lon="9.22602">
        <ele>1271</ele>
        <time>2022-04-30T13:17:04Z</time>
      </trkpt>
      <trkpt lat="41.77639" lon="9.22601">
        <ele>1271</ele>
        <time>2022-04-30T13:17:18Z</time>
      </trkpt>
      <trkpt lat="41.77623" lon="9.22596">
        <ele>1270.52</ele>
        <time>2022-04-30T13:17:34Z</time>
      </trkpt>
      <trkpt lat="41.77605" lon="9.2259">
        <ele>1269.08</ele>
        <time>2022-04-30T13:17:51Z</time>
      </trkpt>
      <trkpt lat="41.77586" lon="9.22583">
        <ele>1268.12</ele>
        <time>2022-04-30T13:18:07Z</time>
      </trkpt>
      <trkpt lat="41.77564" lon="9.22571">
        <ele>1267.16</ele>
        <time>2022-04-30T13:18:25Z</time>
      </trkpt>
      <trkpt lat="41.77544" lon="9.22554">
        <ele>1266.19</ele>
        <time>2022-04-30T13:18:41Z</time>
      </trkpt>
      <trkpt lat="41.77542" lon="9.2255">
        <ele>1266.67</ele>
        <time>2022-04-30T13:18:46Z</time>
      </trkpt>
      <trkpt lat="41.77528" lon="9.2254">
        <ele>1265.71</ele>
        <time>2022-04-30T13:19:01Z</time>
      </trkpt>
      <trkpt lat="41.77519" lon="9.22539">
        <ele>1265.71</ele>
        <time>2022-04-30T13:19:17Z</time>
      </trkpt>
      <trkpt lat="41.77506" lon="9.22532">
        <ele>1266.19</ele>
        <time>2022-04-30T13:19:28Z</time>
      </trkpt>
      <trkpt lat="41.77505" lon="9.22531">
        <ele>1266.19</ele>
        <time>2022-04-30T13:19:29Z</time>
      </trkpt>
      <trkpt lat="41.77496" lon="9.2252">
        <ele>1266.19</ele>
        <time>2022-04-30T13:19:42Z</time>
      </trkpt>
      <trkpt lat="41.7749" lon="9.22512">
        <ele>1266.19</ele>
        <time>2022-04-30T13:20:01Z</time>
      </trkpt>
      <trkpt lat="41.77477" lon="9.22508">
        <ele>1266.19</ele>
        <time>2022-04-30T13:20:15Z</time>
      </trkpt>
      <trkpt lat="41.77463" lon="9.22503">
        <ele>1266.67</ele>
        <time>2022-04-30T13:20:28Z</time>
      </trkpt>
      <trkpt lat="41.77447" lon="9.22495">
        <ele>1267.64</ele>
        <time>2022-04-30T13:20:44Z</time>
      </trkpt>
      <trkpt lat="41.77439" lon="9.22493">
        <ele>1268.12</ele>
        <time>2022-04-30T13:21:00Z</time>
      </trkpt>
      <trkpt lat="41.77444" lon="9.22503">
        <ele>1268.12</ele>
        <time>2022-04-30T13:21:26Z</time>
      </trkpt>
      <trkpt lat="41.77438" lon="9.22487">
        <ele>1269.56</ele>
        <time>2022-04-30T13:21:47Z</time>
      </trkpt>
      <trkpt lat="41.77425" lon="9.22469">
        <ele>1271</ele>
        <time>2022-04-30T13:22:12Z</time>
      </trkpt>
      <trkpt lat="41.77414" lon="9.2245">
        <ele>1272.92</ele>
        <time>2022-04-30T13:22:29Z</time>
      </trkpt>
      <trkpt lat="41.77397" lon="9.2243">
        <ele>1275.33</ele>
        <time>2022-04-30T13:22:48Z</time>
      </trkpt>
      <trkpt lat="41.77386" lon="9.22421">
        <ele>1277.25</ele>
        <time>2022-04-30T13:23:01Z</time>
      </trkpt>
      <trkpt lat="41.77385" lon="9.22402">
        <ele>1279.65</ele>
        <time>2022-04-30T13:23:13Z</time>
      </trkpt>
      <trkpt lat="41.77381" lon="9.22388">
        <ele>1281.09</ele>
        <time>2022-04-30T13:23:28Z</time>
      </trkpt>
      <trkpt lat="41.77367" lon="9.22381">
        <ele>1282.54</ele>
        <time>2022-04-30T13:23:45Z</time>
      </trkpt>
      <trkpt lat="41.7735" lon="9.22373">
        <ele>1285.42</ele>
        <time>2022-04-30T13:24:03Z</time>
      </trkpt>
      <trkpt lat="41.77327" lon="9.22367">
        <ele>1286.86</ele>
        <time>2022-04-30T13:24:20Z</time>
      </trkpt>
      <trkpt lat="41.7732" lon="9.22364">
        <ele>1287.82</ele>
        <time>2022-04-30T13:24:33Z</time>
      </trkpt>
      <trkpt lat="41.77315" lon="9.22362">
        <ele>1286.86</ele>
        <time>2022-04-30T13:25:15Z</time>
      </trkpt>
      <trkpt lat="41.77305" lon="9.22365">
        <ele>1287.34</ele>
        <time>2022-04-30T13:25:25Z</time>
      </trkpt>
      <trkpt lat="41.77291" lon="9.2237">
        <ele>1286.38</ele>
        <time>2022-04-30T13:25:43Z</time>
      </trkpt>
      <trkpt lat="41.77288" lon="9.22366">
        <ele>1284.94</ele>
        <time>2022-04-30T13:25:59Z</time>
      </trkpt>
      <trkpt lat="41.77276" lon="9.22351">
        <ele>1282.54</ele>
        <time>2022-04-30T13:26:16Z</time>
      </trkpt>
      <trkpt lat="41.77264" lon="9.22346">
        <ele>1279.17</ele>
        <time>2022-04-30T13:26:27Z</time>
      </trkpt>
      <trkpt lat="41.7726" lon="9.22348">
        <ele>1279.65</ele>
        <time>2022-04-30T13:26:40Z</time>
      </trkpt>
      <trkpt lat="41.77249" lon="9.22345">
        <ele>1277.73</ele>
        <time>2022-04-30T13:26:55Z</time>
      </trkpt>
      <trkpt lat="41.77241" lon="9.22341">
        <ele>1275.81</ele>
        <time>2022-04-30T13:27:11Z</time>
      </trkpt>
      <trkpt lat="41.77227" lon="9.22327">
        <ele>1273.4</ele>
        <time>2022-04-30T13:27:26Z</time>
      </trkpt>
      <trkpt lat="41.77218" lon="9.22321">
        <ele>1272.44</ele>
        <time>2022-04-30T13:27:40Z</time>
      </trkpt>
      <trkpt lat="41.77211" lon="9.2232">
        <ele>1271.48</ele>
        <time>2022-04-30T13:27:52Z</time>
      </trkpt>
      <trkpt lat="41.7721" lon="9.22322">
        <ele>1271.48</ele>
        <time>2022-04-30T13:27:54Z</time>
      </trkpt>
      <trkpt lat="41.77209" lon="9.22322">
        <ele>1271.48</ele>
        <time>2022-04-30T13:27:55Z</time>
      </trkpt>
      <trkpt lat="41.77198" lon="9.2232">
        <ele>1271.48</ele>
        <time>2022-04-30T13:28:07Z</time>
      </trkpt>
      <trkpt lat="41.77193" lon="9.22321">
        <ele>1271.96</ele>
        <time>2022-04-30T13:28:21Z</time>
      </trkpt>
      <trkpt lat="41.77191" lon="9.22322">
        <ele>1271.96</ele>
        <time>2022-04-30T13:28:38Z</time>
      </trkpt>
      <trkpt lat="41.77206" lon="9.22306">
        <ele>1271.96</ele>
        <time>2022-04-30T13:28:56Z</time>
      </trkpt>
      <trkpt lat="41.77201" lon="9.22305">
        <ele>1270.04</ele>
        <time>2022-04-30T13:29:01Z</time>
      </trkpt>
      <trkpt lat="41.77187" lon="9.22302">
        <ele>1266.67</ele>
        <time>2022-04-30T13:29:14Z</time>
      </trkpt>
      <trkpt lat="41.77176" lon="9.22294">
        <ele>1263.79</ele>
        <time>2022-04-30T13:29:27Z</time>
      </trkpt>
      <trkpt lat="41.77165" lon="9.22283">
        <ele>1260.43</ele>
        <time>2022-04-30T13:29:40Z</time>
      </trkpt>
      <trkpt lat="41.77157" lon="9.22278">
        <ele>1258.02</ele>
        <time>2022-04-30T13:29:54Z</time>
      </trkpt>
      <trkpt lat="41.77153" lon="9.22279">
        <ele>1257.54</ele>
        <time>2022-04-30T13:30:15Z</time>
      </trkpt>
      <trkpt lat="41.77152" lon="9.22277">
        <ele>1257.54</ele>
        <time>2022-04-30T13:30:17Z</time>
      </trkpt>
      <trkpt lat="41.77141" lon="9.22269">
        <ele>1255.14</ele>
        <time>2022-04-30T13:30:30Z</time>
      </trkpt>
      <trkpt lat="41.77135" lon="9.22259">
        <ele>1253.7</ele>
        <time>2022-04-30T13:30:45Z</time>
      </trkpt>
      <trkpt lat="41.77137" lon="9.22262">
        <ele>1253.7</ele>
        <time>2022-04-30T13:31:03Z</time>
      </trkpt>
      <trkpt lat="41.77136" lon="9.22245">
        <ele>1252.25</ele>
        <time>2022-04-30T13:31:18Z</time>
      </trkpt>
      <trkpt lat="41.77137" lon="9.22231">
        <ele>1251.77</ele>
        <time>2022-04-30T13:31:28Z</time>
      </trkpt>
      <trkpt lat="41.77134" lon="9.22212">
        <ele>1251.29</ele>
        <time>2022-04-30T13:31:38Z</time>
      </trkpt>
      <trkpt lat="41.77134" lon="9.22209">
        <ele>1250.81</ele>
        <time>2022-04-30T13:31:40Z</time>
      </trkpt>
      <trkpt lat="41.77133" lon="9.222">
        <ele>1250.33</ele>
        <time>2022-04-30T13:31:45Z</time>
      </trkpt>
      <trkpt lat="41.77133" lon="9.22177">
        <ele>1248.89</ele>
        <time>2022-04-30T13:32:01Z</time>
      </trkpt>
      <trkpt lat="41.77134" lon="9.22159">
        <ele>1248.41</ele>
        <time>2022-04-30T13:32:16Z</time>
      </trkpt>
      <trkpt lat="41.77133" lon="9.22142">
        <ele>1247.93</ele>
        <time>2022-04-30T13:32:25Z</time>
      </trkpt>
      <trkpt lat="41.77134" lon="9.22124">
        <ele>1246.49</ele>
        <time>2022-04-30T13:32:41Z</time>
      </trkpt>
      <trkpt lat="41.77134" lon="9.22123">
        <ele>1246.01</ele>
        <time>2022-04-30T13:32:49Z</time>
      </trkpt>
      <trkpt lat="41.77137" lon="9.22119">
        <ele>1246.01</ele>
        <time>2022-04-30T13:33:11Z</time>
      </trkpt>
      <trkpt lat="41.77133" lon="9.22117">
        <ele>1246.49</ele>
        <time>2022-04-30T13:33:28Z</time>
      </trkpt>
      <trkpt lat="41.77126" lon="9.221">
        <ele>1245.04</ele>
        <time>2022-04-30T13:33:42Z</time>
      </trkpt>
      <trkpt lat="41.7712" lon="9.22084">
        <ele>1243.12</ele>
        <time>2022-04-30T13:33:55Z</time>
      </trkpt>
      <trkpt lat="41.77116" lon="9.22072">
        <ele>1242.16</ele>
        <time>2022-04-30T13:34:07Z</time>
      </trkpt>
      <trkpt lat="41.77114" lon="9.22069">
        <ele>1241.68</ele>
        <time>2022-04-30T13:34:09Z</time>
      </trkpt>
      <trkpt lat="41.77111" lon="9.22056">
        <ele>1241.68</ele>
        <time>2022-04-30T13:34:15Z</time>
      </trkpt>
      <trkpt lat="41.77104" lon="9.2204">
        <ele>1241.2</ele>
        <time>2022-04-30T13:34:25Z</time>
      </trkpt>
      <trkpt lat="41.77101" lon="9.22034">
        <ele>1240.24</ele>
        <time>2022-04-30T13:34:37Z</time>
      </trkpt>
      <trkpt lat="41.77093" lon="9.22013">
        <ele>1239.76</ele>
        <time>2022-04-30T13:34:48Z</time>
      </trkpt>
      <trkpt lat="41.77091" lon="9.22">
        <ele>1238.8</ele>
        <time>2022-04-30T13:34:57Z</time>
      </trkpt>
      <trkpt lat="41.77087" lon="9.2198">
        <ele>1237.83</ele>
        <time>2022-04-30T13:35:11Z</time>
      </trkpt>
      <trkpt lat="41.77088" lon="9.21978">
        <ele>1237.83</ele>
        <time>2022-04-30T13:35:13Z</time>
      </trkpt>
      <trkpt lat="41.77084" lon="9.21952">
        <ele>1235.91</ele>
        <time>2022-04-30T13:35:26Z</time>
      </trkpt>
      <trkpt lat="41.77079" lon="9.21928">
        <ele>1235.43</ele>
        <time>2022-04-30T13:35:43Z</time>
      </trkpt>
      <trkpt lat="41.77071" lon="9.21916">
        <ele>1235.43</ele>
        <time>2022-04-30T13:35:57Z</time>
      </trkpt>
      <trkpt lat="41.77056" lon="9.2191">
        <ele>1234.47</ele>
        <time>2022-04-30T13:36:13Z</time>
      </trkpt>
      <trkpt lat="41.77054" lon="9.21909">
        <ele>1234.95</ele>
        <time>2022-04-30T13:36:14Z</time>
      </trkpt>
      <trkpt lat="41.77042" lon="9.21902">
        <ele>1235.91</ele>
        <time>2022-04-30T13:36:27Z</time>
      </trkpt>
      <trkpt lat="41.77037" lon="9.21891">
        <ele>1234.95</ele>
        <time>2022-04-30T13:36:41Z</time>
      </trkpt>
      <trkpt lat="41.77038" lon="9.21896">
        <ele>1235.43</ele>
        <time>2022-04-30T13:36:50Z</time>
      </trkpt>
      <trkpt lat="41.77038" lon="9.21901">
        <ele>1235.91</ele>
        <time>2022-04-30T13:36:55Z</time>
      </trkpt>
      <trkpt lat="41.77029" lon="9.21906">
        <ele>1234.47</ele>
        <time>2022-04-30T13:37:03Z</time>
      </trkpt>
      <trkpt lat="41.77021" lon="9.2191">
        <ele>1232.07</ele>
        <time>2022-04-30T13:37:12Z</time>
      </trkpt>
      <trkpt lat="41.77013" lon="9.21907">
        <ele>1229.66</ele>
        <time>2022-04-30T13:37:22Z</time>
      </trkpt>
      <trkpt lat="41.77005" lon="9.21908">
        <ele>1228.22</ele>
        <time>2022-04-30T13:37:34Z</time>
      </trkpt>
      <trkpt lat="41.77003" lon="9.21908">
        <ele>1232.07</ele>
        <time>2022-04-30T13:37:37Z</time>
      </trkpt>
      <trkpt lat="41.77003" lon="9.21908">
        <ele>1232.07</ele>
        <time>2022-04-30T13:37:38Z</time>
      </trkpt>
      <trkpt lat="41.77003" lon="9.21908">
        <ele>1228.22</ele>
        <time>2022-04-30T13:37:40Z</time>
      </trkpt>
      <trkpt lat="41.77003" lon="9.21908">
        <ele>1228.22</ele>
        <time>2022-04-30T13:37:41Z</time>
      </trkpt>
      <trkpt lat="41.77003" lon="9.21908">
        <ele>1232.07</ele>
        <time>2022-04-30T13:37:42Z</time>
      </trkpt>
      <trkpt lat="41.77003" lon="9.21908">
        <ele>1227.74</ele>
        <time>2022-04-30T13:37:43Z</time>
      </trkpt>
      <trkpt lat="41.77003" lon="9.21909">
        <ele>1231.59</ele>
        <time>2022-04-30T13:37:45Z</time>
      </trkpt>
      <trkpt lat="41.77004" lon="9.21909">
        <ele>1229.66</ele>
        <time>2022-04-30T13:37:46Z</time>
      </trkpt>
      <trkpt lat="41.77003" lon="9.2191">
        <ele>1228.22</ele>
        <time>2022-04-30T13:37:49Z</time>
      </trkpt>
      <trkpt lat="41.77" lon="9.21906">
        <ele>1230.14</ele>
        <time>2022-04-30T13:38:13Z</time>
      </trkpt>
      <trkpt lat="41.77002" lon="9.21907">
        <ele>1229.18</ele>
        <time>2022-04-30T13:38:24Z</time>
      </trkpt>
      <trkpt lat="41.76998" lon="9.21907">
        <ele>1228.7</ele>
        <time>2022-04-30T13:38:31Z</time>
      </trkpt>
      <trkpt lat="41.76997" lon="9.21908">
        <ele>1228.22</ele>
        <time>2022-04-30T13:38:33Z</time>
      </trkpt>
      <trkpt lat="41.76987" lon="9.21911">
        <ele>1224.38</ele>
        <time>2022-04-30T13:38:42Z</time>
      </trkpt>
      <trkpt lat="41.76986" lon="9.21912">
        <ele>1224.86</ele>
        <time>2022-04-30T13:38:44Z</time>
      </trkpt>
      <trkpt lat="41.76985" lon="9.21914">
        <ele>1223.9</ele>
        <time>2022-04-30T13:38:46Z</time>
      </trkpt>
      <trkpt lat="41.76981" lon="9.21925">
        <ele>1221.49</ele>
        <time>2022-04-30T13:38:59Z</time>
      </trkpt>
      <trkpt lat="41.76977" lon="9.21932">
        <ele>1220.05</ele>
        <time>2022-04-30T13:39:10Z</time>
      </trkpt>
      <trkpt lat="41.76977" lon="9.21933">
        <ele>1220.05</ele>
        <time>2022-04-30T13:39:11Z</time>
      </trkpt>
      <trkpt lat="41.76977" lon="9.2194">
        <ele>1219.09</ele>
        <time>2022-04-30T13:39:18Z</time>
      </trkpt>
      <trkpt lat="41.76973" lon="9.2194">
        <ele>1218.61</ele>
        <time>2022-04-30T13:39:30Z</time>
      </trkpt>
      <trkpt lat="41.76973" lon="9.21941">
        <ele>1218.13</ele>
        <time>2022-04-30T13:39:46Z</time>
      </trkpt>
      <trkpt lat="41.76973" lon="9.21937">
        <ele>1218.13</ele>
        <time>2022-04-30T13:40:01Z</time>
      </trkpt>
      <trkpt lat="41.76968" lon="9.2193">
        <ele>1215.72</ele>
        <time>2022-04-30T13:40:13Z</time>
      </trkpt>
      <trkpt lat="41.76965" lon="9.21925">
        <ele>1214.76</ele>
        <time>2022-04-30T13:40:17Z</time>
      </trkpt>
      <trkpt lat="41.76959" lon="9.21921">
        <ele>1214.28</ele>
        <time>2022-04-30T13:40:27Z</time>
      </trkpt>
      <trkpt lat="41.76959" lon="9.21921">
        <ele>1213.32</ele>
        <time>2022-04-30T13:40:30Z</time>
      </trkpt>
      <trkpt lat="41.76949" lon="9.21922">
        <ele>1209.96</ele>
        <time>2022-04-30T13:40:43Z</time>
      </trkpt>
      <trkpt lat="41.76948" lon="9.21923">
        <ele>1208.51</ele>
        <time>2022-04-30T13:40:45Z</time>
      </trkpt>
      <trkpt lat="41.76936" lon="9.21924">
        <ele>1205.15</ele>
        <time>2022-04-30T13:40:57Z</time>
      </trkpt>
      <trkpt lat="41.76926" lon="9.21923">
        <ele>1202.27</ele>
        <time>2022-04-30T13:41:10Z</time>
      </trkpt>
      <trkpt lat="41.76924" lon="9.21924">
        <ele>1200.82</ele>
        <time>2022-04-30T13:41:29Z</time>
      </trkpt>
      <trkpt lat="41.76922" lon="9.21925">
        <ele>1198.9</ele>
        <time>2022-04-30T13:41:33Z</time>
      </trkpt>
      <trkpt lat="41.76908" lon="9.21918">
        <ele>1196.5</ele>
        <time>2022-04-30T13:41:47Z</time>
      </trkpt>
      <trkpt lat="41.76901" lon="9.21904">
        <ele>1193.13</ele>
        <time>2022-04-30T13:41:56Z</time>
      </trkpt>
      <trkpt lat="41.76899" lon="9.21904">
        <ele>1192.65</ele>
        <time>2022-04-30T13:41:58Z</time>
      </trkpt>
      <trkpt lat="41.76893" lon="9.21905">
        <ele>1190.25</ele>
        <time>2022-04-30T13:42:04Z</time>
      </trkpt>
      <trkpt lat="41.76885" lon="9.21903">
        <ele>1188.33</ele>
        <time>2022-04-30T13:42:14Z</time>
      </trkpt>
      <trkpt lat="41.76882" lon="9.21902">
        <ele>1186.88</ele>
        <time>2022-04-30T13:42:16Z</time>
      </trkpt>
      <trkpt lat="41.76878" lon="9.21896">
        <ele>1186.88</ele>
        <time>2022-04-30T13:42:19Z</time>
      </trkpt>
      <trkpt lat="41.76875" lon="9.21886">
        <ele>1186.4</ele>
        <time>2022-04-30T13:42:31Z</time>
      </trkpt>
      <trkpt lat="41.76871" lon="9.21882">
        <ele>1184.96</ele>
        <time>2022-04-30T13:42:35Z</time>
      </trkpt>
      <trkpt lat="41.76861" lon="9.21877">
        <ele>1183.04</ele>
        <time>2022-04-30T13:42:42Z</time>
      </trkpt>
      <trkpt lat="41.76857" lon="9.21877">
        <ele>1181.6</ele>
        <time>2022-04-30T13:42:48Z</time>
      </trkpt>
      <trkpt lat="41.76857" lon="9.21878">
        <ele>1182.08</ele>
        <time>2022-04-30T13:42:58Z</time>
      </trkpt>
      <trkpt lat="41.76856" lon="9.21875">
        <ele>1182.08</ele>
        <time>2022-04-30T13:43:14Z</time>
      </trkpt>
      <trkpt lat="41.76854" lon="9.21874">
        <ele>1180.64</ele>
        <time>2022-04-30T13:43:17Z</time>
      </trkpt>
      <trkpt lat="41.76853" lon="9.21874">
        <ele>1181.12</ele>
        <time>2022-04-30T13:43:18Z</time>
      </trkpt>
      <trkpt lat="41.7685" lon="9.21871">
        <ele>1179.19</ele>
        <time>2022-04-30T13:43:25Z</time>
      </trkpt>
      <trkpt lat="41.76847" lon="9.21868">
        <ele>1177.75</ele>
        <time>2022-04-30T13:43:32Z</time>
      </trkpt>
      <trkpt lat="41.76845" lon="9.21871">
        <ele>1178.23</ele>
        <time>2022-04-30T13:43:36Z</time>
      </trkpt>
      <trkpt lat="41.76842" lon="9.21883">
        <ele>1175.83</ele>
        <time>2022-04-30T13:43:48Z</time>
      </trkpt>
      <trkpt lat="41.76841" lon="9.21889">
        <ele>1175.35</ele>
        <time>2022-04-30T13:44:00Z</time>
      </trkpt>
      <trkpt lat="41.76836" lon="9.21891">
        <ele>1174.39</ele>
        <time>2022-04-30T13:44:10Z</time>
      </trkpt>
      <trkpt lat="41.76829" lon="9.21897">
        <ele>1171.5</ele>
        <time>2022-04-30T13:44:20Z</time>
      </trkpt>
      <trkpt lat="41.76822" lon="9.21893">
        <ele>1168.14</ele>
        <time>2022-04-30T13:44:34Z</time>
      </trkpt>
      <trkpt lat="41.76821" lon="9.21892">
        <ele>1167.18</ele>
        <time>2022-04-30T13:44:36Z</time>
      </trkpt>
      <trkpt lat="41.76817" lon="9.21884">
        <ele>1163.81</ele>
        <time>2022-04-30T13:44:50Z</time>
      </trkpt>
      <trkpt lat="41.76811" lon="9.21885">
        <ele>1161.41</ele>
        <time>2022-04-30T13:45:03Z</time>
      </trkpt>
      <trkpt lat="41.76809" lon="9.21881">
        <ele>1159.97</ele>
        <time>2022-04-30T13:45:14Z</time>
      </trkpt>
      <trkpt lat="41.76803" lon="9.21876">
        <ele>1158.53</ele>
        <time>2022-04-30T13:45:19Z</time>
      </trkpt>
      <trkpt lat="41.768" lon="9.21873">
        <ele>1156.12</ele>
        <time>2022-04-30T13:45:32Z</time>
      </trkpt>
      <trkpt lat="41.76796" lon="9.21866">
        <ele>1155.16</ele>
        <time>2022-04-30T13:45:43Z</time>
      </trkpt>
      <trkpt lat="41.76795" lon="9.2187">
        <ele>1155.16</ele>
        <time>2022-04-30T13:46:02Z</time>
      </trkpt>
      <trkpt lat="41.76793" lon="9.21862">
        <ele>1153.72</ele>
        <time>2022-04-30T13:46:11Z</time>
      </trkpt>
      <trkpt lat="41.76793" lon="9.21861">
        <ele>1153.24</ele>
        <time>2022-04-30T13:46:12Z</time>
      </trkpt>
      <trkpt lat="41.76789" lon="9.21856">
        <ele>1152.28</ele>
        <time>2022-04-30T13:46:16Z</time>
      </trkpt>
      <trkpt lat="41.76788" lon="9.21854">
        <ele>1151.32</ele>
        <time>2022-04-30T13:46:21Z</time>
      </trkpt>
      <trkpt lat="41.76781" lon="9.2184">
        <ele>1148.91</ele>
        <time>2022-04-30T13:46:32Z</time>
      </trkpt>
      <trkpt lat="41.76779" lon="9.21835">
        <ele>1149.39</ele>
        <time>2022-04-30T13:46:44Z</time>
      </trkpt>
      <trkpt lat="41.76776" lon="9.21829">
        <ele>1150.35</ele>
        <time>2022-04-30T13:47:02Z</time>
      </trkpt>
      <trkpt lat="41.7677" lon="9.21825">
        <ele>1147.47</ele>
        <time>2022-04-30T13:47:13Z</time>
      </trkpt>
      <trkpt lat="41.76768" lon="9.21823">
        <ele>1146.51</ele>
        <time>2022-04-30T13:47:15Z</time>
      </trkpt>
      <trkpt lat="41.76767" lon="9.21822">
        <ele>1145.55</ele>
        <time>2022-04-30T13:47:17Z</time>
      </trkpt>
      <trkpt lat="41.76757" lon="9.21816">
        <ele>1145.07</ele>
        <time>2022-04-30T13:47:31Z</time>
      </trkpt>
      <trkpt lat="41.7675" lon="9.2181">
        <ele>1144.59</ele>
        <time>2022-04-30T13:47:58Z</time>
      </trkpt>
      <trkpt lat="41.76747" lon="9.21813">
        <ele>1143.63</ele>
        <time>2022-04-30T13:48:14Z</time>
      </trkpt>
      <trkpt lat="41.76743" lon="9.21813">
        <ele>1140.74</ele>
        <time>2022-04-30T13:48:22Z</time>
      </trkpt>
      <trkpt lat="41.76738" lon="9.21818">
        <ele>1136.9</ele>
        <time>2022-04-30T13:48:34Z</time>
      </trkpt>
      <trkpt lat="41.76731" lon="9.21822">
        <ele>1134.49</ele>
        <time>2022-04-30T13:48:40Z</time>
      </trkpt>
      <trkpt lat="41.76728" lon="9.2182">
        <ele>1134.01</ele>
        <time>2022-04-30T13:49:00Z</time>
      </trkpt>
      <trkpt lat="41.76723" lon="9.21821">
        <ele>1130.65</ele>
        <time>2022-04-30T13:49:08Z</time>
      </trkpt>
      <trkpt lat="41.76722" lon="9.21821">
        <ele>1130.65</ele>
        <time>2022-04-30T13:49:09Z</time>
      </trkpt>
      <trkpt lat="41.76713" lon="9.21821">
        <ele>1126.8</ele>
        <time>2022-04-30T13:49:19Z</time>
      </trkpt>
      <trkpt lat="41.76707" lon="9.21817">
        <ele>1123.44</ele>
        <time>2022-04-30T13:49:31Z</time>
      </trkpt>
      <trkpt lat="41.76703" lon="9.21807">
        <ele>1121.03</ele>
        <time>2022-04-30T13:49:44Z</time>
      </trkpt>
      <trkpt lat="41.76697" lon="9.21803">
        <ele>1119.11</ele>
        <time>2022-04-30T13:49:52Z</time>
      </trkpt>
      <trkpt lat="41.76699" lon="9.21793">
        <ele>1121.03</ele>
        <time>2022-04-30T13:50:17Z</time>
      </trkpt>
      <trkpt lat="41.76699" lon="9.21789">
        <ele>1120.55</ele>
        <time>2022-04-30T13:50:55Z</time>
      </trkpt>
      <trkpt lat="41.7669" lon="9.21786">
        <ele>1119.11</ele>
        <time>2022-04-30T13:51:01Z</time>
      </trkpt>
      <trkpt lat="41.76682" lon="9.21781">
        <ele>1116.23</ele>
        <time>2022-04-30T13:51:12Z</time>
      </trkpt>
      <trkpt lat="41.76678" lon="9.21777">
        <ele>1112.86</ele>
        <time>2022-04-30T13:51:22Z</time>
      </trkpt>
      <trkpt lat="41.76676" lon="9.21776">
        <ele>1112.38</ele>
        <time>2022-04-30T13:51:24Z</time>
      </trkpt>
      <trkpt lat="41.76668" lon="9.21771">
        <ele>1109.02</ele>
        <time>2022-04-30T13:51:34Z</time>
      </trkpt>
      <trkpt lat="41.76667" lon="9.21771">
        <ele>1108.54</ele>
        <time>2022-04-30T13:51:35Z</time>
      </trkpt>
      <trkpt lat="41.76659" lon="9.2178">
        <ele>1105.17</ele>
        <time>2022-04-30T13:51:49Z</time>
      </trkpt>
      <trkpt lat="41.76656" lon="9.21783">
        <ele>1105.17</ele>
        <time>2022-04-30T13:51:54Z</time>
      </trkpt>
      <trkpt lat="41.76653" lon="9.21787">
        <ele>1103.25</ele>
        <time>2022-04-30T13:51:57Z</time>
      </trkpt>
      <trkpt lat="41.76649" lon="9.21795">
        <ele>1102.77</ele>
        <time>2022-04-30T13:52:03Z</time>
      </trkpt>
      <trkpt lat="41.76647" lon="9.21804">
        <ele>1102.29</ele>
        <time>2022-04-30T13:52:08Z</time>
      </trkpt>
      <trkpt lat="41.76643" lon="9.21817">
        <ele>1100.85</ele>
        <time>2022-04-30T13:52:21Z</time>
      </trkpt>
      <trkpt lat="41.76641" lon="9.21821">
        <ele>1100.37</ele>
        <time>2022-04-30T13:52:28Z</time>
      </trkpt>
      <trkpt lat="41.76638" lon="9.21815">
        <ele>1099.4</ele>
        <time>2022-04-30T13:52:34Z</time>
      </trkpt>
      <trkpt lat="41.76637" lon="9.21813">
        <ele>1098.92</ele>
        <time>2022-04-30T13:52:36Z</time>
      </trkpt>
      <trkpt lat="41.76635" lon="9.21797">
        <ele>1097.96</ele>
        <time>2022-04-30T13:52:49Z</time>
      </trkpt>
      <trkpt lat="41.76626" lon="9.2178">
        <ele>1097.48</ele>
        <time>2022-04-30T13:53:01Z</time>
      </trkpt>
      <trkpt lat="41.76614" lon="9.21764">
        <ele>1096.04</ele>
        <time>2022-04-30T13:53:18Z</time>
      </trkpt>
      <trkpt lat="41.766" lon="9.21748">
        <ele>1095.08</ele>
        <time>2022-04-30T13:53:33Z</time>
      </trkpt>
      <trkpt lat="41.76587" lon="9.21736">
        <ele>1094.6</ele>
        <time>2022-04-30T13:53:45Z</time>
      </trkpt>
      <trkpt lat="41.76575" lon="9.21723">
        <ele>1094.12</ele>
        <time>2022-04-30T13:53:59Z</time>
      </trkpt>
      <trkpt lat="41.76567" lon="9.21717">
        <ele>1093.64</ele>
        <time>2022-04-30T13:54:09Z</time>
      </trkpt>
      <trkpt lat="41.76565" lon="9.21713">
        <ele>1094.12</ele>
        <time>2022-04-30T13:54:13Z</time>
      </trkpt>
      <trkpt lat="41.7656" lon="9.21704">
        <ele>1095.56</ele>
        <time>2022-04-30T13:54:27Z</time>
      </trkpt>
      <trkpt lat="41.76552" lon="9.21686">
        <ele>1092.68</ele>
        <time>2022-04-30T13:54:39Z</time>
      </trkpt>
      <trkpt lat="41.76551" lon="9.2168">
        <ele>1092.68</ele>
        <time>2022-04-30T13:54:45Z</time>
      </trkpt>
      <trkpt lat="41.76549" lon="9.21669">
        <ele>1092.2</ele>
        <time>2022-04-30T13:54:52Z</time>
      </trkpt>
      <trkpt lat="41.76545" lon="9.21675">
        <ele>1091.71</ele>
        <time>2022-04-30T13:55:00Z</time>
      </trkpt>
      <trkpt lat="41.76548" lon="9.21693">
        <ele>1091.23</ele>
        <time>2022-04-30T13:55:14Z</time>
      </trkpt>
      <trkpt lat="41.76555" lon="9.21711">
        <ele>1090.75</ele>
        <time>2022-04-30T13:55:28Z</time>
      </trkpt>
      <trkpt lat="41.76558" lon="9.21716">
        <ele>1090.27</ele>
        <time>2022-04-30T13:55:31Z</time>
      </trkpt>
      <trkpt lat="41.76569" lon="9.21732">
        <ele>1089.79</ele>
        <time>2022-04-30T13:55:45Z</time>
      </trkpt>
      <trkpt lat="41.76581" lon="9.21748">
        <ele>1089.79</ele>
        <time>2022-04-30T13:56:01Z</time>
      </trkpt>
      <trkpt lat="41.76583" lon="9.21751">
        <ele>1089.79</ele>
        <time>2022-04-30T13:56:04Z</time>
      </trkpt>
      <trkpt lat="41.76586" lon="9.21757">
        <ele>1089.31</ele>
        <time>2022-04-30T13:56:08Z</time>
      </trkpt>
      <trkpt lat="41.76592" lon="9.21765">
        <ele>1088.83</ele>
        <time>2022-04-30T13:56:25Z</time>
      </trkpt>
      <trkpt lat="41.76592" lon="9.21766">
        <ele>1089.31</ele>
        <time>2022-04-30T13:56:43Z</time>
      </trkpt>
      <trkpt lat="41.76591" lon="9.21772">
        <ele>1089.31</ele>
        <time>2022-04-30T13:57:05Z</time>
      </trkpt>
      <trkpt lat="41.76598" lon="9.21779">
        <ele>1088.35</ele>
        <time>2022-04-30T13:57:20Z</time>
      </trkpt>
      <trkpt lat="41.76607" lon="9.21797">
        <ele>1087.39</ele>
        <time>2022-04-30T13:57:35Z</time>
      </trkpt>
      <trkpt lat="41.76608" lon="9.21804">
        <ele>1087.87</ele>
        <time>2022-04-30T13:57:47Z</time>
      </trkpt>
      <trkpt lat="41.7661" lon="9.21808">
        <ele>1086.43</ele>
        <time>2022-04-30T13:57:57Z</time>
      </trkpt>
      <trkpt lat="41.76608" lon="9.21821">
        <ele>1086.43</ele>
        <time>2022-04-30T13:58:06Z</time>
      </trkpt>
      <trkpt lat="41.76604" lon="9.21836">
        <ele>1085.95</ele>
        <time>2022-04-30T13:58:18Z</time>
      </trkpt>
      <trkpt lat="41.76602" lon="9.21839">
        <ele>1085.95</ele>
        <time>2022-04-30T13:58:23Z</time>
      </trkpt>
      <trkpt lat="41.76597" lon="9.21862">
        <ele>1084.5</ele>
        <time>2022-04-30T13:58:37Z</time>
      </trkpt>
      <trkpt lat="41.76595" lon="9.21874">
        <ele>1084.99</ele>
        <time>2022-04-30T13:58:46Z</time>
      </trkpt>
      <trkpt lat="41.76595" lon="9.21879">
        <ele>1084.99</ele>
        <time>2022-04-30T13:58:49Z</time>
      </trkpt>
      <trkpt lat="41.76595" lon="9.21896">
        <ele>1083.06</ele>
        <time>2022-04-30T13:59:01Z</time>
      </trkpt>
      <trkpt lat="41.76596" lon="9.21897">
        <ele>1083.54</ele>
        <time>2022-04-30T13:59:02Z</time>
      </trkpt>
      <trkpt lat="41.76601" lon="9.21906">
        <ele>1082.1</ele>
        <time>2022-04-30T13:59:06Z</time>
      </trkpt>
      <trkpt lat="41.76603" lon="9.21908">
        <ele>1082.58</ele>
        <time>2022-04-30T13:59:07Z</time>
      </trkpt>
      <trkpt lat="41.76605" lon="9.2191">
        <ele>1082.58</ele>
        <time>2022-04-30T13:59:08Z</time>
      </trkpt>
      <trkpt lat="41.76606" lon="9.21913">
        <ele>1082.58</ele>
        <time>2022-04-30T13:59:09Z</time>
      </trkpt>
      <trkpt lat="41.76606" lon="9.21915">
        <ele>1082.58</ele>
        <time>2022-04-30T13:59:10Z</time>
      </trkpt>
      <trkpt lat="41.76609" lon="9.21921">
        <ele>1082.58</ele>
        <time>2022-04-30T13:59:16Z</time>
      </trkpt>
      <trkpt lat="41.7661" lon="9.21922">
        <ele>1083.06</ele>
        <time>2022-04-30T13:59:17Z</time>
      </trkpt>
      <trkpt lat="41.76627" lon="9.21936">
        <ele>1082.1</ele>
        <time>2022-04-30T13:59:33Z</time>
      </trkpt>
      <trkpt lat="41.76629" lon="9.21939">
        <ele>1081.62</ele>
        <time>2022-04-30T13:59:36Z</time>
      </trkpt>
      <trkpt lat="41.76631" lon="9.21946">
        <ele>1081.62</ele>
        <time>2022-04-30T13:59:40Z</time>
      </trkpt>
      <trkpt lat="41.76631" lon="9.21947">
        <ele>1081.62</ele>
        <time>2022-04-30T13:59:41Z</time>
      </trkpt>
      <trkpt lat="41.7663" lon="9.21949">
        <ele>1081.14</ele>
        <time>2022-04-30T13:59:42Z</time>
      </trkpt>
      <trkpt lat="41.76629" lon="9.2195">
        <ele>1081.62</ele>
        <time>2022-04-30T13:59:43Z</time>
      </trkpt>
      <trkpt lat="41.76628" lon="9.21951">
        <ele>1081.14</ele>
        <time>2022-04-30T13:59:44Z</time>
      </trkpt>
      <trkpt lat="41.76627" lon="9.21952">
        <ele>1080.66</ele>
        <time>2022-04-30T13:59:45Z</time>
      </trkpt>
      <trkpt lat="41.7662" lon="9.21955">
        <ele>1081.14</ele>
        <time>2022-04-30T13:59:51Z</time>
      </trkpt>
      <trkpt lat="41.76609" lon="9.21949">
        <ele>1080.18</ele>
        <time>2022-04-30T14:00:02Z</time>
      </trkpt>
      <trkpt lat="41.76604" lon="9.21941">
        <ele>1079.22</ele>
        <time>2022-04-30T14:00:09Z</time>
      </trkpt>
      <trkpt lat="41.76592" lon="9.21925">
        <ele>1079.22</ele>
        <time>2022-04-30T14:00:20Z</time>
      </trkpt>
      <trkpt lat="41.76584" lon="9.21918">
        <ele>1078.26</ele>
        <time>2022-04-30T14:00:28Z</time>
      </trkpt>
      <trkpt lat="41.76578" lon="9.21912">
        <ele>1077.78</ele>
        <time>2022-04-30T14:00:39Z</time>
      </trkpt>
      <trkpt lat="41.76569" lon="9.21891">
        <ele>1076.81</ele>
        <time>2022-04-30T14:00:49Z</time>
      </trkpt>
      <trkpt lat="41.76569" lon="9.2189">
        <ele>1076.81</ele>
        <time>2022-04-30T14:00:50Z</time>
      </trkpt>
      <trkpt lat="41.76569" lon="9.21888">
        <ele>1076.81</ele>
        <time>2022-04-30T14:00:51Z</time>
      </trkpt>
      <trkpt lat="41.76569" lon="9.21886">
        <ele>1076.81</ele>
        <time>2022-04-30T14:00:52Z</time>
      </trkpt>
      <trkpt lat="41.76566" lon="9.21881">
        <ele>1076.33</ele>
        <time>2022-04-30T14:00:58Z</time>
      </trkpt>
      <trkpt lat="41.76563" lon="9.21882">
        <ele>1075.85</ele>
        <time>2022-04-30T14:01:00Z</time>
      </trkpt>
      <trkpt lat="41.76554" lon="9.21882">
        <ele>1072.49</ele>
        <time>2022-04-30T14:01:09Z</time>
      </trkpt>
      <trkpt lat="41.76548" lon="9.21886">
        <ele>1069.12</ele>
        <time>2022-04-30T14:01:18Z</time>
      </trkpt>
      <trkpt lat="41.76547" lon="9.21887">
        <ele>1069.12</ele>
        <time>2022-04-30T14:01:19Z</time>
      </trkpt>
      <trkpt lat="41.76538" lon="9.21891">
        <ele>1067.2</ele>
        <time>2022-04-30T14:01:28Z</time>
      </trkpt>
      <trkpt lat="41.76527" lon="9.21897">
        <ele>1066.24</ele>
        <time>2022-04-30T14:01:41Z</time>
      </trkpt>
      <trkpt lat="41.76523" lon="9.21901">
        <ele>1065.76</ele>
        <time>2022-04-30T14:02:17Z</time>
      </trkpt>
      <trkpt lat="41.76525" lon="9.219">
        <ele>1065.76</ele>
        <time>2022-04-30T14:02:51Z</time>
      </trkpt>
      <trkpt lat="41.76522" lon="9.21899">
        <ele>1065.28</ele>
        <time>2022-04-30T14:03:24Z</time>
      </trkpt>
      <trkpt lat="41.76525" lon="9.21901">
        <ele>1066.24</ele>
        <time>2022-04-30T14:03:41Z</time>
      </trkpt>
      <trkpt lat="41.76524" lon="9.21903">
        <ele>1066.72</ele>
        <time>2022-04-30T14:03:47Z</time>
      </trkpt>
      <trkpt lat="41.76523" lon="9.21906">
        <ele>1066.72</ele>
        <time>2022-04-30T14:03:48Z</time>
      </trkpt>
      <trkpt lat="41.76513" lon="9.21908">
        <ele>1065.76</ele>
        <time>2022-04-30T14:03:57Z</time>
      </trkpt>
      <trkpt lat="41.76506" lon="9.2191">
        <ele>1066.24</ele>
        <time>2022-04-30T14:04:11Z</time>
      </trkpt>
      <trkpt lat="41.765" lon="9.21907">
        <ele>1063.84</ele>
        <time>2022-04-30T14:04:22Z</time>
      </trkpt>
      <trkpt lat="41.76491" lon="9.21906">
        <ele>1060.95</ele>
        <time>2022-04-30T14:04:35Z</time>
      </trkpt>
      <trkpt lat="41.76483" lon="9.21902">
        <ele>1057.11</ele>
        <time>2022-04-30T14:04:48Z</time>
      </trkpt>
      <trkpt lat="41.76469" lon="9.21898">
        <ele>1055.67</ele>
        <time>2022-04-30T14:05:03Z</time>
      </trkpt>
      <trkpt lat="41.76463" lon="9.21896">
        <ele>1053.74</ele>
        <time>2022-04-30T14:05:09Z</time>
      </trkpt>
      <trkpt lat="41.76453" lon="9.21889">
        <ele>1049.9</ele>
        <time>2022-04-30T14:05:21Z</time>
      </trkpt>
      <trkpt lat="41.76441" lon="9.21885">
        <ele>1048.94</ele>
        <time>2022-04-30T14:05:39Z</time>
      </trkpt>
      <trkpt lat="41.76441" lon="9.21884">
        <ele>1049.9</ele>
        <time>2022-04-30T14:06:06Z</time>
      </trkpt>
      <trkpt lat="41.76444" lon="9.2188">
        <ele>1049.9</ele>
        <time>2022-04-30T14:06:26Z</time>
      </trkpt>
      <trkpt lat="41.7644" lon="9.21877">
        <ele>1049.42</ele>
        <time>2022-04-30T14:06:50Z</time>
      </trkpt>
      <trkpt lat="41.76438" lon="9.21878">
        <ele>1048.94</ele>
        <time>2022-04-30T14:06:53Z</time>
      </trkpt>
      <trkpt lat="41.7643" lon="9.21878">
        <ele>1047.49</ele>
        <time>2022-04-30T14:06:59Z</time>
      </trkpt>
      <trkpt lat="41.76424" lon="9.21881">
        <ele>1046.53</ele>
        <time>2022-04-30T14:07:04Z</time>
      </trkpt>
      <trkpt lat="41.76419" lon="9.21884">
        <ele>1044.61</ele>
        <time>2022-04-30T14:07:11Z</time>
      </trkpt>
      <trkpt lat="41.76417" lon="9.21887">
        <ele>1044.61</ele>
        <time>2022-04-30T14:07:13Z</time>
      </trkpt>
      <trkpt lat="41.76414" lon="9.21893">
        <ele>1044.13</ele>
        <time>2022-04-30T14:07:18Z</time>
      </trkpt>
      <trkpt lat="41.76407" lon="9.2191">
        <ele>1042.69</ele>
        <time>2022-04-30T14:07:25Z</time>
      </trkpt>
      <trkpt lat="41.76407" lon="9.21917">
        <ele>1042.21</ele>
        <time>2022-04-30T14:07:30Z</time>
      </trkpt>
      <trkpt lat="41.76406" lon="9.21917">
        <ele>1041.73</ele>
        <time>2022-04-30T14:07:33Z</time>
      </trkpt>
      <trkpt lat="41.76404" lon="9.21926">
        <ele>1038.84</ele>
        <time>2022-04-30T14:07:47Z</time>
      </trkpt>
      <trkpt lat="41.76403" lon="9.21929">
        <ele>1037.4</ele>
        <time>2022-04-30T14:07:52Z</time>
      </trkpt>
      <trkpt lat="41.76401" lon="9.21937">
        <ele>1035.96</ele>
        <time>2022-04-30T14:08:02Z</time>
      </trkpt>
      <trkpt lat="41.76392" lon="9.21951">
        <ele>1032.59</ele>
        <time>2022-04-30T14:08:15Z</time>
      </trkpt>
      <trkpt lat="41.76387" lon="9.21969">
        <ele>1029.71</ele>
        <time>2022-04-30T14:08:27Z</time>
      </trkpt>
      <trkpt lat="41.76386" lon="9.21977">
        <ele>1029.23</ele>
        <time>2022-04-30T14:08:32Z</time>
      </trkpt>
      <trkpt lat="41.7638" lon="9.21985">
        <ele>1028.27</ele>
        <time>2022-04-30T14:08:43Z</time>
      </trkpt>
      <trkpt lat="41.7637" lon="9.21977">
        <ele>1027.31</ele>
        <time>2022-04-30T14:09:00Z</time>
      </trkpt>
      <trkpt lat="41.76362" lon="9.21977">
        <ele>1026.34</ele>
        <time>2022-04-30T14:09:08Z</time>
      </trkpt>
      <trkpt lat="41.76357" lon="9.21979">
        <ele>1023.94</ele>
        <time>2022-04-30T14:09:13Z</time>
      </trkpt>
      <trkpt lat="41.76354" lon="9.21978">
        <ele>1023.94</ele>
        <time>2022-04-30T14:09:15Z</time>
      </trkpt>
      <trkpt lat="41.76346" lon="9.21983">
        <ele>1023.46</ele>
        <time>2022-04-30T14:09:20Z</time>
      </trkpt>
      <trkpt lat="41.76341" lon="9.21978">
        <ele>1022.02</ele>
        <time>2022-04-30T14:09:32Z</time>
      </trkpt>
      <trkpt lat="41.76331" lon="9.21975">
        <ele>1020.58</ele>
        <time>2022-04-30T14:09:42Z</time>
      </trkpt>
      <trkpt lat="41.76323" lon="9.21975">
        <ele>1017.21</ele>
        <time>2022-04-30T14:09:52Z</time>
      </trkpt>
      <trkpt lat="41.76318" lon="9.2197">
        <ele>1014.81</ele>
        <time>2022-04-30T14:10:05Z</time>
      </trkpt>
      <trkpt lat="41.76311" lon="9.21969">
        <ele>1012.89</ele>
        <time>2022-04-30T14:10:15Z</time>
      </trkpt>
      <trkpt lat="41.76308" lon="9.21968">
        <ele>1010.48</ele>
        <time>2022-04-30T14:10:27Z</time>
      </trkpt>
      <trkpt lat="41.76307" lon="9.21966">
        <ele>1010.48</ele>
        <time>2022-04-30T14:10:29Z</time>
      </trkpt>
      <trkpt lat="41.76301" lon="9.2196">
        <ele>1007.6</ele>
        <time>2022-04-30T14:10:42Z</time>
      </trkpt>
      <trkpt lat="41.76295" lon="9.21953">
        <ele>1004.72</ele>
        <time>2022-04-30T14:10:57Z</time>
      </trkpt>
      <trkpt lat="41.76288" lon="9.21943">
        <ele>1002.79</ele>
        <time>2022-04-30T14:11:09Z</time>
      </trkpt>
      <trkpt lat="41.76281" lon="9.21941">
        <ele>1002.31</ele>
        <time>2022-04-30T14:11:17Z</time>
      </trkpt>
      <trkpt lat="41.76272" lon="9.21934">
        <ele>1000.87</ele>
        <time>2022-04-30T14:11:26Z</time>
      </trkpt>
      <trkpt lat="41.76268" lon="9.21934">
        <ele>999.43</ele>
        <time>2022-04-30T14:11:32Z</time>
      </trkpt>
      <trkpt lat="41.76265" lon="9.21933">
        <ele>999.43</ele>
        <time>2022-04-30T14:11:35Z</time>
      </trkpt>
      <trkpt lat="41.76264" lon="9.21936">
        <ele>998.95</ele>
        <time>2022-04-30T14:11:38Z</time>
      </trkpt>
      <trkpt lat="41.76256" lon="9.21942">
        <ele>997.51</ele>
        <time>2022-04-30T14:11:51Z</time>
      </trkpt>
      <trkpt lat="41.76249" lon="9.21948">
        <ele>995.58</ele>
        <time>2022-04-30T14:12:06Z</time>
      </trkpt>
      <trkpt lat="41.76249" lon="9.21949">
        <ele>992.22</ele>
        <time>2022-04-30T14:12:16Z</time>
      </trkpt>
      <trkpt lat="41.76247" lon="9.21944">
        <ele>991.26</ele>
        <time>2022-04-30T14:12:26Z</time>
      </trkpt>
      <trkpt lat="41.76247" lon="9.21943">
        <ele>990.78</ele>
        <time>2022-04-30T14:12:28Z</time>
      </trkpt>
      <trkpt lat="41.76244" lon="9.21941">
        <ele>989.33</ele>
        <time>2022-04-30T14:12:34Z</time>
      </trkpt>
      <trkpt lat="41.76241" lon="9.21933">
        <ele>986.45</ele>
        <time>2022-04-30T14:12:44Z</time>
      </trkpt>
      <trkpt lat="41.76241" lon="9.21932">
        <ele>985.97</ele>
        <time>2022-04-30T14:12:46Z</time>
      </trkpt>
      <trkpt lat="41.7624" lon="9.21926">
        <ele>984.53</ele>
        <time>2022-04-30T14:12:50Z</time>
      </trkpt>
      <trkpt lat="41.76235" lon="9.21914">
        <ele>984.05</ele>
        <time>2022-04-30T14:12:55Z</time>
      </trkpt>
      <trkpt lat="41.76232" lon="9.21909">
        <ele>983.09</ele>
        <time>2022-04-30T14:13:01Z</time>
      </trkpt>
      <trkpt lat="41.76235" lon="9.21898">
        <ele>982.6</ele>
        <time>2022-04-30T14:13:15Z</time>
      </trkpt>
      <trkpt lat="41.76222" lon="9.2188">
        <ele>984.05</ele>
        <time>2022-04-30T14:13:30Z</time>
      </trkpt>
      <trkpt lat="41.76215" lon="9.21866">
        <ele>985.49</ele>
        <time>2022-04-30T14:13:41Z</time>
      </trkpt>
      <trkpt lat="41.76205" lon="9.21852">
        <ele>985.49</ele>
        <time>2022-04-30T14:13:57Z</time>
      </trkpt>
      <trkpt lat="41.76191" lon="9.21837">
        <ele>984.53</ele>
        <time>2022-04-30T14:14:14Z</time>
      </trkpt>
      <trkpt lat="41.76177" lon="9.21829">
        <ele>985.49</ele>
        <time>2022-04-30T14:14:26Z</time>
      </trkpt>
      <trkpt lat="41.76156" lon="9.21826">
        <ele>984.53</ele>
        <time>2022-04-30T14:14:42Z</time>
      </trkpt>
      <trkpt lat="41.76144" lon="9.21825">
        <ele>984.53</ele>
        <time>2022-04-30T14:14:53Z</time>
      </trkpt>
      <trkpt lat="41.7614" lon="9.21824">
        <ele>984.05</ele>
        <time>2022-04-30T14:14:56Z</time>
      </trkpt>
      <trkpt lat="41.76118" lon="9.21823">
        <ele>983.57</ele>
        <time>2022-04-30T14:15:13Z</time>
      </trkpt>
      <trkpt lat="41.76114" lon="9.21823">
        <ele>984.05</ele>
        <time>2022-04-30T14:15:16Z</time>
      </trkpt>
      <trkpt lat="41.76091" lon="9.2183">
        <ele>982.6</ele>
        <time>2022-04-30T14:15:34Z</time>
      </trkpt>
      <trkpt lat="41.76069" lon="9.21833">
        <ele>982.6</ele>
        <time>2022-04-30T14:15:50Z</time>
      </trkpt>
      <trkpt lat="41.76057" lon="9.21826">
        <ele>982.12</ele>
        <time>2022-04-30T14:16:01Z</time>
      </trkpt>
      <trkpt lat="41.76059" lon="9.21802">
        <ele>983.57</ele>
        <time>2022-04-30T14:16:16Z</time>
      </trkpt>
      <trkpt lat="41.76065" lon="9.21793">
        <ele>984.05</ele>
        <time>2022-04-30T14:16:26Z</time>
      </trkpt>
      <trkpt lat="41.76082" lon="9.21772">
        <ele>985.01</ele>
        <time>2022-04-30T14:16:44Z</time>
      </trkpt>
      <trkpt lat="41.7609" lon="9.21758">
        <ele>985.01</ele>
        <time>2022-04-30T14:16:56Z</time>
      </trkpt>
      <trkpt lat="41.7609" lon="9.21737">
        <ele>985.01</ele>
        <time>2022-04-30T14:17:08Z</time>
      </trkpt>
      <trkpt lat="41.76083" lon="9.21719">
        <ele>985.49</ele>
        <time>2022-04-30T14:17:22Z</time>
      </trkpt>
      <trkpt lat="41.76077" lon="9.21702">
        <ele>985.01</ele>
        <time>2022-04-30T14:17:32Z</time>
      </trkpt>
      <trkpt lat="41.7607" lon="9.21685">
        <ele>985.01</ele>
        <time>2022-04-30T14:17:43Z</time>
      </trkpt>
      <trkpt lat="41.76066" lon="9.21665">
        <ele>985.01</ele>
        <time>2022-04-30T14:17:56Z</time>
      </trkpt>
      <trkpt lat="41.76066" lon="9.21644">
        <ele>985.01</ele>
        <time>2022-04-30T14:18:08Z</time>
      </trkpt>
      <trkpt lat="41.76063" lon="9.21621">
        <ele>985.97</ele>
        <time>2022-04-30T14:18:21Z</time>
      </trkpt>
      <trkpt lat="41.76064" lon="9.21598">
        <ele>985.49</ele>
        <time>2022-04-30T14:18:34Z</time>
      </trkpt>
      <trkpt lat="41.76064" lon="9.21593">
        <ele>985.49</ele>
        <time>2022-04-30T14:18:37Z</time>
      </trkpt>
      <trkpt lat="41.76065" lon="9.21583">
        <ele>985.49</ele>
        <time>2022-04-30T14:18:44Z</time>
      </trkpt>
      <trkpt lat="41.76064" lon="9.2158">
        <ele>985.01</ele>
        <time>2022-04-30T14:18:45Z</time>
      </trkpt>
      <trkpt lat="41.76065" lon="9.21578">
        <ele>985.49</ele>
        <time>2022-04-30T14:18:46Z</time>
      </trkpt>
      <trkpt lat="41.76067" lon="9.21552">
        <ele>985.01</ele>
        <time>2022-04-30T14:19:00Z</time>
      </trkpt>
      <trkpt lat="41.76067" lon="9.21546">
        <ele>985.01</ele>
        <time>2022-04-30T14:19:06Z</time>
      </trkpt>
      <trkpt lat="41.76066" lon="9.21544">
        <ele>985.01</ele>
        <time>2022-04-30T14:19:07Z</time>
      </trkpt>
      <trkpt lat="41.76066" lon="9.21542">
        <ele>985.01</ele>
        <time>2022-04-30T14:19:08Z</time>
      </trkpt>
      <trkpt lat="41.76065" lon="9.21539">
        <ele>985.01</ele>
        <time>2022-04-30T14:19:09Z</time>
      </trkpt>
      <trkpt lat="41.76064" lon="9.21536">
        <ele>984.53</ele>
        <time>2022-04-30T14:19:10Z</time>
      </trkpt>
      <trkpt lat="41.76063" lon="9.21532">
        <ele>985.01</ele>
        <time>2022-04-30T14:19:11Z</time>
      </trkpt>
      <trkpt lat="41.76062" lon="9.21529">
        <ele>985.01</ele>
        <time>2022-04-30T14:19:12Z</time>
      </trkpt>
      <trkpt lat="41.76061" lon="9.21527">
        <ele>984.05</ele>
        <time>2022-04-30T14:19:13Z</time>
      </trkpt>
      <trkpt lat="41.76061" lon="9.21526">
        <ele>984.53</ele>
        <time>2022-04-30T14:19:14Z</time>
      </trkpt>
      <trkpt lat="41.76061" lon="9.21524">
        <ele>984.53</ele>
        <time>2022-04-30T14:19:15Z</time>
      </trkpt>
      <trkpt lat="41.7606" lon="9.2152">
        <ele>983.57</ele>
        <time>2022-04-30T14:19:23Z</time>
      </trkpt>
      <trkpt lat="41.76059" lon="9.21514">
        <ele>983.57</ele>
        <time>2022-04-30T14:19:27Z</time>
      </trkpt>
      <trkpt lat="41.76058" lon="9.21513">
        <ele>983.57</ele>
        <time>2022-04-30T14:19:28Z</time>
      </trkpt>
      <trkpt lat="41.76058" lon="9.21511">
        <ele>984.05</ele>
        <time>2022-04-30T14:19:29Z</time>
      </trkpt>
      <trkpt lat="41.76057" lon="9.21507">
        <ele>984.05</ele>
        <time>2022-04-30T14:19:31Z</time>
      </trkpt>
      <trkpt lat="41.76057" lon="9.21499">
        <ele>983.57</ele>
        <time>2022-04-30T14:19:37Z</time>
      </trkpt>
      <trkpt lat="41.76057" lon="9.21498">
        <ele>983.57</ele>
        <time>2022-04-30T14:19:38Z</time>
      </trkpt>
      <trkpt lat="41.76059" lon="9.21495">
        <ele>984.05</ele>
        <time>2022-04-30T14:19:40Z</time>
      </trkpt>
      <trkpt lat="41.7606" lon="9.21496">
        <ele>983.09</ele>
        <time>2022-04-30T14:19:46Z</time>
      </trkpt>
      <trkpt lat="41.76061" lon="9.21498">
        <ele>982.12</ele>
        <time>2022-04-30T14:19:47Z</time>
      </trkpt>
      <trkpt lat="41.76061" lon="9.215">
        <ele>982.12</ele>
        <time>2022-04-30T14:19:48Z</time>
      </trkpt>
      <trkpt lat="41.76071" lon="9.2152">
        <ele>980.68</ele>
        <time>2022-04-30T14:20:01Z</time>
      </trkpt>
      <trkpt lat="41.76071" lon="9.21521">
        <ele>980.2</ele>
        <time>2022-04-30T14:20:02Z</time>
      </trkpt>
      <trkpt lat="41.76077" lon="9.2153">
        <ele>979.72</ele>
        <time>2022-04-30T14:20:18Z</time>
      </trkpt>
      <trkpt lat="41.7608" lon="9.21534">
        <ele>979.72</ele>
        <time>2022-04-30T14:20:26Z</time>
      </trkpt>
      <trkpt lat="41.76081" lon="9.21547">
        <ele>977.8</ele>
        <time>2022-04-30T14:20:37Z</time>
      </trkpt>
      <trkpt lat="41.76081" lon="9.21549">
        <ele>978.28</ele>
        <time>2022-04-30T14:20:38Z</time>
      </trkpt>
      <trkpt lat="41.76083" lon="9.21575">
        <ele>976.84</ele>
        <time>2022-04-30T14:20:52Z</time>
      </trkpt>
      <trkpt lat="41.7608" lon="9.21578">
        <ele>975.39</ele>
        <time>2022-04-30T14:20:58Z</time>
      </trkpt>
      <trkpt lat="41.76078" lon="9.21598">
        <ele>974.43</ele>
        <time>2022-04-30T14:21:07Z</time>
      </trkpt>
      <trkpt lat="41.76082" lon="9.21615">
        <ele>972.51</ele>
        <time>2022-04-30T14:21:20Z</time>
      </trkpt>
      <trkpt lat="41.76094" lon="9.21641">
        <ele>971.07</ele>
        <time>2022-04-30T14:21:32Z</time>
      </trkpt>
      <trkpt lat="41.76094" lon="9.21648">
        <ele>970.11</ele>
        <time>2022-04-30T14:21:35Z</time>
      </trkpt>
      <trkpt lat="41.76094" lon="9.21668">
        <ele>969.15</ele>
        <time>2022-04-30T14:21:49Z</time>
      </trkpt>
      <trkpt lat="41.76096" lon="9.21674">
        <ele>967.7</ele>
        <time>2022-04-30T14:22:01Z</time>
      </trkpt>
      <trkpt lat="41.76104" lon="9.21669">
        <ele>964.34</ele>
        <time>2022-04-30T14:22:12Z</time>
      </trkpt>
      <trkpt lat="41.76108" lon="9.21661">
        <ele>962.9</ele>
        <time>2022-04-30T14:22:24Z</time>
      </trkpt>
      <trkpt lat="41.7611" lon="9.2164">
        <ele>961.46</ele>
        <time>2022-04-30T14:22:36Z</time>
      </trkpt>
      <trkpt lat="41.76121" lon="9.21614">
        <ele>960.01</ele>
        <time>2022-04-30T14:22:48Z</time>
      </trkpt>
      <trkpt lat="41.76128" lon="9.21604">
        <ele>958.09</ele>
        <time>2022-04-30T14:22:58Z</time>
      </trkpt>
      <trkpt lat="41.7613" lon="9.21591">
        <ele>955.21</ele>
        <time>2022-04-30T14:23:09Z</time>
      </trkpt>
      <trkpt lat="41.76136" lon="9.21574">
        <ele>952.8</ele>
        <time>2022-04-30T14:23:21Z</time>
      </trkpt>
      <trkpt lat="41.76142" lon="9.21557">
        <ele>951.36</ele>
        <time>2022-04-30T14:23:30Z</time>
      </trkpt>
      <trkpt lat="41.76142" lon="9.21552">
        <ele>950.88</ele>
        <time>2022-04-30T14:23:44Z</time>
      </trkpt>
      <trkpt lat="41.76139" lon="9.21547">
        <ele>949.92</ele>
        <time>2022-04-30T14:24:16Z</time>
      </trkpt>
      <trkpt lat="41.76139" lon="9.21535">
        <ele>947.04</ele>
        <time>2022-04-30T14:24:25Z</time>
      </trkpt>
      <trkpt lat="41.76141" lon="9.21512">
        <ele>944.63</ele>
        <time>2022-04-30T14:24:39Z</time>
      </trkpt>
      <trkpt lat="41.76139" lon="9.21488">
        <ele>941.75</ele>
        <time>2022-04-30T14:24:55Z</time>
      </trkpt>
      <trkpt lat="41.76139" lon="9.21471">
        <ele>938.86</ele>
        <time>2022-04-30T14:25:11Z</time>
      </trkpt>
      <trkpt lat="41.76135" lon="9.21451">
        <ele>936.46</ele>
        <time>2022-04-30T14:25:25Z</time>
      </trkpt>
      <trkpt lat="41.76135" lon="9.21436">
        <ele>935.5</ele>
        <time>2022-04-30T14:25:34Z</time>
      </trkpt>
      <trkpt lat="41.76135" lon="9.21435">
        <ele>933.1</ele>
        <time>2022-04-30T14:25:35Z</time>
      </trkpt>
      <trkpt lat="41.76135" lon="9.21433">
        <ele>936.46</ele>
        <time>2022-04-30T14:25:36Z</time>
      </trkpt>
      <trkpt lat="41.76135" lon="9.21431">
        <ele>935.02</ele>
        <time>2022-04-30T14:25:37Z</time>
      </trkpt>
      <trkpt lat="41.76132" lon="9.21421">
        <ele>935.02</ele>
        <time>2022-04-30T14:25:42Z</time>
      </trkpt>
      <trkpt lat="41.76134" lon="9.21409">
        <ele>934.06</ele>
        <time>2022-04-30T14:25:52Z</time>
      </trkpt>
      <trkpt lat="41.76135" lon="9.21406">
        <ele>934.54</ele>
        <time>2022-04-30T14:25:54Z</time>
      </trkpt>
      <trkpt lat="41.76135" lon="9.21404">
        <ele>934.06</ele>
        <time>2022-04-30T14:25:55Z</time>
      </trkpt>
      <trkpt lat="41.76135" lon="9.21385">
        <ele>934.06</ele>
        <time>2022-04-30T14:26:06Z</time>
      </trkpt>
      <trkpt lat="41.76132" lon="9.21362">
        <ele>933.1</ele>
        <time>2022-04-30T14:26:19Z</time>
      </trkpt>
      <trkpt lat="41.76125" lon="9.21349">
        <ele>932.62</ele>
        <time>2022-04-30T14:26:31Z</time>
      </trkpt>
      <trkpt lat="41.76125" lon="9.21341">
        <ele>932.62</ele>
        <time>2022-04-30T14:26:50Z</time>
      </trkpt>
      <trkpt lat="41.76117" lon="9.2133">
        <ele>933.1</ele>
        <time>2022-04-30T14:27:00Z</time>
      </trkpt>
      <trkpt lat="41.76115" lon="9.21326">
        <ele>932.62</ele>
        <time>2022-04-30T14:27:05Z</time>
      </trkpt>
      <trkpt lat="41.76112" lon="9.21324">
        <ele>932.62</ele>
        <time>2022-04-30T14:27:07Z</time>
      </trkpt>
      <trkpt lat="41.76108" lon="9.21321">
        <ele>932.14</ele>
        <time>2022-04-30T14:27:10Z</time>
      </trkpt>
      <trkpt lat="41.76107" lon="9.2132">
        <ele>932.62</ele>
        <time>2022-04-30T14:27:11Z</time>
      </trkpt>
      <trkpt lat="41.76102" lon="9.21319">
        <ele>932.14</ele>
        <time>2022-04-30T14:27:21Z</time>
      </trkpt>
      <trkpt lat="41.76101" lon="9.21319">
        <ele>932.14</ele>
        <time>2022-04-30T14:27:22Z</time>
      </trkpt>
      <trkpt lat="41.761" lon="9.21318">
        <ele>931.65</ele>
        <time>2022-04-30T14:27:24Z</time>
      </trkpt>
      <trkpt lat="41.76099" lon="9.21318">
        <ele>932.14</ele>
        <time>2022-04-30T14:27:25Z</time>
      </trkpt>
      <trkpt lat="41.76089" lon="9.21312">
        <ele>930.69</ele>
        <time>2022-04-30T14:27:36Z</time>
      </trkpt>
      <trkpt lat="41.76087" lon="9.21311">
        <ele>931.17</ele>
        <time>2022-04-30T14:27:37Z</time>
      </trkpt>
      <trkpt lat="41.76082" lon="9.21307">
        <ele>929.73</ele>
        <time>2022-04-30T14:27:43Z</time>
      </trkpt>
      <trkpt lat="41.76067" lon="9.21296">
        <ele>929.73</ele>
        <time>2022-04-30T14:27:56Z</time>
      </trkpt>
      <trkpt lat="41.76047" lon="9.21282">
        <ele>927.81</ele>
        <time>2022-04-30T14:28:12Z</time>
      </trkpt>
      <trkpt lat="41.76039" lon="9.21277">
        <ele>928.29</ele>
        <time>2022-04-30T14:28:19Z</time>
      </trkpt>
      <trkpt lat="41.76034" lon="9.21273">
        <ele>927.33</ele>
        <time>2022-04-30T14:28:24Z</time>
      </trkpt>
      <trkpt lat="41.76035" lon="9.21274">
        <ele>926.85</ele>
        <time>2022-04-30T14:28:25Z</time>
      </trkpt>
      <trkpt lat="41.76034" lon="9.21273">
        <ele>926.85</ele>
        <time>2022-04-30T14:28:30Z</time>
      </trkpt>
      <trkpt lat="41.76031" lon="9.21271">
        <ele>926.85</ele>
        <time>2022-04-30T14:28:35Z</time>
      </trkpt>
      <trkpt lat="41.76024" lon="9.21261">
        <ele>926.85</ele>
        <time>2022-04-30T14:28:46Z</time>
      </trkpt>
      <trkpt lat="41.7602" lon="9.21248">
        <ele>926.85</ele>
        <time>2022-04-30T14:28:55Z</time>
      </trkpt>
      <trkpt lat="41.76016" lon="9.21232">
        <ele>925.41</ele>
        <time>2022-04-30T14:29:06Z</time>
      </trkpt>
      <trkpt lat="41.76016" lon="9.2123">
        <ele>925.41</ele>
        <time>2022-04-30T14:29:08Z</time>
      </trkpt>
      <trkpt lat="41.76016" lon="9.21229">
        <ele>924.93</ele>
        <time>2022-04-30T14:29:09Z</time>
      </trkpt>
      <trkpt lat="41.76011" lon="9.21214">
        <ele>923.96</ele>
        <time>2022-04-30T14:29:14Z</time>
      </trkpt>
      <trkpt lat="41.76005" lon="9.21194">
        <ele>922.04</ele>
        <time>2022-04-30T14:29:24Z</time>
      </trkpt>
      <trkpt lat="41.76002" lon="9.21186">
        <ele>920.12</ele>
        <time>2022-04-30T14:29:30Z</time>
      </trkpt>
      <trkpt lat="41.76003" lon="9.21185">
        <ele>923</ele>
        <time>2022-04-30T14:29:31Z</time>
      </trkpt>
      <trkpt lat="41.76003" lon="9.21184">
        <ele>921.08</ele>
        <time>2022-04-30T14:29:32Z</time>
      </trkpt>
      <trkpt lat="41.76001" lon="9.21177">
        <ele>919.16</ele>
        <time>2022-04-30T14:29:38Z</time>
      </trkpt>
      <trkpt lat="41.76001" lon="9.21175">
        <ele>920.6</ele>
        <time>2022-04-30T14:29:39Z</time>
      </trkpt>
      <trkpt lat="41.76004" lon="9.21167">
        <ele>919.16</ele>
        <time>2022-04-30T14:29:44Z</time>
      </trkpt>
      <trkpt lat="41.76002" lon="9.2114">
        <ele>917.72</ele>
        <time>2022-04-30T14:30:01Z</time>
      </trkpt>
      <trkpt lat="41.76003" lon="9.21113">
        <ele>917.72</ele>
        <time>2022-04-30T14:30:16Z</time>
      </trkpt>
      <trkpt lat="41.75988" lon="9.21082">
        <ele>916.75</ele>
        <time>2022-04-30T14:30:31Z</time>
      </trkpt>
      <trkpt lat="41.75976" lon="9.21072">
        <ele>915.31</ele>
        <time>2022-04-30T14:30:47Z</time>
      </trkpt>
      <trkpt lat="41.75975" lon="9.21071">
        <ele>915.31</ele>
        <time>2022-04-30T14:30:48Z</time>
      </trkpt>
      <trkpt lat="41.75974" lon="9.21071">
        <ele>914.83</ele>
        <time>2022-04-30T14:30:49Z</time>
      </trkpt>
      <trkpt lat="41.75954" lon="9.21062">
        <ele>912.91</ele>
        <time>2022-04-30T14:31:07Z</time>
      </trkpt>
      <trkpt lat="41.75941" lon="9.21053">
        <ele>911.47</ele>
        <time>2022-04-30T14:31:23Z</time>
      </trkpt>
      <trkpt lat="41.7593" lon="9.2103">
        <ele>910.51</ele>
        <time>2022-04-30T14:31:40Z</time>
      </trkpt>
      <trkpt lat="41.7593" lon="9.21028">
        <ele>910.51</ele>
        <time>2022-04-30T14:31:41Z</time>
      </trkpt>
      <trkpt lat="41.75928" lon="9.20998">
        <ele>910.03</ele>
        <time>2022-04-30T14:31:55Z</time>
      </trkpt>
      <trkpt lat="41.75935" lon="9.20981">
        <ele>910.03</ele>
        <time>2022-04-30T14:32:11Z</time>
      </trkpt>
      <trkpt lat="41.75951" lon="9.20965">
        <ele>910.03</ele>
        <time>2022-04-30T14:32:27Z</time>
      </trkpt>
      <trkpt lat="41.75953" lon="9.20965">
        <ele>910.03</ele>
        <time>2022-04-30T14:32:28Z</time>
      </trkpt>
      <trkpt lat="41.75968" lon="9.20951">
        <ele>908.58</ele>
        <time>2022-04-30T14:32:42Z</time>
      </trkpt>
      <trkpt lat="41.75974" lon="9.20926">
        <ele>906.66</ele>
        <time>2022-04-30T14:32:58Z</time>
      </trkpt>
      <trkpt lat="41.75973" lon="9.209">
        <ele>904.74</ele>
        <time>2022-04-30T14:33:14Z</time>
      </trkpt>
      <trkpt lat="41.75973" lon="9.20875">
        <ele>903.3</ele>
        <time>2022-04-30T14:33:29Z</time>
      </trkpt>
      <trkpt lat="41.75976" lon="9.20849">
        <ele>900.89</ele>
        <time>2022-04-30T14:33:45Z</time>
      </trkpt>
      <trkpt lat="41.75969" lon="9.20823">
        <ele>897.53</ele>
        <time>2022-04-30T14:34:03Z</time>
      </trkpt>
      <trkpt lat="41.75952" lon="9.20827">
        <ele>897.05</ele>
        <time>2022-04-30T14:34:20Z</time>
      </trkpt>
      <trkpt lat="41.75947" lon="9.20832">
        <ele>896.09</ele>
        <time>2022-04-30T14:34:25Z</time>
      </trkpt>
      <trkpt lat="41.75941" lon="9.20834">
        <ele>896.09</ele>
        <time>2022-04-30T14:34:30Z</time>
      </trkpt>
      <trkpt lat="41.75932" lon="9.20836">
        <ele>896.09</ele>
        <time>2022-04-30T14:34:37Z</time>
      </trkpt>
      <trkpt lat="41.7593" lon="9.20836">
        <ele>895.61</ele>
        <time>2022-04-30T14:34:38Z</time>
      </trkpt>
      <trkpt lat="41.75929" lon="9.20836">
        <ele>895.12</ele>
        <time>2022-04-30T14:34:39Z</time>
      </trkpt>
      <trkpt lat="41.75927" lon="9.20836">
        <ele>895.12</ele>
        <time>2022-04-30T14:34:40Z</time>
      </trkpt>
      <trkpt lat="41.75917" lon="9.20833">
        <ele>894.16</ele>
        <time>2022-04-30T14:34:50Z</time>
      </trkpt>
      <trkpt lat="41.75917" lon="9.20832">
        <ele>894.16</ele>
        <time>2022-04-30T14:34:51Z</time>
      </trkpt>
      <trkpt lat="41.75916" lon="9.2083">
        <ele>893.68</ele>
        <time>2022-04-30T14:34:52Z</time>
      </trkpt>
      <trkpt lat="41.75915" lon="9.20827">
        <ele>893.68</ele>
        <time>2022-04-30T14:34:53Z</time>
      </trkpt>
      <trkpt lat="41.75913" lon="9.20825">
        <ele>893.2</ele>
        <time>2022-04-30T14:34:54Z</time>
      </trkpt>
      <trkpt lat="41.75912" lon="9.20822">
        <ele>892.24</ele>
        <time>2022-04-30T14:34:55Z</time>
      </trkpt>
      <trkpt lat="41.75911" lon="9.20819">
        <ele>891.76</ele>
        <time>2022-04-30T14:34:56Z</time>
      </trkpt>
      <trkpt lat="41.75911" lon="9.20815">
        <ele>890.8</ele>
        <time>2022-04-30T14:34:57Z</time>
      </trkpt>
      <trkpt lat="41.7591" lon="9.20813">
        <ele>889.84</ele>
        <time>2022-04-30T14:34:58Z</time>
      </trkpt>
      <trkpt lat="41.75913" lon="9.20802">
        <ele>887.43</ele>
        <time>2022-04-30T14:35:02Z</time>
      </trkpt>
      <trkpt lat="41.75915" lon="9.20799">
        <ele>886.95</ele>
        <time>2022-04-30T14:35:03Z</time>
      </trkpt>
      <trkpt lat="41.75917" lon="9.20796">
        <ele>885.51</ele>
        <time>2022-04-30T14:35:04Z</time>
      </trkpt>
      <trkpt lat="41.75919" lon="9.20793">
        <ele>885.03</ele>
        <time>2022-04-30T14:35:05Z</time>
      </trkpt>
      <trkpt lat="41.7592" lon="9.2079">
        <ele>884.55</ele>
        <time>2022-04-30T14:35:06Z</time>
      </trkpt>
      <trkpt lat="41.75921" lon="9.20788">
        <ele>884.55</ele>
        <time>2022-04-30T14:35:07Z</time>
      </trkpt>
      <trkpt lat="41.75926" lon="9.20779">
        <ele>881.19</ele>
        <time>2022-04-30T14:35:11Z</time>
      </trkpt>
      <trkpt lat="41.75927" lon="9.20778">
        <ele>881.67</ele>
        <time>2022-04-30T14:35:12Z</time>
      </trkpt>
      <trkpt lat="41.75932" lon="9.20769">
        <ele>880.22</ele>
        <time>2022-04-30T14:35:18Z</time>
      </trkpt>
      <trkpt lat="41.7594" lon="9.20762">
        <ele>880.22</ele>
        <time>2022-04-30T14:35:28Z</time>
      </trkpt>
      <trkpt lat="41.75957" lon="9.20752">
        <ele>880.22</ele>
        <time>2022-04-30T14:35:44Z</time>
      </trkpt>
      <trkpt lat="41.7597" lon="9.20751">
        <ele>879.26</ele>
        <time>2022-04-30T14:35:59Z</time>
      </trkpt>
      <trkpt lat="41.75971" lon="9.20755">
        <ele>879.26</ele>
        <time>2022-04-30T14:36:21Z</time>
      </trkpt>
      <trkpt lat="41.75983" lon="9.20752">
        <ele>879.74</ele>
        <time>2022-04-30T14:36:34Z</time>
      </trkpt>
      <trkpt lat="41.75996" lon="9.20757">
        <ele>879.26</ele>
        <time>2022-04-30T14:36:44Z</time>
      </trkpt>
      <trkpt lat="41.76009" lon="9.20759">
        <ele>879.26</ele>
        <time>2022-04-30T14:36:57Z</time>
      </trkpt>
      <trkpt lat="41.76021" lon="9.20756">
        <ele>878.78</ele>
        <time>2022-04-30T14:37:08Z</time>
      </trkpt>
      <trkpt lat="41.7603" lon="9.20743">
        <ele>877.82</ele>
        <time>2022-04-30T14:37:20Z</time>
      </trkpt>
      <trkpt lat="41.7603" lon="9.20741">
        <ele>878.3</ele>
        <time>2022-04-30T14:37:21Z</time>
      </trkpt>
      <trkpt lat="41.76031" lon="9.20739">
        <ele>878.3</ele>
        <time>2022-04-30T14:37:22Z</time>
      </trkpt>
      <trkpt lat="41.76032" lon="9.20737">
        <ele>878.3</ele>
        <time>2022-04-30T14:37:23Z</time>
      </trkpt>
      <trkpt lat="41.76033" lon="9.20735">
        <ele>878.3</ele>
        <time>2022-04-30T14:37:24Z</time>
      </trkpt>
      <trkpt lat="41.76033" lon="9.20734">
        <ele>878.3</ele>
        <time>2022-04-30T14:37:25Z</time>
      </trkpt>
      <trkpt lat="41.76036" lon="9.20719">
        <ele>878.78</ele>
        <time>2022-04-30T14:37:37Z</time>
      </trkpt>
      <trkpt lat="41.76036" lon="9.20718">
        <ele>878.78</ele>
        <time>2022-04-30T14:37:38Z</time>
      </trkpt>
      <trkpt lat="41.76036" lon="9.20716">
        <ele>877.82</ele>
        <time>2022-04-30T14:37:40Z</time>
      </trkpt>
      <trkpt lat="41.76032" lon="9.20691">
        <ele>879.26</ele>
        <time>2022-04-30T14:37:53Z</time>
      </trkpt>
      <trkpt lat="41.76032" lon="9.20678">
        <ele>878.3</ele>
        <time>2022-04-30T14:38:03Z</time>
      </trkpt>
      <trkpt lat="41.76035" lon="9.2065">
        <ele>879.26</ele>
        <time>2022-04-30T14:38:17Z</time>
      </trkpt>
      <trkpt lat="41.76034" lon="9.20632">
        <ele>878.78</ele>
        <time>2022-04-30T14:38:29Z</time>
      </trkpt>
      <trkpt lat="41.76033" lon="9.20617">
        <ele>879.26</ele>
        <time>2022-04-30T14:38:40Z</time>
      </trkpt>
      <trkpt lat="41.76022" lon="9.20593">
        <ele>879.26</ele>
        <time>2022-04-30T14:38:55Z</time>
      </trkpt>
      <trkpt lat="41.76021" lon="9.20593">
        <ele>879.74</ele>
        <time>2022-04-30T14:38:56Z</time>
      </trkpt>
      <trkpt lat="41.76006" lon="9.20584">
        <ele>881.19</ele>
        <time>2022-04-30T14:39:09Z</time>
      </trkpt>
      <trkpt lat="41.75989" lon="9.20575">
        <ele>880.22</ele>
        <time>2022-04-30T14:39:26Z</time>
      </trkpt>
      <trkpt lat="41.75984" lon="9.20573">
        <ele>881.19</ele>
        <time>2022-04-30T14:39:32Z</time>
      </trkpt>
      <trkpt lat="41.75963" lon="9.20571">
        <ele>881.67</ele>
        <time>2022-04-30T14:39:48Z</time>
      </trkpt>
      <trkpt lat="41.75962" lon="9.20571">
        <ele>878.3</ele>
        <time>2022-04-30T14:39:49Z</time>
      </trkpt>
      <trkpt lat="41.75961" lon="9.20571">
        <ele>882.63</ele>
        <time>2022-04-30T14:39:50Z</time>
      </trkpt>
      <trkpt lat="41.75947" lon="9.20569">
        <ele>881.19</ele>
        <time>2022-04-30T14:40:04Z</time>
      </trkpt>
      <trkpt lat="41.75936" lon="9.20565">
        <ele>882.15</ele>
        <time>2022-04-30T14:40:14Z</time>
      </trkpt>
      <trkpt lat="41.75926" lon="9.20559">
        <ele>878.3</ele>
        <time>2022-04-30T14:40:25Z</time>
      </trkpt>
      <trkpt lat="41.75925" lon="9.20558">
        <ele>885.03</ele>
        <time>2022-04-30T14:40:26Z</time>
      </trkpt>
      <trkpt lat="41.75924" lon="9.20557">
        <ele>881.19</ele>
        <time>2022-04-30T14:40:27Z</time>
      </trkpt>
      <trkpt lat="41.759" lon="9.20545">
        <ele>882.63</ele>
        <time>2022-04-30T14:40:41Z</time>
      </trkpt>
      <trkpt lat="41.7589" lon="9.20526">
        <ele>883.59</ele>
        <time>2022-04-30T14:40:55Z</time>
      </trkpt>
      <trkpt lat="41.7589" lon="9.20497">
        <ele>885.03</ele>
        <time>2022-04-30T14:41:11Z</time>
      </trkpt>
      <trkpt lat="41.7589" lon="9.20467">
        <ele>885.03</ele>
        <time>2022-04-30T14:41:26Z</time>
      </trkpt>
      <trkpt lat="41.75891" lon="9.20447">
        <ele>885.51</ele>
        <time>2022-04-30T14:41:40Z</time>
      </trkpt>
      <trkpt lat="41.75892" lon="9.20438">
        <ele>885.51</ele>
        <time>2022-04-30T14:41:46Z</time>
      </trkpt>
      <trkpt lat="41.75904" lon="9.20412">
        <ele>885.99</ele>
        <time>2022-04-30T14:42:03Z</time>
      </trkpt>
      <trkpt lat="41.75913" lon="9.20385">
        <ele>885.99</ele>
        <time>2022-04-30T14:42:20Z</time>
      </trkpt>
      <trkpt lat="41.75922" lon="9.20355">
        <ele>885.99</ele>
        <time>2022-04-30T14:42:39Z</time>
      </trkpt>
      <trkpt lat="41.75931" lon="9.20337">
        <ele>886.47</ele>
        <time>2022-04-30T14:42:53Z</time>
      </trkpt>
      <trkpt lat="41.75938" lon="9.20333">
        <ele>886.95</ele>
        <time>2022-04-30T14:43:00Z</time>
      </trkpt>
      <trkpt lat="41.75939" lon="9.20332">
        <ele>886.47</ele>
        <time>2022-04-30T14:43:01Z</time>
      </trkpt>
      <trkpt lat="41.7594" lon="9.20332">
        <ele>886.47</ele>
        <time>2022-04-30T14:43:02Z</time>
      </trkpt>
      <trkpt lat="41.75942" lon="9.20331">
        <ele>885.99</ele>
        <time>2022-04-30T14:43:03Z</time>
      </trkpt>
      <trkpt lat="41.7596" lon="9.20328">
        <ele>886.47</ele>
        <time>2022-04-30T14:43:18Z</time>
      </trkpt>
      <trkpt lat="41.75974" lon="9.20325">
        <ele>886.47</ele>
        <time>2022-04-30T14:43:32Z</time>
      </trkpt>
      <trkpt lat="41.75979" lon="9.20309">
        <ele>886.95</ele>
        <time>2022-04-30T14:43:44Z</time>
      </trkpt>
      <trkpt lat="41.75969" lon="9.20292">
        <ele>887.43</ele>
        <time>2022-04-30T14:43:57Z</time>
      </trkpt>
      <trkpt lat="41.75955" lon="9.20274">
        <ele>886.95</ele>
        <time>2022-04-30T14:44:13Z</time>
      </trkpt>
      <trkpt lat="41.75945" lon="9.20258">
        <ele>887.43</ele>
        <time>2022-04-30T14:44:23Z</time>
      </trkpt>
      <trkpt lat="41.75936" lon="9.20244">
        <ele>886.95</ele>
        <time>2022-04-30T14:44:37Z</time>
      </trkpt>
      <trkpt lat="41.75925" lon="9.2023">
        <ele>886.47</ele>
        <time>2022-04-30T14:44:53Z</time>
      </trkpt>
      <trkpt lat="41.75912" lon="9.20209">
        <ele>886.95</ele>
        <time>2022-04-30T14:45:06Z</time>
      </trkpt>
      <trkpt lat="41.759" lon="9.20192">
        <ele>886.95</ele>
        <time>2022-04-30T14:45:20Z</time>
      </trkpt>
      <trkpt lat="41.75894" lon="9.20173">
        <ele>887.43</ele>
        <time>2022-04-30T14:45:32Z</time>
      </trkpt>
      <trkpt lat="41.7589" lon="9.20149">
        <ele>887.43</ele>
        <time>2022-04-30T14:45:47Z</time>
      </trkpt>
      <trkpt lat="41.75883" lon="9.20118">
        <ele>887.91</ele>
        <time>2022-04-30T14:46:05Z</time>
      </trkpt>
      <trkpt lat="41.75882" lon="9.20093">
        <ele>887.91</ele>
        <time>2022-04-30T14:46:22Z</time>
      </trkpt>
      <trkpt lat="41.75878" lon="9.20058">
        <ele>888.4</ele>
        <time>2022-04-30T14:46:41Z</time>
      </trkpt>
      <trkpt lat="41.75878" lon="9.20019">
        <ele>888.88</ele>
        <time>2022-04-30T14:47:01Z</time>
      </trkpt>
      <trkpt lat="41.7589" lon="9.19996">
        <ele>889.36</ele>
        <time>2022-04-30T14:47:16Z</time>
      </trkpt>
      <trkpt lat="41.75903" lon="9.19984">
        <ele>888.4</ele>
        <time>2022-04-30T14:47:30Z</time>
      </trkpt>
      <trkpt lat="41.75909" lon="9.19983">
        <ele>888.4</ele>
        <time>2022-04-30T14:47:35Z</time>
      </trkpt>
      <trkpt lat="41.75925" lon="9.19979">
        <ele>888.4</ele>
        <time>2022-04-30T14:47:49Z</time>
      </trkpt>
      <trkpt lat="41.75934" lon="9.19989">
        <ele>888.4</ele>
        <time>2022-04-30T14:47:59Z</time>
      </trkpt>
      <trkpt lat="41.75941" lon="9.19998">
        <ele>888.88</ele>
        <time>2022-04-30T14:48:06Z</time>
      </trkpt>
      <trkpt lat="41.75943" lon="9.2">
        <ele>887.91</ele>
        <time>2022-04-30T14:48:07Z</time>
      </trkpt>
      <trkpt lat="41.75964" lon="9.20013">
        <ele>887.43</ele>
        <time>2022-04-30T14:48:20Z</time>
      </trkpt>
      <trkpt lat="41.75981" lon="9.20017">
        <ele>886.95</ele>
        <time>2022-04-30T14:48:36Z</time>
      </trkpt>
      <trkpt lat="41.76005" lon="9.20024">
        <ele>885.99</ele>
        <time>2022-04-30T14:48:50Z</time>
      </trkpt>
      <trkpt lat="41.76009" lon="9.20025">
        <ele>885.99</ele>
        <time>2022-04-30T14:48:53Z</time>
      </trkpt>
      <trkpt lat="41.76019" lon="9.20023">
        <ele>883.11</ele>
        <time>2022-04-30T14:49:00Z</time>
      </trkpt>
      <trkpt lat="41.76021" lon="9.20022">
        <ele>890.32</ele>
        <time>2022-04-30T14:49:02Z</time>
      </trkpt>
      <trkpt lat="41.76023" lon="9.20021">
        <ele>885.99</ele>
        <time>2022-04-30T14:49:03Z</time>
      </trkpt>
      <trkpt lat="41.76035" lon="9.20015">
        <ele>882.15</ele>
        <time>2022-04-30T14:49:13Z</time>
      </trkpt>
      <trkpt lat="41.76037" lon="9.20014">
        <ele>887.91</ele>
        <time>2022-04-30T14:49:14Z</time>
      </trkpt>
      <trkpt lat="41.76039" lon="9.20011">
        <ele>884.55</ele>
        <time>2022-04-30T14:49:16Z</time>
      </trkpt>
      <trkpt lat="41.76056" lon="9.20003">
        <ele>883.59</ele>
        <time>2022-04-30T14:49:29Z</time>
      </trkpt>
      <trkpt lat="41.76057" lon="9.20004">
        <ele>883.59</ele>
        <time>2022-04-30T14:49:30Z</time>
      </trkpt>
      <trkpt lat="41.76058" lon="9.20004">
        <ele>883.59</ele>
        <time>2022-04-30T14:49:31Z</time>
      </trkpt>
      <trkpt lat="41.76062" lon="9.2">
        <ele>884.07</ele>
        <time>2022-04-30T14:49:34Z</time>
      </trkpt>
      <trkpt lat="41.76063" lon="9.19998">
        <ele>884.55</ele>
        <time>2022-04-30T14:49:35Z</time>
      </trkpt>
      <trkpt lat="41.76075" lon="9.19986">
        <ele>883.59</ele>
        <time>2022-04-30T14:49:47Z</time>
      </trkpt>
      <trkpt lat="41.76093" lon="9.1997">
        <ele>883.59</ele>
        <time>2022-04-30T14:50:01Z</time>
      </trkpt>
      <trkpt lat="41.76114" lon="9.19958">
        <ele>883.11</ele>
        <time>2022-04-30T14:50:14Z</time>
      </trkpt>
      <trkpt lat="41.76136" lon="9.1995">
        <ele>882.15</ele>
        <time>2022-04-30T14:50:31Z</time>
      </trkpt>
      <trkpt lat="41.76152" lon="9.19933">
        <ele>881.67</ele>
        <time>2022-04-30T14:50:48Z</time>
      </trkpt>
      <trkpt lat="41.7616" lon="9.19916">
        <ele>881.19</ele>
        <time>2022-04-30T14:51:00Z</time>
      </trkpt>
      <trkpt lat="41.7616" lon="9.19915">
        <ele>881.19</ele>
        <time>2022-04-30T14:51:01Z</time>
      </trkpt>
      <trkpt lat="41.76161" lon="9.19913">
        <ele>881.19</ele>
        <time>2022-04-30T14:51:02Z</time>
      </trkpt>
      <trkpt lat="41.76161" lon="9.19911">
        <ele>881.67</ele>
        <time>2022-04-30T14:51:03Z</time>
      </trkpt>
      <trkpt lat="41.76162" lon="9.19909">
        <ele>881.19</ele>
        <time>2022-04-30T14:51:04Z</time>
      </trkpt>
      <trkpt lat="41.76178" lon="9.19878">
        <ele>880.71</ele>
        <time>2022-04-30T14:51:24Z</time>
      </trkpt>
      <trkpt lat="41.76187" lon="9.19851">
        <ele>880.22</ele>
        <time>2022-04-30T14:51:42Z</time>
      </trkpt>
      <trkpt lat="41.76189" lon="9.19816">
        <ele>880.22</ele>
        <time>2022-04-30T14:52:01Z</time>
      </trkpt>
      <trkpt lat="41.7619" lon="9.19807">
        <ele>879.74</ele>
        <time>2022-04-30T14:52:09Z</time>
      </trkpt>
      <trkpt lat="41.76178" lon="9.19775">
        <ele>879.26</ele>
        <time>2022-04-30T14:52:26Z</time>
      </trkpt>
      <trkpt lat="41.76165" lon="9.1975">
        <ele>878.78</ele>
        <time>2022-04-30T14:52:40Z</time>
      </trkpt>
      <trkpt lat="41.76148" lon="9.19732">
        <ele>878.3</ele>
        <time>2022-04-30T14:52:54Z</time>
      </trkpt>
      <trkpt lat="41.76133" lon="9.1972">
        <ele>877.34</ele>
        <time>2022-04-30T14:53:09Z</time>
      </trkpt>
      <trkpt lat="41.76119" lon="9.19713">
        <ele>877.34</ele>
        <time>2022-04-30T14:53:20Z</time>
      </trkpt>
      <trkpt lat="41.76098" lon="9.1971">
        <ele>877.34</ele>
        <time>2022-04-30T14:53:34Z</time>
      </trkpt>
      <trkpt lat="41.76078" lon="9.19715">
        <ele>876.38</ele>
        <time>2022-04-30T14:53:48Z</time>
      </trkpt>
      <trkpt lat="41.76069" lon="9.19714">
        <ele>875.9</ele>
        <time>2022-04-30T14:53:56Z</time>
      </trkpt>
      <trkpt lat="41.76045" lon="9.19712">
        <ele>875.42</ele>
        <time>2022-04-30T14:54:13Z</time>
      </trkpt>
      <trkpt lat="41.76021" lon="9.19705">
        <ele>874.94</ele>
        <time>2022-04-30T14:54:30Z</time>
      </trkpt>
      <trkpt lat="41.75999" lon="9.19703">
        <ele>874.46</ele>
        <time>2022-04-30T14:54:45Z</time>
      </trkpt>
      <trkpt lat="41.75979" lon="9.19698">
        <ele>874.46</ele>
        <time>2022-04-30T14:54:59Z</time>
      </trkpt>
      <trkpt lat="41.7596" lon="9.19696">
        <ele>873.01</ele>
        <time>2022-04-30T14:55:14Z</time>
      </trkpt>
      <trkpt lat="41.75942" lon="9.19684">
        <ele>872.53</ele>
        <time>2022-04-30T14:55:29Z</time>
      </trkpt>
      <trkpt lat="41.75924" lon="9.19665">
        <ele>872.53</ele>
        <time>2022-04-30T14:55:48Z</time>
      </trkpt>
      <trkpt lat="41.75918" lon="9.19656">
        <ele>872.05</ele>
        <time>2022-04-30T14:55:55Z</time>
      </trkpt>
      <trkpt lat="41.75903" lon="9.1963">
        <ele>871.57</ele>
        <time>2022-04-30T14:56:10Z</time>
      </trkpt>
      <trkpt lat="41.75895" lon="9.19614">
        <ele>871.57</ele>
        <time>2022-04-30T14:56:20Z</time>
      </trkpt>
      <trkpt lat="41.75887" lon="9.1958">
        <ele>870.13</ele>
        <time>2022-04-30T14:56:38Z</time>
      </trkpt>
      <trkpt lat="41.75887" lon="9.19577">
        <ele>870.13</ele>
        <time>2022-04-30T14:56:40Z</time>
      </trkpt>
      <trkpt lat="41.75881" lon="9.19548">
        <ele>869.17</ele>
        <time>2022-04-30T14:56:57Z</time>
      </trkpt>
      <trkpt lat="41.75872" lon="9.19515">
        <ele>868.21</ele>
        <time>2022-04-30T14:57:15Z</time>
      </trkpt>
      <trkpt lat="41.75863" lon="9.19485">
        <ele>867.73</ele>
        <time>2022-04-30T14:57:32Z</time>
      </trkpt>
      <trkpt lat="41.75855" lon="9.19456">
        <ele>867.73</ele>
        <time>2022-04-30T14:57:48Z</time>
      </trkpt>
      <trkpt lat="41.75846" lon="9.19421">
        <ele>866.77</ele>
        <time>2022-04-30T14:58:07Z</time>
      </trkpt>
      <trkpt lat="41.75843" lon="9.19397">
        <ele>865.32</ele>
        <time>2022-04-30T14:58:20Z</time>
      </trkpt>
      <trkpt lat="41.75841" lon="9.19368">
        <ele>864.84</ele>
        <time>2022-04-30T14:58:36Z</time>
      </trkpt>
      <trkpt lat="41.75841" lon="9.19335">
        <ele>864.84</ele>
        <time>2022-04-30T14:58:53Z</time>
      </trkpt>
      <trkpt lat="41.75839" lon="9.19301">
        <ele>863.88</ele>
        <time>2022-04-30T14:59:10Z</time>
      </trkpt>
      <trkpt lat="41.75839" lon="9.19268">
        <ele>862.44</ele>
        <time>2022-04-30T14:59:29Z</time>
      </trkpt>
      <trkpt lat="41.75839" lon="9.1926">
        <ele>862.44</ele>
        <time>2022-04-30T14:59:33Z</time>
      </trkpt>
      <trkpt lat="41.7584" lon="9.19244">
        <ele>862.44</ele>
        <time>2022-04-30T14:59:42Z</time>
      </trkpt>
      <trkpt lat="41.75839" lon="9.19242">
        <ele>861.96</ele>
        <time>2022-04-30T14:59:43Z</time>
      </trkpt>
      <trkpt lat="41.75839" lon="9.1924">
        <ele>861.48</ele>
        <time>2022-04-30T14:59:44Z</time>
      </trkpt>
      <trkpt lat="41.75845" lon="9.19203">
        <ele>861.48</ele>
        <time>2022-04-30T15:00:02Z</time>
      </trkpt>
      <trkpt lat="41.75852" lon="9.19168">
        <ele>860.52</ele>
        <time>2022-04-30T15:00:21Z</time>
      </trkpt>
      <trkpt lat="41.7586" lon="9.19149">
        <ele>859.56</ele>
        <time>2022-04-30T15:00:34Z</time>
      </trkpt>
      <trkpt lat="41.75866" lon="9.19124">
        <ele>859.56</ele>
        <time>2022-04-30T15:00:49Z</time>
      </trkpt>
      <trkpt lat="41.75868" lon="9.19115">
        <ele>859.08</ele>
        <time>2022-04-30T15:00:55Z</time>
      </trkpt>
      <trkpt lat="41.75869" lon="9.19114">
        <ele>859.08</ele>
        <time>2022-04-30T15:00:56Z</time>
      </trkpt>
      <trkpt lat="41.7587" lon="9.19111">
        <ele>859.08</ele>
        <time>2022-04-30T15:00:57Z</time>
      </trkpt>
      <trkpt lat="41.75871" lon="9.19109">
        <ele>858.59</ele>
        <time>2022-04-30T15:00:58Z</time>
      </trkpt>
      <trkpt lat="41.75872" lon="9.19108">
        <ele>859.08</ele>
        <time>2022-04-30T15:00:59Z</time>
      </trkpt>
      <trkpt lat="41.75873" lon="9.19107">
        <ele>859.08</ele>
        <time>2022-04-30T15:01:00Z</time>
      </trkpt>
      <trkpt lat="41.75874" lon="9.19107">
        <ele>859.08</ele>
        <time>2022-04-30T15:01:01Z</time>
      </trkpt>
      <trkpt lat="41.75876" lon="9.19107">
        <ele>858.59</ele>
        <time>2022-04-30T15:01:02Z</time>
      </trkpt>
      <trkpt lat="41.75878" lon="9.19108">
        <ele>858.59</ele>
        <time>2022-04-30T15:01:03Z</time>
      </trkpt>
      <trkpt lat="41.75884" lon="9.19119">
        <ele>860.04</ele>
        <time>2022-04-30T15:01:13Z</time>
      </trkpt>
      <trkpt lat="41.75897" lon="9.19121">
        <ele>861.96</ele>
        <time>2022-04-30T15:01:27Z</time>
      </trkpt>
      <trkpt lat="41.75907" lon="9.19119">
        <ele>863.4</ele>
        <time>2022-04-30T15:01:40Z</time>
      </trkpt>
      <trkpt lat="41.75916" lon="9.19118">
        <ele>865.8</ele>
        <time>2022-04-30T15:01:54Z</time>
      </trkpt>
      <trkpt lat="41.75923" lon="9.19125">
        <ele>867.25</ele>
        <time>2022-04-30T15:02:07Z</time>
      </trkpt>
      <trkpt lat="41.75932" lon="9.19135">
        <ele>869.17</ele>
        <time>2022-04-30T15:02:19Z</time>
      </trkpt>
      <trkpt lat="41.75937" lon="9.19144">
        <ele>871.57</ele>
        <time>2022-04-30T15:02:32Z</time>
      </trkpt>
      <trkpt lat="41.75945" lon="9.19156">
        <ele>873.5</ele>
        <time>2022-04-30T15:02:47Z</time>
      </trkpt>
      <trkpt lat="41.7595" lon="9.19157">
        <ele>874.94</ele>
        <time>2022-04-30T15:03:01Z</time>
      </trkpt>
      <trkpt lat="41.7595" lon="9.19127">
        <ele>874.94</ele>
        <time>2022-04-30T15:03:18Z</time>
      </trkpt>
      <trkpt lat="41.75951" lon="9.19124">
        <ele>874.46</ele>
        <time>2022-04-30T15:03:20Z</time>
      </trkpt>
      <trkpt lat="41.75948" lon="9.19111">
        <ele>876.38</ele>
        <time>2022-04-30T15:03:35Z</time>
      </trkpt>
      <trkpt lat="41.75949" lon="9.19105">
        <ele>877.82</ele>
        <time>2022-04-30T15:03:48Z</time>
      </trkpt>
      <trkpt lat="41.75953" lon="9.19109">
        <ele>878.3</ele>
        <time>2022-04-30T15:03:56Z</time>
      </trkpt>
      <trkpt lat="41.75954" lon="9.1911">
        <ele>878.78</ele>
        <time>2022-04-30T15:03:58Z</time>
      </trkpt>
      <trkpt lat="41.75955" lon="9.19111">
        <ele>878.78</ele>
        <time>2022-04-30T15:03:59Z</time>
      </trkpt>
      <trkpt lat="41.75956" lon="9.19112">
        <ele>878.3</ele>
        <time>2022-04-30T15:04:00Z</time>
      </trkpt>
      <trkpt lat="41.75959" lon="9.19116">
        <ele>878.78</ele>
        <time>2022-04-30T15:04:04Z</time>
      </trkpt>
      <trkpt lat="41.75965" lon="9.1911">
        <ele>880.22</ele>
        <time>2022-04-30T15:04:17Z</time>
      </trkpt>
      <trkpt lat="41.75975" lon="9.19115">
        <ele>880.71</ele>
        <time>2022-04-30T15:04:31Z</time>
      </trkpt>
      <trkpt lat="41.75977" lon="9.19116">
        <ele>880.71</ele>
        <time>2022-04-30T15:04:48Z</time>
      </trkpt>
      <trkpt lat="41.75976" lon="9.19116">
        <ele>879.74</ele>
        <time>2022-04-30T15:05:04Z</time>
      </trkpt>
    </trkseg>
  </trk>
</gpx>